[[{"header":{"parameterUnit":"m.s-1","parameterCategory":1,"la1":31.0,"la2":29.5877,"lo1":-88.7671,"lo2":-86.6584,"dy":0.0162,"dx":0.0185,"nx":115,"ny":88,"refTime":"2026-05-10T12:00:00:Z","depth":0,"parameterNumber":2,"parameterNumberName":"U-component_of_WINDS"},"data":[0.0,0.0,0.0,0.0,0.0,0.0,0.0,0.0,0.0,0.0,0.0,0.0,0.0,0.0,0.0,0.0,0.0,0.0,0.0,0.0,0.0,0.0,0.0,0.0,0.0,0.0,0.0,0.0,0.0,0.0,0.0,0.0,0.0,0.0,0.0,0.0,0.0,0.0,0.0,0.0,0.0,0.0,0.0,0.0,0.0,0.0,0.0,0.0,0.0,0.0,0.0,0.0,0.0,0.0,0.0,0.0,0.0,0.0,0.0,0.0,0.0,0.0,0.0,0.0,0.0,0.0,0.0,0.0,0.0,0.0,0.0,0.0,0.0,0.0,0.0,0.0,0.0,0.0,0.0,0.0,0.0,0.0,0.0,0.0,0.0,0.0,0.0,0.0,0.0,0.0,0.0,0.0,0.0,0.0,0.0,0.0,0.0,0.0,0.0,0.0,0.0,0.0,0.0,0.0,0.0,0.0,0.0,0.0,0.0,0.0,0.0,0.0,0.0,0.0,0.0,0.0,0.0,0.0,0.0,0.0,0.0,0.0,0.0,0.0,0.0,0.0,0.0,0.0,0.0,0.0,0.0,0.0,0.0,0.0,0.0,0.0,0.0,0.0,0.0,0.0,0.0,0.0,0.0,0.0,0.0,0.0,0.0,0.0,0.0,0.0,0.0,0.0,0.0,0.0,0.0,0.0,0.0,0.0,0.0,0.0,0.0,0.0,0.0,0.0,0.0,0.0,0.0,0.0,0.0,0.0,0.0,0.0,0.0,0.0,0.0,0.0,0.0,0.0,0.0,0.0,0.0,0.0,0.0,0.0,0.0,0.0,0.0,0.0,0.0,0.0,0.0,0.0,0.0,0.0,0.0,0.0,0.0,0.0,0.0,0.0,0.0,0.0,0.0,0.0,0.0,0.0,0.0,0.0,0.0,0.0,0.0,0.0,0.0,0.0,0.0,0.0,0.0,0.0,0.0,0.0,0.0,0.0,0.0,0.0,0.0,0.0,0.0,0.0,0.0,0.0,0.0,0.0,0.0,0.0,0.0,0.0,0.0,0.0,0.0,0.0,0.0,0.0,0.0,0.0,0.0,0.0,0.0,0.0,0.0,0.0,0.0,0.0,0.0,0.0,0.0,0.0,0.0,0.0,0.0,0.0,0.0,0.0,0.0,0.0,0.0,0.0,0.0,0.0,0.0,0.0,0.0,0.0,0.0,0.0,0.0,0.0,0.0,0.0,0.0,0.0,0.0,0.0,0.0,0.0,0.0,0.0,0.0,0.0,0.0,0.0,0.0,0.0,0.0,0.0,0.0,0.0,0.0,0.0,0.0,0.0,0.0,0.0,0.0,0.0,0.0,0.0,0.0,0.0,0.0,0.0,0.0,0.0,0.0,0.0,0.0,0.0,0.0,0.0,0.0,0.0,0.0,0.0,0.0,0.0,0.0,0.0,0.0,0.0,0.0,0.0,0.0,0.0,0.0,0.0,0.0,0.0,0.0,0.0,0.0,0.0,0.0,0.0,0.0,0.0,0.0,0.0,0.0,0.0,0.0,0.0,0.0,0.0,0.0,0.0,0.0,0.0,0.0,0.0,0.0,0.0,0.0,0.0,0.0,0.0,0.0,0.0,0.0,0.0,0.0,0.0,0.0,0.0,0.0,0.0,0.0,0.0,0.0,0.0,0.0,0.0,0.0,0.0,0.0,0.0,0.0,0.0,0.0,0.0,0.0,0.0,0.0,0.0,0.0,0.0,0.0,0.0,0.0,0.0,0.0,0.0,0.0,0.0,0.0,0.0,0.0,0.0,0.0,0.0,0.0,0.0,0.0,0.0,0.0,0.0,0.0,0.0,0.0,0.0,0.0,0.0,0.0,0.0,0.0,0.0,0.0,0.0,0.0,0.0,0.0,0.0,0.0,0.0,0.0,0.0,0.0,0.0,0.0,0.0,0.0,0.0,0.0,0.0,0.0,0.0,0.0,0.0,0.0,0.0,0.0,0.0,0.0,0.0,0.0,0.0,0.0,0.0,0.0,0.0,0.0,0.0,0.0,0.0,0.0,0.0,0.0,0.0,0.0,0.0,0.0,0.0,0.0,0.0,0.0,0.0,0.0,0.0,0.0,0.0,0.0,0.0,0.0,0.0,0.0,0.0,0.0,0.0,0.0,0.0,0.0,0.0,0.0,0.0,0.0,0.0,0.0,0.0,0.0,0.0,0.0,0.0,0.0,0.0,0.0,0.0,0.0,0.0,0.0,0.0,0.0,0.0,0.0,0.0,0.0,0.0,0.0,0.0,0.0,0.0,0.0,0.0,0.0,0.0,0.0,0.0,0.0,0.0,0.0,0.0,0.0,0.0,0.0,0.0,0.0,0.0,0.0,0.0,0.0,0.0,0.0,0.0,0.0,0.0,0.0,0.0,0.0,0.0,0.0,0.0,0.0,0.0,0.0,0.0,0.0,0.0,0.0,0.0,0.0,0.0,0.0,0.0,0.0,0.0,0.0,0.0,0.0,0.0,0.0,0.0,0.0,0.0,0.0,0.0,0.0,0.0,0.0,0.0,0.0,0.0,0.0,0.0,0.0,0.0,0.0,0.0,0.0,0.0,0.0,0.0,0.0,0.0,0.0,0.0,0.0,0.0,0.0,0.0,0.0,0.0,0.0,0.0,0.0,0.0,0.0,0.0,0.0,0.0,0.0,0.0,0.0,0.0,0.0,0.0,0.0,0.0,0.0,0.0,0.0,0.0,0.0,0.0,0.0,0.0,0.0,0.0,0.0,0.0,0.0,0.0,0.0,0.0,0.0,0.0,0.0,0.0,0.0,0.0,0.0,0.0,0.0,0.0,0.0,0.0,0.0,0.0,0.0,0.0,0.0,0.0,0.0,0.0,0.0,0.0,0.0,0.0,0.0,0.0,0.0,0.0,0.0,0.0,0.0,0.0,0.0,0.0,0.0,0.0,0.0,0.0,0.0,0.0,0.0,0.0,0.0,0.0,0.0,0.0,0.0,0.0,0.0,0.0,0.0,0.0,0.0,0.0,0.0,0.0,0.0,0.0,0.0,0.0,0.0,0.0,0.0,0.0,0.0,0.0,0.0,0.0,0.0,0.0,0.0,0.0,0.0,0.0,0.0,0.0,0.0,0.0,0.0,0.0,0.0,0.0,0.0,0.0,0.0,0.0,0.0,0.0,0.0,0.0,0.0,0.0,0.0,0.0,0.0,0.0,0.0,0.0,0.0,0.0,0.0,0.0,0.0,0.0,0.0,0.0,0.0,0.0,0.0,0.0,0.0,0.0,0.0,0.0,0.0,0.0,0.0,0.0,0.0,0.0,0.0,0.0,0.0,0.0,0.0,0.0,0.0,0.0,0.0,0.0,0.0,0.0,0.0,0.0,0.0,0.0,0.0,0.0,0.0,0.0,0.0,0.0,0.0,0.0,0.0,0.0,0.0,0.0,0.0,0.0,0.0,0.0,0.0,0.0,0.0,0.0,0.0,0.0,0.0,0.0,0.0,0.0,0.0,0.0,0.0,0.0,0.0,0.0,0.0,0.0,0.0,0.0,0.0,0.0,0.0,0.0,0.0,0.0,0.0,0.0,0.0,0.0,0.0,0.0,0.0,0.0,0.0,0.0,0.0,0.0,0.0,0.0,0.0,0.0,0.0,0.0,0.0,0.0,0.0,0.0,0.0,0.0,0.0,0.0,0.0,0.0,0.0,0.0,0.0,0.0,0.0,0.0,0.0,0.0,0.0,0.0,0.0,0.0,0.0,0.0,0.0,0.0,0.0,0.0,0.0,0.0,0.0,0.0,0.0,0.0,0.0,0.0,0.0,0.0,0.0,0.0,0.0,0.0,0.0,0.0,0.0,0.0,0.0,0.0,0.0,0.0,0.0,0.0,0.0,0.0,0.0,0.0,0.0,0.0,0.0,0.0,0.0,0.0,0.0,0.0,0.0,0.0,0.0,0.0,0.0,0.0,0.0,0.0,0.0,0.0,0.0,0.0,0.0,0.0,0.0,0.0,0.0,0.0,0.0,0.0,0.0,0.0,0.0,0.0,0.0,0.0,0.0,0.0,0.0,0.0,0.0,0.0,0.0,0.0,0.0,0.0,0.0,0.0,0.0,0.0,0.0,0.0,0.0,0.0,0.0,0.0,0.0,0.0,0.0,0.0,0.0,0.0,0.0,0.0,0.0,0.0,0.0,0.0,0.0,0.0,0.0,0.0,0.0,0.0,0.0,0.0,0.0,0.0,0.0,0.0,0.0,0.0,0.0,0.0,0.0,0.0,-0.0586,0.0,0.0,0.0,0.0,0.0,0.0,0.0,0.0,0.0,0.0,0.0,0.0,0.0,0.0,0.0,0.0,0.0,0.0,0.0,0.0,0.0,0.0,0.0,0.0,0.0,0.0,0.0,0.0,0.0,0.0,0.0,0.0,0.0,0.0,0.0,0.0,0.0,0.0,0.0,0.0,0.0,0.0,0.0,0.0,0.0,0.0,0.0,0.0,0.0,0.0,0.0,0.0,0.0,0.0,0.0,0.0,0.0,0.0,0.0,0.0,0.0,0.0,0.0,0.0,0.0,0.0,0.0,0.0,0.0,0.0,0.0,0.0,0.0,0.0,0.0,0.0,0.0,0.0,0.0,0.0,0.0,0.0,0.0,0.0,0.0,0.0,0.0,0.0,0.0,0.0,0.0,0.0,0.0,0.0,0.0,0.0,0.0,0.0,0.0,0.0,0.0,0.0,0.0,0.0,0.0,0.0,0.0,0.0,0.0,0.0,-0.0112,-0.036,-0.0496,-0.0809,-0.1282,0.0,0.0,0.0,0.0,0.0,0.0,0.0,0.0,0.0,0.0,0.0,0.0,0.0,0.0,0.0,0.0,0.0,0.0,0.0,0.0,0.0,0.0,0.0,0.0,0.0,0.0,0.0,0.0,0.0,0.0,0.0,0.0,0.0,0.0,0.0,0.0,0.0,0.0,0.0,0.0,0.0,0.0,0.0,0.0,0.0,0.0,0.0,0.0,0.0,0.0,0.0,0.0,0.0,0.0,0.0,0.0,0.0,0.0,0.0,0.0,0.0,0.0,0.0,0.0,0.0,0.0,0.0,0.0,0.0,0.0,0.0,0.0,0.0,0.0,0.0,0.0,0.0,0.0,0.0,0.0,0.0,0.0,0.0,0.0,0.0,0.0,0.0,0.0,0.0,0.0,0.0,0.0,0.0,0.0,0.0,0.0,0.0,0.0,0.0,0.0,0.0,0.0,0.0,0.0,0.0,0.0,0.0,0.0,0.0,0.0,0.0,0.0,-0.0614,-0.0944,-0.1547,0.0,0.0,0.0,0.0,0.0,0.0,0.0,0.0,0.0,0.0,0.0,0.0,0.0,0.0,0.0,0.0,0.0,0.0,0.0,0.0,0.0,0.0,0.0,0.0,0.0,0.0,0.0,0.0,0.0,0.0,0.0,0.0,0.0,0.0,0.0,0.0,0.0,0.0,0.0,0.0,0.0,0.0,0.0,0.0,0.0,0.0,0.0,0.0,0.0,0.0,0.0,0.0,0.0,0.0,0.0,0.0,0.0,0.0,0.0,0.0,0.0,0.0,0.0,0.0,0.0,0.0,0.0,0.0,0.0,0.0,0.0,0.0,0.0,0.0,0.0,0.0,0.0,0.0,0.0,0.0,0.0,0.0,0.0,0.0,0.0,0.0,0.0,0.0,0.0,0.0,0.0,0.0,0.0,0.0,0.0,0.0,0.0,0.0,0.0,0.0,0.0,0.0,0.0,0.0,0.0,0.0,0.0,0.0,0.0,0.0,-0.014,-0.0424,-0.0422,0.0,-0.0961,0.0,0.0,0.0,0.0,0.0,0.0,0.0,0.0,0.0,0.0,0.0,0.0,0.0,0.0,0.0,0.0,0.0,0.0,0.0,0.0,0.0,0.0,0.0,0.0,0.0,0.0,0.0,0.0,0.0,0.0,0.0,0.0,0.0,0.0,0.0,0.0,0.0,0.0,0.0,0.0,0.0,0.0,0.0,0.0,0.0,0.0,0.0,0.0,0.0,0.0,0.0,0.0,0.0,0.0,0.0,0.0,0.0,0.0,0.0,0.0,0.0,0.0,0.0,0.0,0.0,0.0,0.0,0.0,0.0,0.0,0.0,0.0,0.0,0.0,0.0,0.0,0.0,0.0,0.0,0.0,0.0,0.0,0.0,0.0,0.0,0.0,0.0,0.0,0.0,0.0,0.0,0.0,0.0,0.0,0.0,0.0,0.0,0.0,0.0,0.0,0.0,0.0,0.0,0.0,0.0,0.0,0.0,0.0,0.0,0.0,0.0,-0.0458,-0.0759,-0.1009,0.0,0.0,0.0,0.0,0.0,0.0,0.0,0.0,0.0,0.0,0.0,0.0,0.0,0.0,0.0,0.0,0.0,0.0,0.0,0.0,0.0,0.0,0.0,0.0,0.0,0.0,0.0,0.0,0.0,0.0,0.0,0.0,0.0,0.0,0.0,0.0,0.0,0.0,0.0,0.0,0.0,0.0,0.0,0.0,0.0,0.0,0.0,0.0,0.0,0.0,0.0,0.0,0.0,0.0,0.0,0.0,0.0,0.0,0.0,0.0,0.0,0.0,0.0,0.0,0.0,0.0,0.0,0.0,0.0,0.0,0.0,0.0,0.0,0.0,0.0,0.0,0.0,0.0,0.0,0.0,0.0,0.0,0.0,0.0,0.0,0.0,0.0,0.0,0.0,0.0,0.0,0.0,0.0,0.0,0.0,0.0,0.0,0.0,0.0,0.0,0.0,0.0,0.0,0.0,0.0,0.0,0.0,0.0,0.0,0.0,-0.0119,0.0,-0.0584,-0.1101,-0.1373,-0.1349,0.0,0.0,0.0,0.0,0.0,0.0,0.0,0.0,0.0,0.0,0.0,0.0,0.0,0.0,0.0,0.0,0.0,0.0,0.0,0.0,0.0,0.0,0.0,0.0,0.0,0.0,0.0,0.0,0.0,0.0,0.0,0.0,0.0,0.0,0.0,0.0,0.0,0.0,0.0,0.0,0.0,0.0,0.0,0.0,0.0,0.0,0.0,0.0,0.0,0.0,0.0,0.0,0.0,0.0,0.0,0.0,0.0,0.0,0.0,0.0,0.0,0.0,0.0,0.0,0.0,0.0,0.0,0.0,0.0,0.0,0.0,0.0,0.0,0.0,0.0,0.0,0.0,0.0,0.0,0.0,0.0,0.0,0.0,0.0,0.0,0.0,0.0,0.0,0.0,0.0,0.0,0.0,0.0,0.0,0.0,0.0,0.0,0.0,0.0,0.0,0.0,0.0,0.0,0.0,0.0,0.0,0.0,0.0,0.0,-0.0408,-0.0522,-0.0783,-0.131,-0.1526,0.0,0.0,0.0,0.0,0.0,0.0,0.0,0.0,0.0,0.0,0.0,0.0,0.0,0.0,0.0,0.0,0.0,0.0,0.0,0.0,0.0,0.0,0.0,0.0,0.0,0.0,0.0,0.0,0.0,0.0,0.0,0.0,0.0,0.0,0.0,0.0,0.0,0.0,0.0,0.0,0.0,0.0,0.0,0.0,0.0,0.0,0.0,0.0,0.0,0.0,0.0,0.0,0.0,0.0,0.0,0.0,0.0,0.0,0.0,0.0,0.0,0.0,0.0,0.0,0.0,0.0,0.0,0.0,0.0,0.0,0.0,0.0,0.0,0.0,0.0,0.0,0.0,0.0,0.0,0.0,0.0,0.0,0.0,0.0,0.0,0.0,0.0,0.0,0.0,0.0,0.0,0.0,0.0,0.0,0.0,0.0,0.0,0.0,0.0,0.0,0.0,0.0,0.0,0.0,0.0,0.0,0.0,0.0,0.0,-0.0588,-0.1067,-0.12,-0.1094,-0.1501,-0.1625,0.0,0.0,0.0,0.0,0.0,0.0,0.0,0.0,0.0,0.0,0.0,0.0,0.0,0.0,0.0,0.0,0.0,0.0,0.0,0.0,0.0,0.0,0.0,0.0,0.0,0.0,0.0,0.0,0.0,0.0,0.0,0.0,0.0,0.0,0.0,0.0,0.0,0.0,0.0,0.0,0.0,0.0,0.0,0.0,0.0,0.0,0.0,0.0,0.0,0.0,0.0,0.0,0.0,0.0,0.0,0.0,0.0,0.0,0.0,0.0,0.0,0.0,0.0,0.0,0.0,0.0,0.0,0.0,0.0,0.0,0.0,0.0,0.0,0.0,0.0,0.0,0.0,0.0,0.0,0.0,0.0,0.0,0.0,0.0,0.0,0.0,0.0,0.0,0.0,0.0,0.0,0.0,0.0,0.0,0.0,0.0,0.0,0.0,0.0,0.0,0.0,0.0,0.0,0.0,0.0,0.0,0.0,0.0,0.0,-0.0798,0.0,-0.1592,0.0,-0.1602,-0.17,0.0,0.0,0.0,0.0,0.0,0.0,0.0,0.0,0.0,0.0,0.0,0.0,0.0,0.0,0.0,0.0,0.0,0.0,0.0,0.0,0.0,0.0,0.0,0.0,0.0,0.0,0.0,0.0,0.0,0.0,0.0,0.0,0.0,0.0,0.0,0.0,0.0,0.0,0.0,0.0,0.0,0.0,0.0,0.0,0.0,0.0,0.0,0.0,0.0,0.0,0.0,0.0,0.0,0.0,0.0,0.0,0.0,0.0,0.0,0.0,0.0,0.0,0.0,0.0,0.0,0.0,0.0,0.0,0.0,0.0,0.0,0.0,0.0,0.0,0.0,0.0,0.0,0.0,0.0,0.0,0.0,0.0,0.0,0.0,0.0,0.0,0.0,0.0,0.0,0.0,0.0,0.0,0.0,0.0,0.0,0.0,0.0,0.0,0.0,0.0,0.0,0.0,0.0,0.0,0.0,0.0,0.0,0.0,-0.0609,-0.0986,-0.1415,-0.1573,-0.1428,-0.1672,-0.1773,0.0,0.0,0.0,0.0,0.0,0.0,0.0,0.0,0.0,0.0,0.0,0.0,0.0,0.0,0.0,0.0,0.0,0.0,0.0,0.0,0.0,0.0,0.0,0.0,0.0,0.0,0.0,0.0,0.0,0.0,0.0,0.0,0.0,0.0,0.0,0.0,0.0,0.0,0.0,0.0,0.0,0.0,0.0,0.0,0.0,0.0,0.0,0.0,0.0,0.0,0.0,0.0,0.0,0.0,0.0,0.0,0.0,0.0,0.0,0.0,0.0,0.0,0.0,0.0,0.0,0.0,0.0,0.0,0.0,0.0,0.0,0.0,0.0,0.0,0.0,0.0,0.0,0.0,0.0,0.0,0.0,0.0,0.0,0.0,0.0,0.0,0.0,0.0,0.0,0.0,0.0,0.0,0.0,0.0,0.0,0.0,0.0,0.0,0.0,0.0,0.0,0.0,0.0,0.0,0.0,0.0,0.0,0.0,0.0,-0.1541,-0.2088,-0.2212,-0.1949,-0.1946,-0.1886,0.0,0.0,0.0,0.0,0.0,0.0,0.0,0.0,0.0,0.0,0.0,0.0,0.0,0.0,0.0,0.0,0.0,0.0,0.0,0.0,0.0,0.0,0.0,0.0,0.0,0.0,0.0,0.0,0.0,0.0,0.0,0.0,0.0,0.0,0.0,0.0,0.0,0.0,0.0,0.0,0.0,0.0,0.0,0.0,0.0,0.0,0.0,0.0,0.0,0.0,0.0,0.0,0.0,0.0,0.0,0.0,0.0,0.0,0.0,0.0,0.0,0.0,0.0,0.0,0.0,0.0,0.0,0.0,0.0,0.0,0.0,0.0,0.0,0.0,0.0,0.0,0.0,0.0,0.0,0.0,0.0,0.0,0.0,0.0,0.0,0.0,0.0,0.0,0.0,0.0,0.0,0.0,0.0,0.0,0.0,0.0,0.0,0.0,0.0,0.0,0.0,0.0,0.0,0.0,0.0,0.0,0.0,0.0,0.0,-0.213,-0.2512,-0.2596,-0.2326,-0.227,-0.2133,-0.1879,0.0,0.0,0.0,0.0,0.0,0.0,0.0,0.0,0.0,0.0,0.0,0.0,0.0,0.0,0.0,0.0,0.0,0.0,0.0,0.0,0.0,0.0,0.0,0.0,0.0,0.0,0.0,0.0,0.0,0.0,0.0,0.0,0.0,0.0,0.0,0.0,0.0,0.0,0.0,0.0,0.0,0.0,0.0,0.0,0.0,0.0,0.0,0.0,0.0,0.0,0.0,0.0,0.0,0.0,0.0,0.0,0.0,0.0,0.0,0.0,0.0,0.0,0.0,0.0,0.0,0.0,0.0,0.0,0.0,0.0,0.0,0.0,0.0,0.0,0.0,0.0,0.0,0.0,0.0,0.0,0.0,0.0,0.0,0.0,0.0,0.0,0.0,0.0,0.0,0.0,0.0,0.0,0.0,0.0,0.0,0.0,0.0,0.0,0.0,0.0,0.0,0.0,0.0,0.0,0.0,0.0,0.0,0.0,-0.2742,-0.276,-0.2689,-0.2561,-0.2623,-0.2483,0.0,0.0,0.0,0.0,0.0,0.0,0.0,0.0,0.0,0.0,0.0,0.0,0.0,0.0,0.0,0.0,0.0,0.0,0.0,0.0,0.0,0.0,0.0,0.0,0.0,0.0,0.0,0.0,0.0,0.0,0.0,0.0,0.0,0.0,0.0,0.0,0.0,0.0,0.0,0.0,0.0,0.0,0.0,0.0,0.0,0.0,0.0,0.0,0.0,0.0,0.0,0.0,0.0,0.0,0.0,0.0,0.0,0.0,0.0,0.0,0.0,0.0,0.0,0.0,0.0,0.0,0.0,0.0,0.0,0.0,0.0,0.0,0.0,0.0,0.0,0.0,0.0,0.0,0.0,0.0,0.0,0.0,0.0,0.0,0.0,0.0,0.0,0.0,0.0,0.0,0.0,0.0,0.0,0.0,0.0,0.0,0.0,0.0,0.0,0.0,0.0,0.0,0.0,0.0,0.0,0.0,0.0,0.0,0.0,-0.307,-0.3394,-0.3456,-0.3099,-0.2852,-0.2661,0.0,0.0,0.0,0.0,0.0,0.0,0.0,0.0,0.0,0.0,0.0,0.0,0.0,0.0,0.0,0.0,0.0,0.0,0.0,0.0,0.0,0.0,0.0,0.0,0.0,0.0,0.0,0.0,0.0,0.0,0.0,0.0,0.0,0.0,0.0,0.0,0.0,0.0,0.0,0.0,0.0,0.0,0.0,0.0,0.0,0.0,0.0,0.0,0.0,0.0,0.0,0.0,0.0,0.0,0.0,0.0,0.0,0.0,0.0,0.0,0.0,0.0,0.0,0.0,0.0,0.0,0.0,0.0,0.0,0.0,0.0,0.0,0.0,0.0,0.0,0.0,0.0,0.0,0.0,0.0,0.0,0.0,0.0,0.0,0.0,0.0,0.0,0.0,0.0,0.0,0.0,0.0,0.0,0.0,0.0,0.0,0.0,0.0,0.0,0.0,0.0,0.0,0.0,0.0,0.0,0.0,0.0,0.0,-0.2943,-0.3354,-0.3809,-0.3849,-0.3544,-0.3164,-0.2908,0.0,0.0,0.0,0.0,0.0,0.0,0.0,0.0,0.0,0.0,0.0,0.0,0.0,0.0,0.0,0.0,0.0,0.0,0.0,0.0,0.0,0.0,0.0,0.0,0.0,0.0,0.0,0.0,0.0,0.0,0.0,0.0,0.0,0.0,0.0,0.0,0.0,0.0,0.0,0.0,0.0,0.0,0.0,0.0,0.0,0.0,0.0,0.0,0.0,0.0,0.0,0.0,0.0,0.0,0.0,0.0,0.0,0.0,0.0,0.0,0.0,0.0,0.0,0.0,0.0,0.0,0.0,0.0,0.0,0.0,0.0,0.0,0.0,0.0,0.0,0.0,0.0,0.0,0.0,0.0,0.0,0.0,0.0,0.0,0.0,0.0,0.0,0.0,0.0,0.0,0.0,0.0,0.0,0.0,0.0,0.0,0.0,0.0,0.0,0.0,0.0,0.0,0.0,0.0,0.0,0.0,0.0,0.0,-0.3434,-0.3646,-0.4024,-0.405,-0.3799,-0.3564,-0.321,0.0,0.0,0.0,0.0,0.0,0.0,0.0,0.0,0.0,0.0,0.0,0.0,0.0,0.0,0.0,0.0,0.0,0.0,0.0,0.0,0.0,0.0,0.0,0.0,0.0,0.0,0.0,0.0,0.0,0.0,0.0,0.0,0.0,0.0,0.0,0.0,0.0,0.0,0.0,0.0,0.0,0.0,0.0,0.0,0.0,0.0,0.0,0.0,0.0,0.0,0.0,0.0,0.0,0.0,0.0,0.0,0.0,0.0,0.0,0.0,0.0,0.0,0.0,0.0,0.0,0.0,0.0,0.0,0.0,0.0,0.0,0.0,0.0,0.0,0.0,0.0,0.0,0.0,0.0,0.0,0.0,0.0,0.0,0.0,0.0,0.0,0.0,0.0,0.0,0.0,0.0,0.0,0.0,0.0,0.0,0.0,0.0,0.0,0.0,0.0,0.0,0.0,0.0,0.0,0.0,0.0,0.0,0.0,-0.3423,-0.3744,-0.4063,-0.409,-0.3799,-0.3667,-0.3371,0.0,0.0,0.0,0.0,0.0,0.0,0.0,0.0,0.0,0.0,0.0,0.0,0.0,0.0,0.0,0.0,0.0,0.0,0.0,0.0,0.0,0.0,0.0,0.0,0.0,0.0,0.0,0.0,0.0,0.0,0.0,0.0,0.0,0.0,0.0,0.0,0.0,0.0,0.0,0.0,0.0,0.0,0.0,0.0,0.0,0.0,0.0,0.0,-0.3355,0.0,0.0,0.0,0.0,0.0,0.0,0.0,0.0,0.0,0.0,0.0,0.0,0.0,0.0,0.0,0.0,0.0,0.0,0.0,0.0,0.0,0.0,0.0,0.0,0.0,0.0,0.0,0.0,0.0,0.0,0.0,0.0,0.0,0.0,0.0,0.0,0.0,0.0,0.0,0.0,0.0,0.0,0.0,0.0,0.0,0.0,0.0,0.0,0.0,0.0,0.0,0.0,0.0,0.0,0.0,0.0,0.0,0.0,0.0,-0.3576,-0.3897,-0.4195,-0.4206,-0.3914,-0.3826,-0.3578,0.0,0.0,0.0,0.0,0.0,0.0,0.0,0.0,0.0,0.0,0.0,0.0,0.0,0.0,0.0,0.0,0.0,0.0,0.0,0.0,0.0,0.0,0.0,0.0,0.0,0.0,0.0,0.0,0.0,0.0,0.0,0.0,0.0,0.0,0.0,0.0,0.0,0.0,0.0,0.0,0.0,0.0,0.0,0.0,0.0,0.0,0.0,0.0,0.0,0.0,0.0,0.0,0.0,0.0,0.0,0.0,0.0,0.0,0.0,0.0,0.0,0.0,0.0,0.0,0.0,0.0,0.0,0.0,0.0,0.0,0.0,0.0,0.0,0.0,0.0,0.0,0.0,0.0,0.0,0.0,0.0,0.0,0.0,0.0,0.0,0.0,0.0,0.0,0.0,0.0,0.0,0.0,0.0,0.0,0.0,0.0,0.0,0.0,0.0,0.0,0.0,0.0,0.0,0.0,0.0,0.0,0.0,-0.3283,-0.3764,-0.3973,-0.4311,-0.4324,-0.4029,-0.3999,-0.3714,-0.3141,0.0,0.0,0.0,0.0,0.0,0.0,0.0,0.0,0.0,0.0,0.0,0.0,0.0,0.0,0.0,0.0,0.0,0.0,0.0,0.0,0.0,0.0,0.0,0.0,0.0,0.0,0.0,0.0,0.0,0.0,0.0,0.0,0.0,0.0,0.0,0.0,0.0,0.0,-0.2679,-0.2775,0.0,0.0,0.0,0.0,0.0,0.0,0.0,0.0,-0.3015,0.0,0.0,0.0,0.0,0.0,0.0,0.0,0.0,0.0,0.0,0.0,0.0,0.0,0.0,0.0,0.0,0.0,0.0,0.0,0.0,0.0,0.0,0.0,0.0,0.0,0.0,0.0,0.0,0.0,0.0,0.0,0.0,0.0,0.0,0.0,0.0,0.0,0.0,0.0,0.0,0.0,0.0,0.0,0.0,0.0,0.0,0.0,0.0,0.0,0.0,0.0,0.0,0.0,0.0,0.0,0.0,-0.294,-0.3463,-0.3863,-0.4019,-0.4307,-0.4321,-0.4029,-0.3894,-0.3605,-0.3141,0.0,0.0,0.0,0.0,0.0,0.0,0.0,0.0,0.0,0.0,0.0,0.0,0.0,0.0,0.0,0.0,0.0,0.0,0.0,0.0,0.0,0.0,0.0,0.0,0.0,0.0,0.0,0.0,0.0,0.0,0.0,0.0,0.0,0.0,0.0,0.0,0.0,0.0,0.0,-0.3146,-0.3486,0.0,0.0,0.0,0.0,0.0,0.0,0.0,0.0,-0.2679,0.0,0.0,0.0,0.0,0.0,0.0,0.0,0.0,0.0,0.0,0.0,0.0,0.0,0.0,0.0,0.0,0.0,0.0,0.0,0.0,0.0,0.0,0.0,0.0,0.0,0.0,0.0,0.0,0.0,0.0,0.0,0.0,0.0,0.0,0.0,0.0,0.0,0.0,0.0,0.0,0.0,0.0,0.0,0.0,0.0,0.0,0.0,0.0,0.0,0.0,0.0,0.0,0.0,0.0,0.0,-0.3053,-0.3552,-0.3896,-0.4026,-0.4311,-0.4321,-0.4029,-0.3873,-0.3544,0.0,0.0,0.0,0.0,0.0,0.0,0.0,0.0,0.0,0.0,0.0,0.0,0.0,0.0,0.0,0.0,0.0,0.0,0.0,0.0,0.0,0.0,0.0,0.0,0.0,0.0,0.0,0.0,0.0,0.0,0.0,0.0,0.0,0.0,0.0,0.0,0.0,0.0,0.0,0.0,-0.3093,-0.3403,-0.3576,0.0,0.0,0.0,0.0,0.0,0.0,-0.2815,-0.2679,0.0,0.0,0.0,0.0,0.0,0.0,0.0,0.0,0.0,0.0,0.0,0.0,0.0,0.0,0.0,0.0,0.0,0.0,0.0,0.0,0.0,0.0,0.0,0.0,0.0,0.0,0.0,0.0,0.0,0.0,0.0,0.0,0.0,0.0,0.0,0.0,0.0,0.0,0.0,0.0,0.0,0.0,0.0,0.0,0.0,0.0,0.0,0.0,0.0,0.0,0.0,0.0,0.0,0.0,0.0,-0.3092,-0.3619,-0.3969,-0.4029,-0.4307,-0.4321,-0.3976,-0.3843,-0.3483,0.0,0.0,0.0,0.0,0.0,0.0,0.0,0.0,0.0,0.0,0.0,0.0,0.0,0.0,0.0,0.0,0.0,0.0,0.0,0.0,0.0,0.0,0.0,0.0,0.0,0.0,0.0,0.0,0.0,0.0,0.0,0.0,0.0,0.0,0.0,0.0,0.0,0.0,0.0,0.0,0.0,-0.328,-0.3708,-0.3708,0.0,0.0,0.0,0.0,-0.3239,-0.3056,0.0,0.0,0.0,0.0,0.0,0.0,0.0,0.0,0.0,0.0,0.0,0.0,0.0,0.0,0.0,0.0,0.0,0.0,0.0,0.0,0.0,0.0,0.0,0.0,0.0,0.0,0.0,0.0,0.0,0.0,0.0,0.0,0.0,0.0,0.0,0.0,0.0,0.0,0.0,0.0,0.0,0.0,0.0,0.0,0.0,0.0,0.0,0.0,0.0,0.0,0.0,0.0,0.0,0.0,0.0,0.0,-0.313,-0.3714,-0.4019,-0.4033,-0.4307,-0.4321,-0.4026,-0.3748,-0.3388,0.0,0.0,0.0,0.0,0.0,0.0,0.0,0.0,0.0,0.0,0.0,0.0,0.0,0.0,0.0,0.0,0.0,0.0,0.0,0.0,0.0,0.0,0.0,0.0,0.0,0.0,0.0,0.0,0.0,0.0,0.0,0.0,0.0,0.0,0.0,0.0,0.0,0.0,0.0,0.0,0.0,-0.3439,-0.4286,-0.3937,-0.3656,0.0,0.0,-0.3266,-0.3832,-0.3666,0.0,0.0,0.0,0.0,0.0,0.0,0.0,0.0,0.0,0.0,0.0,0.0,0.0,0.0,0.0,0.0,0.0,0.0,0.0,0.0,0.0,0.0,0.0,0.0,0.0,0.0,0.0,0.0,0.0,0.0,0.0,0.0,0.0,0.0,0.0,0.0,0.0,0.0,0.0,0.0,0.0,0.0,0.0,0.0,0.0,0.0,0.0,0.0,0.0,0.0,0.0,0.0,0.0,0.0,0.0,-0.286,-0.3127,-0.3668,-0.4019,-0.4026,-0.4311,-0.4321,-0.3976,-0.3812,-0.3453,0.0,0.0,0.0,0.0,0.0,0.0,0.0,0.0,0.0,0.0,0.0,0.0,0.0,0.0,0.0,0.0,0.0,0.0,0.0,0.0,0.0,0.0,0.0,0.0,0.0,0.0,0.0,0.0,0.0,0.0,0.0,0.0,0.0,0.0,0.0,0.0,0.0,0.0,0.0,0.0,0.0,0.0,-0.4412,-0.4291,0.0,0.0,0.0,-0.3674,-0.3982,0.0,0.0,0.0,0.0,0.0,0.0,0.0,0.0,0.0,0.0,0.0,0.0,0.0,0.0,0.0,0.0,0.0,0.0,0.0,0.0,0.0,0.0,0.0,0.0,0.0,0.0,0.0,0.0,0.0,0.0,0.0,0.0,0.0,0.0,0.0,0.0,0.0,0.0,0.0,0.0,0.0,0.0,0.0,0.0,0.0,0.0,0.0,0.0,0.0,0.0,0.0,0.0,0.0,0.0,0.0,0.0,0.0,-0.3085,-0.3668,-0.4019,-0.4026,-0.4311,-0.4321,-0.4029,-0.3873,0.0,0.0,0.0,0.0,0.0,0.0,0.0,0.0,0.0,0.0,0.0,0.0,0.0,0.0,0.0,0.0,0.0,0.0,0.0,0.0,0.0,0.0,0.0,0.0,0.0,0.0,0.0,-0.1429,0.0,0.0,0.0,0.0,0.0,0.0,0.0,0.0,0.0,0.0,0.0,0.0,0.0,0.0,-0.3813,-0.4431,-0.451,-0.4417,0.0,0.0,-0.3988,-0.416,-0.3995,-0.3794,0.0,0.0,0.0,0.0,0.0,0.0,0.0,0.0,0.0,0.0,0.0,0.0,0.0,0.0,0.0,0.0,0.0,0.0,0.0,0.0,0.0,0.0,0.0,0.0,0.0,0.0,0.0,0.0,0.0,0.0,0.0,0.0,0.0,0.0,0.0,0.0,0.0,0.0,0.0,0.0,0.0,0.0,0.0,0.0,0.0,0.0,0.0,0.0,0.0,0.0,0.0,0.0,0.0,0.0,0.0,-0.3088,-0.3714,-0.4019,-0.4026,-0.4311,-0.4321,-0.4029,-0.3873,-0.3517,0.0,0.0,0.0,0.0,0.0,0.0,0.0,0.0,0.0,0.0,0.0,0.0,0.0,0.0,0.0,0.0,0.0,0.0,0.0,0.0,0.0,0.0,0.0,0.0,0.0,0.0,0.0,0.0,0.0,0.0,0.0,0.0,0.0,0.0,0.0,0.0,0.0,0.0,0.0,0.0,0.0,-0.3817,-0.4431,-0.4473,-0.4501,0.0,0.0,-0.3897,-0.4728,-0.4596,-0.4268,-0.367,0.0,0.0,0.0,0.0,0.0,0.0,0.0,0.0,0.0,0.0,0.0,0.0,0.0,0.0,0.0,0.0,0.0,0.0,0.0,0.0,0.0,0.0,0.0,0.0,0.0,0.0,0.0,0.0,0.0,0.0,0.0,0.0,0.0,0.0,0.0,0.0,0.0,0.0,0.0,0.0,0.0,0.0,0.0,0.0,0.0,0.0,0.0,0.0,0.0,0.0,0.0,0.0,0.0,-0.2829,-0.3082,-0.3714,-0.4019,-0.4029,-0.4307,-0.4317,-0.4026,-0.3961,-0.3649,0.0,0.0,0.0,0.0,0.0,0.0,0.0,0.0,0.0,0.0,0.0,0.0,0.0,0.0,0.0,0.0,0.0,0.0,0.0,0.0,0.0,0.0,0.0,0.0,0.0,0.0,0.0,0.0,-0.1935,-0.1804,-0.1734,0.0,0.0,0.0,0.0,0.0,0.0,0.0,0.0,0.0,0.0,-0.4022,-0.445,-0.4506,0.0,0.0,-0.4392,-0.4361,-0.4836,-0.4663,-0.4316,-0.3722,-0.3578,0.0,0.0,0.0,0.0,0.0,0.0,0.0,0.0,0.0,0.0,0.0,0.0,0.0,0.0,0.0,0.0,0.0,0.0,0.0,0.0,0.0,0.0,0.0,0.0,0.0,0.0,0.0,0.0,0.0,0.0,0.0,0.0,0.0,0.0,0.0,0.0,0.0,0.0,0.0,0.0,0.0,0.0,0.0,0.0,0.0,0.0,0.0,0.0,0.0,0.0,0.0,0.0,-0.2825,-0.312,-0.3668,-0.4019,-0.4019,-0.4311,-0.4321,-0.4036,-0.4019,-0.3737,0.0,0.0,0.0,0.0,0.0,0.0,0.0,0.0,0.0,0.0,0.0,0.0,0.0,0.0,0.0,0.0,0.0,0.0,0.0,0.0,0.0,0.0,0.0,0.0,0.0,0.0,0.0,0.0,-0.2129,-0.1987,-0.1903,0.0,0.0,0.0,0.0,0.0,0.0,0.0,0.0,0.0,0.0,-0.4197,-0.4676,-0.4755,-0.4766,-0.4908,-0.4813,-0.4775,-0.4901,-0.4663,-0.4312,-0.3673,0.0,0.0,0.0,0.0,0.0,0.0,0.0,0.0,0.0,0.0,0.0,0.0,0.0,0.0,0.0,0.0,0.0,0.0,0.0,0.0,0.0,0.0,0.0,0.0,0.0,0.0,0.0,0.0,0.0,0.0,-0.1269,0.0,0.0,0.0,0.0,0.0,0.0,0.0,0.0,0.0,0.0,0.0,0.0,0.0,0.0,0.0,0.0,0.0,0.0,0.0,0.0,0.0,0.0,-0.2825,-0.3124,-0.3671,-0.4019,-0.4026,-0.4307,-0.4317,-0.4033,-0.4019,-0.3691,-0.3137,0.0,0.0,0.0,0.0,0.0,0.0,0.0,0.0,0.0,0.0,0.0,0.0,0.0,0.0,0.0,0.0,0.0,0.0,0.0,0.0,0.0,0.0,0.0,0.0,0.0,0.0,-0.2681,-0.227,-0.2072,0.0,0.0,0.0,0.0,0.0,0.0,0.0,0.0,0.0,0.0,-0.3838,-0.4332,-0.522,-0.5366,-0.5275,-0.4942,-0.5152,-0.5237,-0.4969,-0.4667,-0.4312,0.0,0.0,0.0,0.0,0.0,0.0,0.0,0.0,0.0,0.0,0.0,0.0,0.0,0.0,0.0,0.0,0.0,0.0,0.0,0.0,0.0,0.0,0.0,0.0,0.0,0.0,0.0,-0.1902,-0.2037,0.0,0.0,0.0,0.0,0.0,0.0,0.0,0.0,0.0,0.0,0.0,-0.0,-0.0,0.0,0.0,0.0,0.0,0.0,0.0,0.0,0.0,0.0,0.0,0.0,0.0,-0.2825,-0.313,-0.3714,-0.4019,-0.3976,-0.4212,-0.4226,-0.4026,-0.3921,-0.3632,-0.3137,0.0,0.0,0.0,0.0,0.0,0.0,0.0,0.0,0.0,0.0,0.0,0.0,0.0,0.0,0.0,0.0,0.0,0.0,0.0,0.0,0.0,0.0,0.0,0.0,0.0,-0.2666,0.0,0.0,0.0,0.0,0.0,0.0,0.0,0.0,0.0,0.0,0.0,-0.4062,-0.416,-0.4089,-0.4329,-0.5264,-0.5414,-0.5332,0.0,0.0,0.0,0.0,0.0,0.0,0.0,0.0,0.0,0.0,0.0,0.0,0.0,0.0,-0.5269,-0.4872,-0.4462,-0.4168,-0.422,0.0,0.0,0.0,0.0,0.0,0.0,0.0,0.0,0.0,0.0,0.0,0.0,0.0,0.0,-0.2316,0.0,-0.2377,0.0,0.0,0.0,0.0,0.0,0.0,0.0,0.0,-0.0454,-0.017,-0.0,-0.0,-0.0,0.0,-0.0,-0.016,0.0,0.0,0.0,0.0,0.0,0.0,0.0,0.0,-0.2934,-0.3283,-0.3768,-0.4046,-0.405,-0.4143,-0.4123,-0.4022,-0.3771,-0.35,-0.3208,-0.2964,-0.2798,0.0,0.0,0.0,0.0,0.0,0.0,0.0,0.0,0.0,0.0,0.0,0.0,0.0,0.0,0.0,0.0,0.0,0.0,0.0,0.0,0.0,0.0,0.0,-0.2642,0.0,0.0,0.0,0.0,0.0,0.0,0.0,0.0,0.0,-0.3531,-0.4022,-0.4363,-0.4496,-0.4381,-0.4553,-0.529,0.0,0.0,0.0,0.0,0.0,0.0,0.0,-0.4728,-0.5329,-0.5199,-0.4972,-0.467,-0.4216,-0.4144,-0.4684,0.0,0.0,-0.5404,-0.5081,-0.4745,-0.4697,-0.4416,-0.4216,-0.4121,-0.3988,-0.3941,0.0,0.0,0.0,0.0,0.0,0.0,0.0,0.0,-0.2576,-0.3082,0.0,-0.3043,0.0,0.0,0.0,0.0,0.0,-0.248,0.0,0.0,-0.1119,-0.0486,-0.005,-0.0,-0.0,-0.0,-0.0,-0.0515,-0.1387,-0.1206,0.0,0.0,0.0,0.0,0.0,0.0,-0.3137,-0.3565,-0.3877,-0.4046,-0.4187,-0.419,-0.411,-0.3999,-0.3544,-0.3364,-0.3396,-0.3205,-0.3063,-0.2927,-0.2764,0.0,0.0,0.0,0.0,0.0,0.0,0.0,0.0,0.0,0.0,0.0,0.0,0.0,0.0,0.0,0.0,0.0,0.0,0.0,0.0,-0.2726,0.0,0.0,0.0,0.0,0.0,0.0,0.0,0.0,0.0,0.0,-0.3629,-0.4368,-0.4799,-0.4562,0.0,0.0,0.0,0.0,-0.5428,-0.5428,-0.5428,-0.5425,-0.5428,-0.4877,-0.4759,-0.5349,0.0,0.0,-0.4982,-0.4687,-0.4731,-0.5315,-0.5355,-0.5428,-0.5415,-0.5391,-0.5243,-0.4989,-0.4918,-0.487,-0.4721,-0.4548,-0.4525,-0.4635,0.0,0.0,0.0,0.0,-0.3014,-0.285,-0.2862,-0.3198,-0.3689,-0.4219,-0.4081,0.0,0.0,0.0,0.0,0.0,0.0,-0.2662,-0.2292,-0.1849,-0.1146,-0.0302,-0.0555,-0.0858,-0.1261,-0.0849,-0.1038,-0.1805,-0.1948,-0.1907,-0.1707,0.0,0.0,0.0,0.0,-0.3299,-0.3633,-0.3978,-0.4153,-0.4197,-0.409,-0.3961,-0.3714,-0.3581,-0.3514,-0.3514,-0.3364,-0.3226,-0.3179,-0.2876,0.0,0.0,0.0,0.0,0.0,0.0,0.0,0.0,0.0,0.0,0.0,0.0,0.0,0.0,0.0,0.0,0.0,0.0,0.0,-0.2917,-0.297,-0.2996,0.0,0.0,0.0,0.0,0.0,0.0,0.0,0.0,0.0,-0.4268,-0.4619,-0.4937,0.0,0.0,-0.5028,-0.5359,-0.5377,-0.5428,-0.5428,-0.5428,0.0,0.0,-0.5281,-0.5233,-0.5613,-0.5501,-0.5397,-0.525,-0.5165,-0.5222,-0.5404,-0.5428,-0.5428,-0.5428,-0.5428,-0.5332,-0.5254,-0.5237,-0.5148,-0.4918,-0.4867,-0.4867,-0.651,-0.5659,-0.5079,-0.4604,-0.4195,-0.3687,-0.3453,-0.3472,-0.3819,-0.4142,-0.4487,-0.4487,-0.4148,-0.3567,-0.3554,0.0,0.0,0.0,-0.3254,-0.3035,-0.2849,-0.2177,-0.1154,-0.1576,-0.2156,-0.2844,-0.2125,-0.2058,-0.2577,-0.2928,-0.2925,-0.2555,0.0,0.0,-0.2935,-0.3265,-0.3575,-0.3843,-0.4056,-0.422,-0.4331,-0.4128,-0.3904,-0.3673,-0.3612,-0.3578,-0.3578,-0.349,-0.337,-0.3309,-0.3151,-0.2963,0.0,0.0,0.0,0.0,0.0,0.0,0.0,0.0,0.0,0.0,0.0,-0.134,0.0,0.0,0.0,0.0,-0.2081,-0.2481,-0.3246,-0.3365,0.0,0.0,0.0,0.0,0.0,0.0,0.0,-0.3737,-0.4172,-0.4611,-0.4848,-0.4979,-0.5159,-0.5404,-0.5215,-0.5189,-0.5348,0.0,-0.5542,-0.5597,-0.5437,-0.5428,-0.5428,-0.5428,-0.5501,-0.5918,-0.5735,-0.5542,-0.5535,-0.5447,-0.5406,-0.5433,-0.5467,-0.5501,-0.5382,-0.5428,-0.5428,-0.5428,-0.5428,-0.5298,-0.5125,-0.5142,-0.5226,-0.8415,-0.8076,-0.6705,-0.5784,-0.516,-0.4392,-0.405,-0.4077,-0.4369,-0.4485,-0.4481,-0.4485,-0.4289,-0.4029,-0.3877,0.0,-0.3816,-0.3968,-0.3904,-0.3819,-0.389,-0.3366,-0.2397,-0.2847,-0.3585,-0.449,-0.3525,-0.3252,-0.3517,-0.3933,-0.3963,-0.353,-0.317,-0.3175,-0.3468,-0.3584,-0.3836,-0.4184,-0.4207,-0.4324,-0.4491,-0.4168,-0.3948,-0.3795,-0.3653,-0.3578,-0.3578,-0.3578,-0.3514,-0.334,-0.3503,-0.3358,-0.2757,0.0,0.0,0.0,0.0,0.0,0.0,0.0,0.0,0.0,0.0,0.0,0.0,0.0,0.0,0.0,-0.2563,0.0,-0.3538,-0.3846,0.0,0.0,0.0,-0.369,-0.3829,-0.41,-0.4161,-0.4097,0.0,0.0,-0.5356,-0.5428,-0.5369,-0.5393,-0.5376,-0.5428,-0.5428,-0.5627,-0.579,-0.581,-0.5589,-0.5403,-0.543,-0.5521,-0.5657,-0.6132,-0.6023,-0.5847,-0.5827,-0.5713,-0.5503,-0.5496,-0.5689,-0.5745,-0.5521,-0.5483,-0.5473,-0.5521,-0.5494,-0.547,-0.5382,-0.5393,-0.5459,-0.935,-0.9266,-0.872,-0.7683,-0.6354,-0.5207,-0.4595,-0.4386,-0.4484,-0.4508,-0.4511,-0.4467,-0.4385,-0.4137,-0.4036,-0.3965,-0.3972,-0.4073,-0.4053,-0.3934,-0.3872,-0.3715,-0.3572,-0.3241,-0.3585,-0.4383,-0.3553,-0.3257,-0.3583,-0.3778,-0.3877,-0.3877,-0.3878,-0.3893,-0.3872,-0.3979,-0.409,-0.4194,-0.4358,-0.4375,-0.4297,-0.4117,-0.3948,-0.3792,-0.3653,-0.3578,-0.3578,-0.3578,-0.3565,-0.3527,-0.3561,-0.3409,-0.3035,-0.2801,0.0,0.0,0.0,0.0,0.0,0.0,0.0,0.0,0.0,-0.1892,-0.2342,0.0,-0.2527,0.0,-0.3066,-0.3465,-0.3584,-0.4055,0.0,0.0,-0.4072,-0.4144,-0.434,-0.4409,-0.447,-0.4684,-0.4965,-0.5264,-0.5415,-0.5428,-0.5376,-0.537,-0.543,-0.5428,-0.5432,-0.5562,-0.5799,-0.6112,-0.5888,-0.5701,-0.5715,-0.5901,-0.6084,-0.6234,-0.627,-0.6156,-0.6152,-0.6177,-0.6071,-0.6063,-0.6152,-0.6108,-0.6047,-0.5913,-0.5793,-0.5969,-0.5864,-0.5674,-0.5606,-0.564,-0.5633,-1.0074,-1.0074,-0.9825,-0.912,-0.8127,-0.6939,-0.5843,-0.4889,-0.5117,-0.5144,-0.4916,-0.4642,-0.4558,-0.4482,-0.4389,-0.4358,-0.4419,-0.444,-0.4388,-0.4333,-0.4177,-0.4128,-0.4187,-0.3852,-0.4024,-0.448,-0.3965,-0.3796,-0.3959,-0.4073,-0.4146,-0.4234,-0.4287,-0.4304,-0.4219,-0.4187,-0.4227,-0.4345,-0.4419,-0.4477,-0.4341,-0.4131,-0.3982,-0.3894,-0.369,-0.3578,-0.3578,-0.3578,-0.3578,-0.3578,-0.3578,-0.3503,-0.3334,-0.3171,-0.2886,0.0,0.0,0.0,0.0,0.0,0.0,0.0,0.0,0.0,0.0,0.0,-0.2934,-0.3073,-0.3385,-0.3711,-0.398,-0.4446,-0.4618,-0.4535,-0.4497,-0.4579,-0.466,-0.4721,-0.4799,-0.4908,-0.5179,-0.5428,-0.5428,-0.5428,-0.54,-0.5396,-0.5553,-0.5631,-0.5494,-0.5738,-0.6054,-0.6273,-0.6115,-0.6006,-0.6006,-0.6146,-0.6261,-0.6261,-0.6261,-0.6261,-0.6261,-0.6261,-0.6261,-0.6261,-0.6261,-0.629,-0.6271,-0.6159,-0.6071,-0.6173,-0.6125,-0.5949,-0.5762,-0.5766,-0.5766,-1.0618,-1.0555,-1.0434,-1.0168,-0.9869,-0.9035,-0.7568,-0.5807,-0.6488,-0.6314,-0.5524,-0.5056,-0.4911,-0.4972,-0.4838,-0.4852,-0.4908,-0.4782,-0.4721,-0.4711,-0.4582,-0.4511,-0.449,-0.449,-0.4539,-0.4463,-0.4463,-0.4463,-0.4463,-0.4463,-0.4463,-0.4463,-0.4463,-0.4463,-0.4512,-0.4338,-0.4338,-0.446,-0.4463,-0.4463,-0.4512,-0.4182,-0.4033,-0.4005,-0.3734,-0.3578,-0.3578,-0.3578,-0.3578,-0.3578,-0.3578,-0.3578,-0.3578,-0.3578,-0.3368,0.0,-0.224,0.0,0.0,0.0,0.0,0.0,0.0,0.0,0.0,-0.3215,-0.3364,-0.3712,-0.369,-0.3926,-0.4474,-0.4769,-0.497,-0.4951,-0.4938,-0.4945,-0.4948,-0.5074,-0.5111,-0.4989,-0.5203,-0.5428,-0.5428,-0.5428,-0.5406,-0.5512,-0.5755,-0.583,-0.5662,-0.5943,-0.6225,-0.6318,-0.6261,-0.6224,-0.623,-0.6247,-0.6261,-0.6261,-0.6261,-0.6261,-0.6261,-0.6261,-0.6261,-0.6261,-0.6261,-0.6254,-0.6261,-0.6251,-0.6251,-0.6257,-0.6244,-0.6156,-0.5945,-0.5881,-0.5949,-1.0618,-1.0618,-1.0561,-1.0491,-1.0421,-1.0253,-0.9494,-0.8354,-0.9358,-0.8456,-0.6203,-0.5891,-0.5663,-0.5517,-0.537,-0.5193,-0.5093,-0.4948,-0.4874,-0.4877,-0.4847,-0.4706,-0.4531,-0.4646,-0.4582,-0.4522,-0.4463,-0.4463,-0.4463,-0.4463,-0.4463,-0.4463,-0.4463,-0.4463,-0.446,0.0,0.0,0.0,-0.4463,-0.4463,-0.4512,-0.4302,-0.4097,-0.4016,-0.3734,0.0,-0.3578,-0.3578,-0.3578,-0.3578,-0.3578,0.0,0.0,0.0,0.0,0.0,0.0,0.0,0.0,0.0,0.0,0.0,-0.3507,-0.3527,-0.3503,-0.371,-0.3975,-0.4263,-0.4347,-0.4405,-0.4502,-0.5021,-0.5315,-0.5322,-0.5154,-0.5028,-0.5094,-0.5226,-0.5304,-0.5284,-0.5394,-0.5428,-0.5428,-0.5428,-0.5569,-0.6054,-0.6047,-0.601,-0.6071,-0.6122,-0.6091,-0.6227,-0.6261,-0.6261,-0.6261,-0.6261,-0.6261,-0.6261,-0.6261,-0.6261,-0.6261,-0.6261,-0.6261,-0.6261,-0.6261,-0.6261,-0.6261,-0.6261,-0.6261,-0.6261,-0.6261,-0.6244,-0.6183,-0.6169,-0.6193,-1.0618,0.0,-1.0618,-1.0618,0.0,-1.0618,-1.0286,-0.9837,-1.0362,-0.9519,-0.768,-0.7078,-0.6727,-0.6509,-0.6109,-0.581,-0.5631,-0.5182,-0.5026,-0.4957,-0.4952,-0.488,-0.4799,-0.4728,-0.465,-0.4632,-0.4556,-0.4463,-0.4463,-0.4463,-0.4463,-0.4463,-0.4463,-0.4463,-0.4463,-0.4463,-0.4463,-0.4463,-0.4463,-0.4463,-0.446,-0.4415,-0.4268,-0.4026,0.0,0.0,0.0,0.0,0.0,0.0,0.0,0.0,0.0,0.0,0.0,-0.3364,-0.3218,-0.3159,-0.3266,-0.3716,-0.3961,-0.3828,-0.3934,-0.3955,-0.3809,-0.3934,-0.4141,-0.4484,-0.4463,-0.4646,-0.4895,-0.5209,-0.537,-0.5424,-0.5335,-0.5243,-0.5254,-0.5311,-0.5425,-0.5428,-0.5428,-0.5428,-0.5428,-0.5428,-0.5679,-0.6149,-0.6252,-0.6218,-0.623,-0.6193,-0.6183,-0.6251,-0.6261,-0.6261,-0.6261,-0.6261,-0.6261,-0.6261,-0.6261,-0.6261,-0.6261,-0.6261,-0.6261,-0.6261,-0.6261,-0.6261,-0.6261,-0.6261,-0.6261,-0.6261,-0.6261,-0.6261,-0.6261,-0.6261,-0.6261,-1.0618,-1.0618,-1.0618,-1.0618,-1.0618,-1.0618,-1.0618,-1.0568,0.0,0.0,0.0,-0.8343,-0.779,-0.7502,-0.6821,-0.639,-0.6133,-0.5485,-0.5172,-0.5165,-0.505,-0.5047,-0.5078,-0.4862,-0.4776,-0.4745,-0.4594,-0.4463,-0.4463,-0.4463,-0.4463,-0.4463,-0.4463,-0.4463,-0.4463,-0.4463,-0.4463,-0.4463,-0.4463,-0.4463,-0.4463,-0.4463,-0.4331,-0.4066,-0.391,-0.3778,-0.3663,-0.3656,-0.3646,-0.3619,-0.3629,-0.366,-0.3581,-0.3578,-0.3605,-0.3663,-0.364,-0.3617,-0.368,-0.3936,-0.4087,-0.4087,-0.4212,-0.418,-0.4104,-0.4097,-0.4246,-0.4589,-0.468,-0.4889,-0.5311,-0.5428,-0.5428,-0.5428,-0.5428,-0.5425,-0.5425,-0.5428,-0.5428,-0.5428,-0.5428,-0.5428,-0.5435,-0.5545,-0.5758,-0.6132,-0.6247,-0.6261,-0.6261,-0.6251,-0.6247,-0.6257,-0.6261,-0.6261,-0.6261,-0.6261,-0.6261,-0.6261,-0.6261,-0.6261,-0.6261,-0.6261,-0.6261,-0.6261,-0.6261,-0.6261,-0.6261,-0.6261,-0.6261,-0.6261,-0.6261,-0.6261,-0.6261,-0.6261,-0.6261,-1.0618,-1.0618,-1.0618,-1.0618,-1.0618,-1.0618,-1.0618,-1.0568,-1.0601,-1.05,-1.0315,-0.9256,-0.8527,-0.8037,-0.7414,-0.6837,-0.6284,-0.5665,-0.5332,0.0,-0.5308,-0.523,-0.5098,-0.4955,-0.4816,-0.4742,-0.4535,-0.4463,-0.4463,-0.4463,-0.4463,-0.4463,-0.4463,-0.4463,-0.4463,-0.4463,-0.4463,-0.4463,-0.4463,-0.4463,-0.4463,-0.4463,-0.4385,-0.4167,-0.4016,-0.3982,-0.3958,-0.3955,-0.3897,-0.3771,-0.3812,-0.3761,-0.3592,-0.3588,-0.3693,-0.3931,-0.3741,-0.3695,-0.3916,-0.4256,-0.4407,-0.444,-0.4419,-0.4423,-0.4402,-0.4457,-0.4633,-0.5222,-0.527,-0.5329,-0.5425,-0.5428,-0.5428,-0.5428,-0.5428,-0.5428,-0.5428,-0.5428,-0.5428,-0.5428,-0.5428,-0.5369,-0.5514,-0.5878,-0.6184,-0.623,-0.6261,-0.6261,-0.6261,-0.6261,-0.6261,-0.6261,-0.6261,-0.6261,-0.6261,-0.6261,-0.6261,-0.6261,-0.6261,-0.6261,-0.6261,-0.6261,-0.6261,-0.6261,-0.6261,-0.6261,-0.6261,-0.6261,-0.6261,-0.6261,-0.6261,-0.6261,-0.6261,-0.6261,-0.6261,-1.0618,-1.0618,-1.0618,-1.0618,-1.0618,-1.0618,-1.0618,-1.0561,-1.0581,-1.0595,-1.0538,-1.006,-0.953,-0.8877,-0.8027,-0.7316,-0.6671,-0.5756,-0.5428,-0.5428,-0.5428,-0.5325,-0.524,-0.5026,-0.4884,-0.4799,-0.4572,-0.4463,-0.4463,-0.4463,-0.4463,-0.4463,-0.4463,-0.4463,-0.4463,-0.4463,-0.4463,-0.4463,-0.4463,-0.4463,-0.4463,-0.4463,-0.4392,-0.42,-0.4127,-0.405,-0.4022,-0.4019,-0.3985,-0.3917,-0.389,-0.386,-0.3826,-0.3972,-0.4121,-0.425,-0.4151,-0.4066,-0.4097,-0.434,-0.4504,-0.4512,-0.4463,-0.4463,-0.4463,-0.4616,-0.4894,-0.5377,-0.5428,-0.5428,-0.5428,-0.5428,-0.5428,-0.5428,-0.5428,-0.5428,-0.5428,-0.5428,-0.5428,-0.5428,-0.5428,-0.5552,-0.5813,-0.6088,-0.6257,-0.6261,-0.6261,-0.6261,-0.6261,-0.6261,-0.6261,-0.6261,-0.6261,-0.6261,-0.6261,-0.6261,-0.6261,-0.6261,-0.6261,-0.6261,-0.6261,-0.6261,-0.6261,-0.6261,-0.6261,-0.6261,-0.6261,-0.6261,-0.6261,-0.6261,-0.6261,-0.6261,-0.6261,-0.6261,-0.6261,-1.0618,-1.0618,-1.0618,-1.0618,-1.0618,-1.0618,-1.0618,-1.0618,-1.0618,-1.0618,-1.0618,-1.0618,-1.0238,-0.9524,-0.8544,-0.7707,-0.6994,-0.5951,-0.5491,-0.5428,-0.5428,-0.5428,-0.5328,-0.5057,-0.4918,-0.4884,-0.4606,-0.4463,-0.4463,-0.4463,-0.4463,-0.4463,-0.4463,-0.4463,-0.4463,-0.4463,-0.4463,-0.4463,-0.4463,-0.4463,-0.4463,-0.4463,-0.4406,-0.4307,-0.4244,-0.4239,-0.4128,-0.4117,-0.4104,-0.4073,-0.4033,-0.4016,-0.4033,-0.4304,-0.4463,-0.4463,-0.4463,-0.4412,-0.4314,-0.4399,-0.4463,-0.4463,-0.4463,-0.4463,-0.4484,-0.4741,-0.5043,-0.537,-0.5428,-0.5428,-0.5428,-0.5428,-0.5428,-0.5428,-0.5428,-0.5428,-0.5428,-0.5428,-0.5428,-0.5428,-0.5487,-0.5674,-0.6105,-0.6261,-0.6261,-0.6261,-0.6261,-0.6261,-0.6261,-0.6261,-0.6261,-0.6261,-0.6261,-0.6261,-0.6261,-0.6261,-0.6261,-0.6261,-0.6261,-0.6261,-0.6261,-0.6261,-0.6261,-0.6261,-0.6261,-0.6261,-0.6261,-0.6261,-0.6261,-0.6261,-0.6261,-0.6261,-0.6261,-0.6261,-0.6261,-1.0624,-1.0618,-1.0624,-1.0618,-1.0618,-1.0618,-1.0618,-1.0618,-1.0618,-1.0618,-1.0618,-1.0618,-1.0308,-0.967,-0.8882,-0.8102,-0.7391,-0.6346,-0.5752,-0.5554,-0.5491,-0.5428,-0.5401,-0.506,-0.4918,-0.488,-0.4609,-0.4463,-0.4463,-0.4463,-0.4463,-0.4463,-0.4463,-0.4463,-0.4463,-0.4463,-0.4463,-0.4463,-0.4463,-0.4463,-0.4463,-0.4463,-0.4512,-0.4498,-0.444,-0.4491,-0.4402,-0.4477,-0.4362,-0.4197,-0.4338,-0.4287,-0.409,-0.43,-0.4463,-0.4463,-0.4463,-0.4508,-0.4443,-0.4512,-0.4463,-0.4463,-0.4525,-0.4522,-0.4529,-0.4745,-0.5043,-0.5291,-0.5428,-0.5428,-0.5428,-0.5428,-0.5428,-0.5428,-0.5428,-0.5428,-0.5428,-0.5428,-0.5428,-0.5428,-0.5572,-0.5888,-0.6183,-0.6261,-0.6261,-0.6261,-0.6261,-0.6261,-0.6261,-0.6261,-0.6261,-0.6261,-0.6261,-0.6261,-0.6261,-0.6261,-0.6261,-0.6261,-0.6261,-0.6261,-0.6261,-0.6261,-0.6261,-0.6261,-0.6261,-0.6261,-0.6261,-0.6261,-0.6261,-0.6261,-0.6261,-0.6261,-0.6261,-0.6261,-0.6261,-1.0996,-1.0877,-1.0744,-1.0681,-1.0624,-1.0618,-1.0618,-1.0618,-1.0618,-1.0618,-1.0618,-1.0618,-1.0371,-0.9862,-0.9274,-0.8624,-0.7842,-0.6863,-0.6207,-0.5881,-0.5557,-0.5428,-0.5397,-0.5057,-0.4918,-0.4891,-0.4609,-0.4463,-0.4463,-0.4463,-0.4463,-0.4463,-0.4463,-0.4463,-0.4463,-0.4463,-0.4463,-0.4463,-0.4463,-0.4463,-0.4463,-0.4463,-0.4463,-0.4463,-0.4463,-0.4463,-0.4463,-0.4463,-0.4491,-0.4382,-0.4429,-0.4464,-0.429,-0.4453,-0.4463,-0.4463,-0.4463,-0.4463,-0.4463,-0.4463,-0.4463,-0.4463,-0.4548,-0.4565,-0.4539,-0.4741,-0.5043,-0.5367,-0.5428,-0.5428,-0.5428,-0.5428,-0.5428,-0.5428,-0.5428,-0.5428,-0.5428,-0.5428,-0.5428,-0.5449,-0.562,-0.5918,-0.6179,-0.6261,-0.6261,-0.6261,-0.6261,-0.6261,-0.6261,-0.6261,-0.6261,-0.6261,-0.6261,-0.6261,-0.6261,-0.6261,-0.6261,-0.6261,-0.6261,-0.6261,-0.6261,-0.6261,-0.6261,-0.6261,-0.6261,-0.6261,-0.6261,-0.6261,-0.6261,-0.6261,-0.6261,-0.6261,-0.6261,-0.6261,-0.6261,-1.1619,-1.124,-1.0926,-1.0681,-1.0618,-1.0618,-1.0618,-1.0618,-1.0618,-1.0618,-1.0618,-1.0618,-1.0434,-1.011,-0.9658,-0.9075,-0.8361,-0.7377,-0.6728,-0.6338,-0.5888,-0.569,-0.5665,-0.542,-0.52,-0.5062,-0.4826,-0.4619,-0.4525,-0.4463,-0.4463,-0.4463,-0.4463,-0.4463,-0.4463,-0.4463,-0.4463,-0.4463,-0.4463,-0.4463,-0.4463,-0.4463,-0.4463,-0.4463,-0.4463,-0.4463,-0.4463,-0.4463,-0.4463,-0.446,-0.4463,-0.4463,-0.4463,-0.4463,-0.4463,-0.4463,-0.4463,-0.4463,-0.4463,-0.4463,-0.4536,-0.4584,-0.4633,-0.4663,-0.4643,-0.4792,-0.5043,-0.538,-0.5428,-0.5428,-0.5428,-0.5428,-0.5428,-0.5432,-0.5393,-0.5423,-0.543,-0.5518,-0.5525,-0.5406,-0.562,-0.5918,-0.6183,-0.6261,-0.6261,-0.6261,-0.6261,-0.6261,-0.6261,-0.6261,-0.6261,-0.6261,-0.6261,-0.6261,-0.6261,-0.6261,-0.6261,-0.6261,-0.6261,-0.6261,-0.6261,-0.6261,-0.6261,-0.6261,-0.6261,-0.6261,-0.6261,-0.6261,-0.6261,-0.6261,-0.6261,-0.6261,-0.6261,-0.6261,-0.6261,-1.2562,-1.1725,-1.0926,-1.0624,-1.0618,-1.0618,-1.0618,-1.0618,-1.0618,-1.0618,-1.0618,-1.0618,-1.0555,-1.0491,-1.004,-0.9518,-0.8882,-0.8096,-0.7512,-0.7134,-0.6609,-0.6354,-0.6338,-0.6225,-0.598,-0.5711,-0.5268,-0.4872,-0.4522,-0.4463,-0.4463,-0.4463,-0.4463,-0.4463,-0.4463,-0.4463,-0.4463,-0.4463,-0.4463,-0.4463,-0.4463,-0.4463,-0.4463,-0.4463,-0.4463,-0.4463,-0.4463,-0.4463,-0.4463,-0.4463,-0.4463,-0.4463,-0.4463,-0.4463,-0.4463,-0.4463,-0.4463,-0.4463,-0.4463,-0.447,-0.4584,-0.465,-0.4701,-0.4755,-0.4847,-0.4925,-0.5081,-0.5397,-0.5428,-0.5428,-0.5428,-0.5428,-0.5435,-0.5452,-0.5494,-0.5559,-0.5583,-0.5677,-0.5633,-0.5491,-0.5664,-0.5952,-0.6224,-0.6261,-0.6261,-0.6261,-0.6261,-0.6261,-0.6261,-0.6261,-0.6261,-0.6261,-0.6261,-0.6261,-0.6261,-0.6261,-0.6261,-0.6261,-0.6261,-0.6261,-0.6261,-0.6261,-0.6261,-0.6261,-0.6261,-0.6261,-0.6261,-0.6261,-0.6261,-0.6261,-0.6261,-0.6261,-0.6261,-0.6261,-0.6261,-1.3089,-1.1856,-1.1178,-1.087,-1.0681,-1.0618,-1.0618,-1.0618,-1.0618,-1.0618,-1.0618,-1.0618,-1.0618,-1.0555,-1.0428,-1.004,-0.9594,-0.9011,-0.8554,-0.8166,-0.7642,-0.7447,-0.7358,-0.689,-0.6648,-0.6494,-0.5483,-0.4812,-0.4529,-0.4463,-0.4463,-0.4463,-0.4463,-0.4463,-0.4463,-0.4463,-0.4463,-0.4463,-0.4463,-0.4463,-0.4463,-0.4463,-0.4463,-0.4463,-0.4463,-0.4463,-0.4463,-0.4463,-0.4463,-0.4463,-0.4463,-0.4463,-0.4463,-0.4463,-0.4463,-0.4463,-0.4463,-0.4463,-0.4473,-0.4555,-0.4629,-0.4694,-0.487,-0.4942,-0.4958,-0.5087,-0.5254,-0.5401,-0.5428,-0.5428,-0.5428,-0.5428,-0.547,-0.5566,-0.5628,-0.5633,-0.5708,-0.5772,-0.5755,-0.5711,-0.5905,-0.6146,-0.6213,-0.6261,-0.6261,-0.6261,-0.6261,-0.6261,-0.6261,-0.6261,-0.6261,-0.6261,-0.6261,-0.6261,-0.6261,-0.6261,-0.6261,-0.6261,-0.6261,-0.6261,-0.6261,-0.6261,-0.6261,-0.6261,-0.6261,-0.6261,-0.6261,-0.6261,-0.6261,-0.6261,-0.6261,-0.6261,-0.6261,-0.6261,-0.6261,-1.3735,-1.2578,-1.1652,-1.1178,-1.0926,-1.0681,-1.0618,-1.0618,-1.0618,-1.0618,-1.0618,-1.0618,-1.0618,-1.0618,-1.0618,-1.0498,-1.0174,-0.9658,-0.9262,-0.8935,-0.8549,-0.8296,-0.8195,-0.7648,-0.7418,-0.7259,-0.6036,-0.5171,-0.4871,-0.4816,-0.4736,-0.4732,-0.4736,-0.468,-0.4629,-0.4574,-0.4574,-0.4519,-0.4463,-0.4463,-0.4463,-0.4463,-0.4463,-0.4463,-0.4463,-0.4463,-0.4463,-0.4463,-0.4463,-0.4463,-0.4463,-0.4463,-0.4463,-0.4463,-0.4463,-0.4463,-0.4463,-0.4546,-0.4594,-0.469,-0.4731,-0.483,-0.5006,-0.5098,-0.5074,-0.5247,-0.5411,-0.5428,-0.5428,-0.5428,-0.5428,-0.5428,-0.549,-0.5634,-0.57,-0.5715,-0.5854,-0.5922,-0.5952,-0.5979,-0.6112,-0.6237,-0.6261,-0.6261,-0.6261,-0.6261,-0.6261,-0.6261,-0.6261,-0.6261,-0.6261,-0.6261,-0.6261,-0.6261,-0.6261,-0.6261,-0.6261,-0.6261,-0.6261,-0.6261,-0.6261,-0.6261,-0.6261,-0.6261,-0.6261,-0.6261,-0.6261,-0.6261,-0.6261,-0.6261,-0.6261,-0.6261,-0.6261,-0.6261,-0.6261,-1.4515,-1.3731,-1.2414,-1.1677,-1.131,-1.0807,-1.0618,-1.0618,-1.0618,-1.0618,-1.0618,-1.0618,-1.0618,-1.0618,-1.0618,-1.0561,-1.0428,-1.004,-0.9716,-0.9512,-0.9204,-0.9081,-0.9005,-0.8703,-0.8444,-0.8264,-0.7037,-0.62,-0.5751,-0.5497,-0.5411,-0.534,-0.5234,-0.5066,-0.4897,-0.4794,-0.4632,-0.4519,-0.4463,-0.4463,-0.4463,-0.4463,-0.4463,-0.4463,-0.4463,-0.4463,-0.4463,-0.4463,-0.4463,-0.4463,-0.4463,-0.4463,-0.4463,-0.4463,-0.4463,-0.4519,-0.4522,-0.4657,-0.4836,-0.4766,-0.486,-0.5033,-0.5128,-0.5203,-0.5291,-0.5408,-0.5428,-0.5428,-0.5428,-0.5428,-0.5428,-0.5428,-0.55,-0.5576,-0.5708,-0.5837,-0.6006,-0.6159,-0.6251,-0.623,-0.6254,-0.6257,-0.6261,-0.6261,-0.6261,-0.6261,-0.6261,-0.6261,-0.6261,-0.6261,-0.6261,-0.6261,-0.6261,-0.6261,-0.6261,-0.6261,-0.6261,-0.6261,-0.6261,-0.6261,-0.6261,-0.6261,-0.6261,-0.6261,-0.6261,-0.6261,-0.6261,-0.6261,-0.6261,-0.6261,-0.6261,-0.6261,-0.6261,-0.6261,-0.6261,-1.5378,-1.4327,-1.3304,-1.2484,-1.1747,-1.0961,-1.0584,-1.0604,-1.0618,-1.0618,-1.0618,-1.0618,-1.0618,-1.0618,-1.0618,-1.0618,-1.0555,-1.0428,-1.0295,-1.0238,-1.011,-1.004,-1.004,-0.997,-0.9781,-0.9383,-0.8514,-0.7575,-0.6788,-0.6562,-0.6416,-0.6182,-0.5937,-0.566,-0.5328,-0.5066,-0.4849,-0.4519,-0.4463,-0.4463,-0.4463,-0.4519,-0.4519,-0.4463,-0.4463,-0.4463,-0.4463,-0.4463,-0.4463,-0.4463,-0.4463,-0.4463,-0.4463,-0.4463,-0.4463,-0.4529,-0.4565,-0.4747,-0.4886,-0.4941,-0.5016,-0.5131,-0.5226,-0.5301,-0.5418,-0.5428,-0.5428,-0.5428,-0.5428,-0.5428,-0.5428,-0.5428,-0.5535,-0.5849,-0.5851,-0.5905,-0.6129,-0.6227,-0.6254,-0.6261,-0.6261,-0.6261,-0.6261,-0.6261,-0.6261,-0.6261,-0.6261,-0.6261,-0.6261,-0.6261,-0.6261,-0.6261,-0.6261,-0.6261,-0.6261,-0.6261,-0.6261,-0.6261,-0.6261,-0.6261,-0.6261,-0.6261,-0.6261,-0.6261,-0.6261,-0.6261,-0.6261,-0.6261,-0.6261,-0.6261,-0.6261,-0.6261,-0.6261,-0.6261,-0.6261,-1.6309,-1.5369,-1.4351,-1.3484,-1.2578,-1.1296,-1.0669,-1.0571,-1.0611,-1.0618,-1.0618,-1.0618,-1.0618,-1.0618,-1.0618,-1.0618,-1.0618,-1.0618,-1.0618,-1.0618,-1.0618,-1.0618,-1.0555,-1.0498,-1.0438,-1.0099,-0.934,-0.844,-0.7575,-0.7467,-0.7255,-0.6949,-0.6642,-0.6312,-0.5873,-0.5555,-0.5234,-0.4842,-0.4791,-0.4684,-0.4629,-0.4574,-0.4519,-0.4519,-0.4463,-0.4463,-0.4463,-0.4463,-0.4463,-0.4463,-0.4463,-0.4463,-0.4463,-0.4463,-0.4507,-0.4505,-0.4612,-0.4793,-0.5037,-0.5088,-0.5162,-0.522,-0.5308,-0.5425,-0.5428,-0.5428,-0.5428,-0.5428,-0.5428,-0.5428,-0.5428,-0.5428,-0.5545,-0.5765,-0.5772,-0.5935,-0.6186,-0.6261,-0.6261,-0.6261,-0.6261,-0.6261,-0.6261,-0.6261,-0.6261,-0.6261,-0.6261,-0.6261,-0.6261,-0.6261,-0.6261,-0.6261,-0.6261,-0.6261,-0.6261,-0.6261,-0.6261,-0.6261,-0.6261,-0.6261,-0.6261,-0.6261,-0.6261,-0.6261,-0.6261,-0.6261,-0.6261,-0.6261,-0.6261,-0.6261,-0.6261,-0.6261,-0.6261,-0.6261,-0.6261,-1.7176,-1.675,-1.5486,-1.4497,-1.3609,-1.1802,-1.0878,-1.0662,-1.0598,-1.0618,-1.0618,-1.0618,-1.0618,-1.0618,-1.0618,-1.0618,-1.0618,-1.0618,-1.0618,-1.0618,-1.0618,-1.0618,-1.0555,-1.0434,-1.0434,-1.0408,-0.9743,-0.9011,-0.8393,-0.8269,-0.7888,-0.7597,-0.7354,-0.6923,-0.6539,-0.6218,-0.5882,-0.5445,-0.523,-0.512,-0.4952,-0.4794,-0.4632,-0.4519,-0.4463,-0.4463,-0.4463,-0.4463,-0.4463,-0.4463,-0.4463,-0.4463,-0.4463,-0.4463,-0.4472,-0.4534,-0.4654,-0.4934,-0.5244,-0.5209,-0.5209,-0.5325,-0.5415,-0.5428,-0.5428,-0.5428,-0.5428,-0.5428,-0.5428,-0.5428,-0.5428,-0.5428,-0.5447,-0.5448,-0.5688,-0.5959,-0.6193,-0.6247,-0.6261,-0.6261,-0.6261,-0.6261,-0.6261,-0.6261,-0.6261,-0.6261,-0.6261,-0.6261,-0.6261,-0.6261,-0.6261,-0.6261,-0.6261,-0.6261,-0.6261,-0.6261,-0.6261,-0.6261,-0.6261,-0.6261,-0.6261,-0.6261,-0.6261,-0.6261,-0.6261,-0.6261,-0.6261,-0.6261,-0.6261,-0.6261,-0.6261,-0.6261,-0.6261,-0.6261,-0.6261,-1.7338,-1.6555,-1.5925,-1.4988,-1.3752,-1.2381,-1.1534,-1.0996,-1.0724,-1.0618,-1.0618,-1.0618,-1.0618,-1.0618,-1.0618,-1.0618,-1.0618,-1.0618,-1.0618,-1.0618,-1.0618,-1.0618,-1.0618,-1.0561,-1.0498,-1.0555,-1.0266,-0.9936,-0.9356,-0.9183,-0.8951,-0.8447,-0.8103,-0.7777,-0.7396,-0.7079,-0.6696,-0.6317,-0.5991,-0.5714,-0.5328,-0.5062,-0.4849,-0.4519,-0.4463,-0.4463,-0.4463,-0.4463,-0.4463,-0.4463,-0.4463,-0.4463,-0.4463,-0.4467,-0.4482,-0.4537,-0.4706,-0.4996,-0.5301,-0.5366,-0.5315,-0.5418,-0.5428,-0.5428,-0.5428,-0.5428,-0.5428,-0.5428,-0.5428,-0.5428,-0.5428,-0.5432,-0.5481,-0.5641,-0.5857,-0.5996,-0.6098,-0.6193,-0.6261,-0.6261,-0.6261,-0.6261,-0.6261,-0.6261,-0.6261,-0.6261,-0.6261,-0.6261,-0.6261,-0.6261,-0.6261,-0.6261,-0.6261,-0.6261,-0.6261,-0.6261,-0.6261,-0.6261,-0.6261,-0.6261,-0.6261,-0.6261,-0.6261,-0.6261,-0.6261,-0.6261,-0.6261,-0.6261,-0.6261,-0.6261,-0.6261,-0.6261,-0.6261,-0.6261,-0.6261,-1.7395,-1.6834,-1.6277,-1.5414,-1.424,-1.3075,-1.2135,-1.1461,-1.0863,-1.0618,-1.0618,-1.0618,-1.0618,-1.0618,-1.0618,-1.0618,-1.0618,-1.0618,-1.0618,-1.0618,-1.0618,-1.0618,-1.0618,-1.0618,-1.0618,-1.0618,-1.0618,-1.0221,-0.978,-0.9686,-0.9359,-0.8851,-0.8586,-0.8262,-0.7889,-0.7664,-0.7396,-0.6972,-0.6647,-0.6258,-0.5764,-0.5332,-0.4956,-0.457,-0.4463,-0.4463,-0.4463,-0.4463,-0.4463,-0.4463,-0.4463,-0.4463,-0.4463,-0.4463,-0.4485,-0.4515,-0.4732,-0.5064,-0.5328,-0.538,-0.5422,-0.5428,-0.5428,-0.5428,-0.5428,-0.5428,-0.5428,-0.5428,-0.5428,-0.5428,-0.5439,-0.5483,-0.5603,-0.5688,-0.5901,-0.6047,-0.6112,-0.6213,-0.6254,-0.6261,-0.6261,-0.6261,-0.6261,-0.6261,-0.6261,-0.6261,-0.6261,-0.6261,-0.6261,-0.6261,-0.6261,-0.6261,-0.6261,-0.6261,-0.6261,-0.6261,-0.6261,-0.6261,-0.6261,-0.6261,-0.6261,-0.6261,-0.6261,-0.6261,-0.6261,-0.6261,-0.6261,-0.6261,-0.6261,-0.6261,-0.6261,-0.6261,-0.6261,-0.6261,-0.6261,-1.7285,-1.7178,-1.6449,-1.568,-1.4823,-1.3587,-1.2581,-1.1856,-1.0996,-1.0618,-1.0618,-1.0618,-1.0618,-1.0618,-1.0618,-1.0618,-1.0618,-1.0618,-1.0618,-1.0618,-1.0618,-1.0618,-1.0618,-1.0618,-1.0618,-1.0618,-1.0618,-1.0214,-0.982,-0.9686,-0.9365,-0.8938,-0.8685,-0.8527,-0.8268,-0.8096,-0.7883,-0.7622,-0.7246,-0.6701,-0.6095,-0.5605,-0.5113,-0.457,-0.4463,-0.4463,-0.4463,-0.4463,-0.4463,-0.4463,-0.4463,-0.4463,-0.4463,-0.4463,-0.4498,-0.454,-0.4745,-0.5043,-0.536,-0.5418,-0.5428,-0.5428,-0.5428,-0.5428,-0.5428,-0.5428,-0.5428,-0.5428,-0.5428,-0.5456,-0.5525,-0.5675,-0.5755,-0.5718,-0.5911,-0.6081,-0.6217,-0.6261,-0.6261,-0.6261,-0.6261,-0.6261,-0.6261,-0.6261,-0.6261,-0.6261,-0.6261,-0.6261,-0.6261,-0.6261,-0.6261,-0.6261,-0.6261,-0.6261,-0.6261,-0.6261,-0.6261,-0.6261,-0.6261,-0.6261,-0.6261,-0.6261,-0.6261,-0.6261,-0.6261,-0.6261,-0.6261,-0.6261,-0.6261,-0.6261,-0.6261,-0.6261,-0.6261,-0.6261,-0.6261,-1.667,-1.6328,-1.6143,-1.5498,-1.4556,-1.3467,-1.265,-1.1926,-1.0996,-1.0618,-1.0618,-1.0618,-1.0618,-1.0618,-1.0618,-1.0618,-1.0618,-1.0618,-1.0618,-1.0618,-1.0618,-1.0618,-1.0618,-1.0618,-1.0618,-1.0618,-1.0618,-1.0241,-0.982,-0.9639,-0.9385,-0.8884,-0.8752,-0.8692,-0.8646,-0.8586,-0.8586,-0.8427,-0.7943,-0.7235,-0.648,-0.5932,-0.5332,-0.4625,-0.4519,-0.4463,-0.4463,-0.4463,-0.4463,-0.4463,-0.4463,-0.4463,-0.4463,-0.4463,-0.4495,-0.4527,-0.4738,-0.5047,-0.5356,-0.5428,-0.5428,-0.5428,-0.5428,-0.5428,-0.5428,-0.5428,-0.5428,-0.5428,-0.5432,-0.545,-0.5637,-0.5766,-0.5856,-0.5867,-0.5983,-0.6098,-0.622,-0.6261,-0.6261,-0.6261,-0.6261,-0.6261,-0.6261,-0.6261,-0.6261,-0.6261,-0.6261,-0.6261,-0.6261,-0.6261,-0.6261,-0.6261,-0.6261,-0.6261,-0.6261,-0.6261,-0.6261,-0.6261,-0.6261,-0.6261,-0.6261,-0.6261,-0.6261,-0.6261,-0.6261,-0.6261,-0.6261,-0.6261,-0.6261,-0.6261,-0.6261,-0.6261,-0.6261,-0.6261,-0.6261,-1.6279,-1.6105,-1.584,-1.526,-1.4428,-1.3425,-1.2642,-1.1926,-1.0996,-1.0618,-1.0618,-1.0618,-1.0618,-1.0618,-1.0618,-1.0618,-1.0618,-1.0618,-1.0618,-1.0618,-1.0618,-1.0618,-1.0618,-1.0618,-1.0618,-1.0618,-1.0618,-1.0227,-0.9833,-0.9639,-0.9385,-0.8858,-0.8804,-0.8752,-0.8804,-0.8804,-0.8752,-0.8699,-0.8315,-0.767,-0.6858,-0.6263,-0.5555,-0.4791,-0.4519,-0.4463,-0.4463,-0.4463,-0.4463,-0.4463,-0.4463,-0.4463,-0.4519,-0.447,-0.4502,-0.4543,-0.4735,-0.506,-0.5274,-0.5428,-0.5428,-0.5428,-0.5428,-0.5428,-0.5428,-0.5428,-0.5428,-0.5428,-0.5386,-0.5477,-0.561,-0.5957,-0.6026,-0.5983,-0.6095,-0.6173,-0.6237,-0.6261,-0.6261,-0.6261,-0.6261,-0.6261,-0.6261,-0.6261,-0.6261,-0.6261,-0.6261,-0.6261,-0.6261,-0.6261,-0.6261,-0.6261,-0.6261,-0.6261,-0.6261,-0.6261,-0.6261,-0.6261,-0.6261,-0.6261,-0.6261,-0.6261,-0.6261,-0.6261,-0.6261,-0.6261,-0.6261,-0.6261,-0.6261,-0.6261,-0.6261,-0.6261,-0.6261,-0.6261,-0.6261,-1.5957,-1.5937,-1.5566,-1.5059,-1.441,-1.3433,-1.265,-1.1919,-1.0996,-1.0618,-1.0618,-1.0618,-1.0618,-1.0618,-1.0618,-1.0618,-1.0618,-1.0618,-1.0618,-1.0618,-1.0618,-1.0618,-1.0618,-1.0618,-1.0618,-1.0618,-1.0618,-1.0234,-0.9826,-0.9646,-0.9372,-0.8905,-0.8804,-0.8804,-0.8804,-0.8804,-0.8804,-0.8752,-0.8427,-0.7895,-0.7241,-0.6642,-0.5828,-0.4959,-0.4574,-0.4519,-0.4463,-0.4463,-0.4463,-0.4463,-0.4463,-0.4463,-0.4525,-0.4538,-0.4508,-0.4537,-0.4758,-0.5101,-0.5294,-0.5428,-0.5428,-0.5428,-0.5428,-0.5428,-0.5428,-0.5428,-0.5428,-0.5389,-0.543,-0.5448,-0.5538,-0.5981,-0.6138,-0.6153,-0.619,-0.6247,-0.6261,-0.6261,-0.6261,-0.6261,-0.6261,-0.6261,-0.6261,-0.6261,-0.6261,-0.6261,-0.6261,-0.6261,-0.6261,-0.6261,-0.6261,-0.6261,-0.6261,-0.6261,-0.6261,-0.6261,-0.6261,-0.6261,-0.6261,-0.6261,-0.6261,-0.6261,-0.6261,-0.6261,-0.6261,-0.6261,-0.6261,-0.6261,-0.6261,-0.6261,-0.6261,-0.6261,-0.6261,-0.6261,-0.6261,-1.5527,-1.5508,-1.5439,-1.5059,-1.441,-1.3433,-1.265,-1.1919,-1.0996,-1.0624,-1.0618,-1.0618,-1.0618,-1.0618,-1.0618,-1.0618,-1.0618,-1.0618,-1.0618,-1.0618,-1.0618,-1.0618,-1.0618,-1.0618,-1.0548,-1.0618,-1.0514,-1.0214,-0.9806,-0.9653,-0.9325,-0.8918,-0.8804,-0.8804,-0.8804,-0.8804,-0.8804,-0.8752,-0.848,-0.8103,-0.7616,-0.6966,-0.6154,-0.5179,-0.4739,-0.4574,-0.4519,-0.4519,-0.4463,-0.4463,-0.4463,-0.4463,-0.458,-0.4694,-0.4746,-0.4697,-0.4899,-0.5152,-0.5391,-0.5428,-0.5428,-0.5428,-0.5428,-0.5428,-0.5428,-0.5428,-0.5428,-0.5433,-0.5461,-0.5551,-0.6063,-0.6245,-0.6252,-0.6259,-0.623,-0.6261,-0.6261,-0.6261,-0.6261,-0.6261,-0.6261,-0.6261,-0.6261,-0.6261,-0.6261,-0.6261,-0.6261,-0.6261,-0.6261,-0.6261,-0.6261,-0.6261,-0.6261,-0.6261,-0.6261,-0.6261,-0.6261,-0.6261,-0.6261,-0.6261,-0.6261,-0.6261,-0.6261,-0.6261,-0.6261,-0.6261,-0.6261,-0.6261,-0.6261,-0.6261,-0.6261,-0.6261,-0.6261,-0.6261,-0.6261,-1.542,-1.542,-1.542,-1.505,-1.441,-1.3433,-1.2589,-1.1919,-1.0989,-1.0618,-1.0618,-1.0618,-1.0618,-1.0618,-1.0618,-1.0618,-1.0618,-1.0618,-1.0618,-1.0618,-1.0618,-1.0618,-1.0618,-1.0618,-1.0372,-1.023,-1.0232,-1.0114,-0.9706,-0.9512,-0.9232,-0.8918,-0.8804,-0.8804,-0.8804,-0.8804,-0.8804,-0.8752,-0.8586,-0.8315,-0.7889,-0.7187,-0.6213,-0.5614,-0.5011,-0.4684,-0.4577,-0.4519,-0.4519,-0.4463,-0.4463,-0.4463,-0.4592,-0.486,-0.5075,-0.5004,-0.5055,-0.5179,-0.5391,-0.5428,-0.5428,-0.5428,-0.5428,-0.5428,-0.5428,-0.5428,-0.5428,-0.5386,-0.5437,-0.5626,-0.623,-0.6259,-0.6273,-0.6311,-0.6261,-0.6261,-0.6261,-0.6261,-0.6261,-0.6261,-0.6261,-0.6261,-0.6261,-0.6261,-0.6261,-0.6261,-0.6261,-0.6261,-0.6261,-0.6261,-0.6261,-0.6261,-0.6261,-0.6261,-0.6261,-0.6261,-0.6261,-0.6261,-0.6261,-0.6261,-0.6261,-0.6261,-0.6261,-0.6261,-0.6261,-0.6261,-0.6261,-0.6261,-0.6261,-0.6261,-0.6261,-0.6261,-0.6261,-0.6261,-0.6261,-1.542,-1.542,-1.542,-1.505,-1.4401,-1.3433,-1.2589,-1.1919,-1.0996,-1.0618,-1.0618,-1.0618,-1.0618,-1.0618,-1.0618,-1.0618,-1.0618,-1.0618,-1.0618,-1.0618,-1.0618,-1.0618,-1.0618,-1.0461,-1.0272,-0.9897,-0.9794,-0.982,-0.9573,-0.9379,-0.9098,-0.8878,-0.8804,-0.8804,-0.8804,-0.8804,-0.8804,-0.8752,-0.8692,-0.8533,-0.8055,-0.7246,-0.6436,-0.5991,-0.5391,-0.4956,-0.4798,-0.4577,-0.4549,-0.4556,-0.4549,-0.4494,-0.4687,-0.513,-0.5411,-0.5401,-0.5267,-0.5305,-0.537,-0.5428,-0.5428,-0.5428,-0.5428,-0.5428,-0.5428,-0.5428,-0.5432,-0.5386,-0.5412,-0.5635,-0.6203,-0.6254,-0.6254,-0.6257,-0.6261,-0.6261,-0.6261,-0.6261,-0.6261,-0.6261,-0.6261,-0.6261,-0.6261,-0.6261,-0.6261,-0.6261,-0.6261,-0.6261,-0.6261,-0.6261,-0.6261,-0.6261,-0.6261,-0.6261,-0.6261,-0.6261,-0.6261,-0.6261,-0.6261,-0.6261,-0.6261,-0.6261,-0.6261,-0.6261,-0.6261,-0.6261,-0.6261,-0.6261,-0.6261,-0.6261,-0.6261,-0.6261,-0.6261,-0.6261,-0.6261,-1.542,-1.542,-1.542,-1.5059,-1.441,-1.3442,-1.265,-1.1926,-1.0996,-1.0624,-1.0618,-1.0618,-1.0618,-1.0618,-1.0618,-1.0618,-1.0618,-1.0618,-1.0618,-1.0618,-1.0618,-1.0604,-1.0564,-1.0274,-1.0012,-0.9622,-0.94,-0.9303,-0.9285,-0.9232,-0.9085,-0.8858,-0.8804,-0.8804,-0.8804,-0.8804,-0.8804,-0.8804,-0.8752,-0.8639,-0.8315,-0.7777,-0.7295,-0.6637,-0.5928,-0.5277,-0.5014,-0.4743,-0.4567,-0.4626,-0.4591,-0.4609,-0.4857,-0.5229,-0.5394,-0.5425,-0.5408,-0.5401,-0.5422,-0.5428,-0.5428,-0.5428,-0.5428,-0.5428,-0.5428,-0.5428,-0.5428,-0.5428,-0.5446,-0.5724,-0.6173,-0.6254,-0.6261,-0.6261,-0.6261,-0.6261,-0.6261,-0.6261,-0.6261,-0.6261,-0.6261,-0.6261,-0.6261,-0.6261,-0.6261,-0.6261,-0.6261,-0.6261,-0.6261,-0.6261,-0.6261,-0.6261,-0.6261,-0.6261,-0.6261,-0.6261,-0.6261,-0.6261,-0.6261,-0.6261,-0.6261,-0.6261,-0.6261,-0.6261,-0.6261,-0.6261,-0.6261,-0.6261,-0.6261,-0.6261,-0.6261,-0.6261,-0.6261,-0.6261,-0.6261,-1.542,-1.542,-1.542,-1.5059,-1.441,-1.3433,-1.2642,-1.1919,-1.0996,-1.0618,-1.0618,-1.0618,-1.0618,-1.0618,-1.0618,-1.0618,-1.0618,-1.0618,-1.0618,-1.0548,-1.0604,-1.0607,-1.052,-1.0228,-0.988,-0.9298,-0.919,-0.9117,-0.9072,-0.8998,-0.8905,-0.8838,-0.8804,-0.8804,-0.8804,-0.8804,-0.8804,-0.8804,-0.8752,-0.8692,-0.8527,-0.8309,-0.7937,-0.7122,-0.6249,-0.5655,-0.5226,-0.4739,-0.4594,-0.4667,-0.4677,-0.4772,-0.4952,-0.5179,-0.5428,-0.5428,-0.5425,-0.5425,-0.5428,-0.5428,-0.5428,-0.5428,-0.5428,-0.5428,-0.5428,-0.5428,-0.5428,-0.5428,-0.5694,-0.606,-0.6252,-0.6251,-0.6261,-0.6261,-0.6261,-0.6261,-0.6261,-0.6261,-0.6261,-0.6261,-0.6261,-0.6261,-0.6261,-0.6261,-0.6261,-0.6261,-0.6261,-0.6261,-0.6261,-0.6261,-0.6261,-0.6261,-0.6261,-0.6261,-0.6261,-0.6261,-0.6261,-0.6261,-0.6261,-0.6261,-0.6261,-0.6261,-0.6261,-0.6261,-0.6261,-0.6261,-0.6261,-0.6261,-0.6261,-0.6261,-0.6261,-0.6261,-0.6261,-0.6261,-0.6261,-1.542,-1.542,-1.542,-1.5059,-1.441,-1.3442,-1.2581,-1.1919,-1.0989,-1.0618,-1.0618,-1.0618,-1.0618,-1.0618,-1.0618,-1.0618,-1.0618,-1.0618,-1.0618,-1.0548,-1.053,-1.0458,-1.0275,-0.9993,-0.9459,-0.8799,-0.8974,-0.8964,-0.8891,-0.8824,-0.8831,-0.8804,-0.8804,-0.8804,-0.8804,-0.8804,-0.8804,-0.8804,-0.8804,-0.8745,-0.8692,-0.8752,-0.8209,-0.7503,-0.6632,-0.5928,-0.5441,-0.4791,-0.4594,-0.4745,-0.4836,-0.4921,-0.5081,-0.5247,-0.5422,-0.5428,-0.5428,-0.5428,-0.5428,-0.5428,-0.5428,-0.5428,-0.5428,-0.5428,-0.5428,-0.5432,-0.5573,-0.5696,-0.6005,-0.6173,-0.6261,-0.6261,-0.6261,-0.6261,-0.6261,-0.6261,-0.6261,-0.6261,-0.6261,-0.6261,-0.6261,-0.6261,-0.6261,-0.6261,-0.6261,-0.6261,-0.6261,-0.6261,-0.6261,-0.6261,-0.6261,-0.6261,-0.6261,-0.6261,-0.6261,-0.6261,-0.6261,-0.6261,-0.6261,-0.6261,-0.6261,-0.6261,-0.6261,-0.6261,-0.6261,-0.6261,-0.6261,-0.6261,-0.6261,-0.6261,-0.6261,-0.6261,-0.6261,-0.6261,-0.6261,-1.542,-1.542,-1.542,-1.5059,-1.441,-1.3433,-1.2589,-1.1919,-1.0989,-1.0618,-1.0618,-1.0618,-1.0618,-1.0618,-1.0618,-1.0618,-1.0618,-1.0618,-1.0591,-1.0441,-1.0301,-1.0147,-0.9927,-0.9548,-0.9138,-0.8864,-0.8843,-0.8884,-0.8818,-0.8804,-0.8804,-0.8804,-0.8804,-0.8804,-0.8804,-0.8804,-0.8804,-0.8804,-0.8804,-0.8804,-0.8752,-0.8752,-0.8474,-0.7824,-0.7015,-0.6312,-0.5773,-0.4956,-0.4572,-0.4826,-0.4894,-0.5057,-0.5223,-0.5315,-0.5428,-0.5428,-0.5428,-0.5428,-0.5428,-0.5428,-0.5428,-0.5428,-0.5428,-0.5428,-0.5428,-0.5428,-0.5662,-0.6077,-0.619,-0.6234,-0.6261,-0.6261,-0.6261,-0.6261,-0.6261,-0.6261,-0.6261,-0.6261,-0.6261,-0.6261,-0.6261,-0.6261,-0.6261,-0.6261,-0.6261,-0.6261,-0.6261,-0.6261,-0.6261,-0.6261,-0.6261,-0.6261,-0.6261,-0.6261,-0.6261,-0.6261,-0.6261,-0.6261,-0.6261,-0.6261,-0.6261,-0.6261,-0.6261,-0.6261,-0.6261,-0.6261,-0.6261,-0.6261,-0.6261,-0.6261,-0.6261,-0.6261,-0.6261,-0.6261,-0.6261,-1.542,-1.542,-1.542,-1.5059,-1.441,-1.3433,-1.2642,-1.1919,-1.0989,-1.0618,-1.0618,-1.0618,-1.0618,-1.0618,-1.0618,-1.0618,-1.0618,-1.0618,-1.0461,-1.0307,-1.016,-0.992,-0.9639,-0.9385,-0.9097,-0.8823,-0.8791,-0.8804,-0.8811,-0.8804,-0.8804,-0.8804,-0.8804,-0.8804,-0.8804,-0.8804,-0.8804,-0.8804,-0.8804,-0.8804,-0.8804,-0.8752,-0.8527,-0.7871,-0.7069,-0.6367,-0.5773,-0.4956,-0.4763,-0.4738,-0.4857,-0.5074,-0.5304,-0.5415,-0.5428,-0.5428,-0.5428,-0.5428,-0.5428,-0.5428,-0.5428,-0.5428,-0.5428,-0.5428,-0.5428,-0.5428,-0.5744,-0.6094,-0.6261,-0.6261,-0.6261,-0.6261,-0.6261,-0.6261,-0.6261,-0.6261,-0.6261,-0.6261,-0.6261,-0.6261,-0.6261,-0.6261,-0.6261,-0.6261,-0.6261,-0.6261,-0.6261,-0.6261,-0.6261,-0.6261,-0.6261,-0.6261,-0.6261,-0.6261,-0.6261,-0.6261,-0.6261,-0.6261,-0.6261,-0.6261,-0.6261,-0.6261,-0.6261,-0.6261,-0.6261,-0.6261,-0.6261,-0.6261,-0.6261,-0.6261,-0.6261,-0.6261,-0.6261,-0.6261,-0.6261,-1.542,-1.542,-1.542,-1.5059,-1.4469,-1.3563,-1.2696,-1.1896,-1.0975,-1.0611,-1.0618,-1.0618,-1.0618,-1.0618,-1.0618,-1.0618,-1.0618,-1.0541,-1.0428,-1.0267,-1.0053,-0.9818,-0.9509,-0.924,-0.8985,-0.8831,-0.8804,-0.8804,-0.8804,-0.8804,-0.8804,-0.8804,-0.8804,-0.8804,-0.8804,-0.8804,-0.8804,-0.8804,-0.8804,-0.8804,-0.8804,-0.8752,-0.8527,-0.7871,-0.7069,-0.6372,-0.5719,-0.5018,-0.4601,-0.4657,-0.4782,-0.4986,-0.5209,-0.5428,-0.5428,-0.5428,-0.5428,-0.5428,-0.5428,-0.5428,-0.5428,-0.5428,-0.5428,-0.5428,-0.5428,-0.5442,-0.5706,-0.6152,-0.6261,-0.6261,-0.6261,-0.6261,-0.6261,-0.6261,-0.6261,-0.6261,-0.6261,-0.6261,-0.6261,-0.6261,-0.6261,-0.6261,-0.6261,-0.6261,-0.6261,-0.6261,-0.6261,-0.6261,-0.6261,-0.6261,-0.6261,-0.6261,-0.6261,-0.6261,-0.6261,-0.6261,-0.6261,-0.6261,-0.6261,-0.6261,-0.6261,-0.6261,-0.6261,-0.6261,-0.6261,-0.6261,-0.6261,-0.6261,-0.6261,-0.6261,-0.6261,-0.6261,-0.6261,-0.6261,-0.6261,-1.542,-1.542,-1.542,-1.5118,-1.4656,-1.3803,-1.294,-1.2043,-1.1058,-1.0584,-1.0618,-1.0618,-1.0618,-1.0618,-1.0618,-1.0618,-1.0618,-1.0618,-1.0501,-1.0347,-1.0033,-0.9753,-0.9466,-0.9178,-0.8938,-0.8831,-0.8804,-0.8804,-0.8804,-0.8804,-0.8804,-0.8804,-0.8804,-0.8804,-0.8804,-0.8804,-0.8804,-0.8804,-0.8804,-0.8804,-0.8804,-0.8804,-0.8474,-0.7877,-0.7069,-0.6372,-0.5773,-0.4956,-0.4584,-0.4623,-0.4568,-0.4841,-0.5142,-0.5373,-0.5422,-0.5428,-0.5428,-0.5428,-0.5428,-0.5428,-0.5428,-0.5428,-0.5428,-0.5428,-0.5428,-0.5476,-0.5682,-0.6166,-0.6261,-0.6261,-0.6261,-0.6261,-0.6261,-0.6261,-0.6261,-0.6261,-0.6261,-0.6261,-0.6261,-0.6261,-0.6261,-0.6261,-0.6261,-0.6261,-0.6261,-0.6261,-0.6261,-0.6261,-0.6261,-0.6261,-0.6261,-0.6261,-0.6261,-0.6261,-0.6261,-0.6261,-0.6261,-0.6261,-0.6261,-0.6261,-0.6261,-0.6261,-0.6261,-0.6261,-0.6261,-0.6261,-0.6261,-0.6261,-0.6103,-0.5944,-0.6257,-0.6261,-0.6261,-0.6261,-0.6261,-1.542,-1.542,-1.542,-1.5245,-1.4961,-1.4282,-1.3476,-1.2533,-1.1293,-1.0571,-1.0611,-1.0618,-1.0618,-1.0618,-1.0618,-1.0618,-1.0618,-1.0618,-1.0577,-1.0261,-1.0033,-0.9713,-0.9439,-0.9218,-0.8931,-0.8851,-0.8804,-0.8804,-0.8804,-0.8804,-0.8804,-0.8804,-0.8804,-0.8804,-0.8804,-0.8804,-0.8804,-0.8804,-0.8804,-0.8804,-0.8804,-0.8752,-0.8527,-0.7931,-0.7069,-0.6372,-0.5773,-0.4956,-0.4556,-0.4551,-0.4525,-0.4659,-0.4951,-0.5109,-0.5408,-0.5422,-0.5428,-0.5428,-0.5428,-0.5428,-0.5428,-0.5428,-0.5428,-0.5428,-0.5428,-0.5428,-0.5698,-0.6084,-0.6244,-0.6261,-0.6261,-0.6261,-0.6261,-0.6261,-0.6261,-0.6261,-0.6261,-0.6261,-0.6261,-0.6261,-0.6261,-0.6261,-0.6261,-0.6261,-0.6261,-0.6261,-0.6261,-0.6261,-0.6261,-0.6261,-0.6261,-0.6261,-0.6261,-0.6261,-0.6261,-0.6261,-0.6261,-0.6261,-0.6261,-0.6261,-0.6261,-0.6261,-0.6261,-0.6261,-0.6261,-0.6261,-0.6257,-0.6103,-0.5712,-0.5631,-0.587,-0.6103,-0.618,-0.618,-0.6261,-1.542,-1.542,-1.542,-1.5362,-1.5196,-1.4647,-1.3855,-1.2818,-1.1348,-1.062,-1.0604,-1.0618,-1.0618,-1.0618,-1.0618,-1.0618,-1.0618,-1.0618,-1.0591,-1.0261,-1.0147,-0.984,-0.9526,-0.9265,-0.9051,-0.8884,-0.8804,-0.8804,-0.8804,-0.8804,-0.8804,-0.8804,-0.8804,-0.8804,-0.8804,-0.8804,-0.8804,-0.8804,-0.8804,-0.8804,-0.8804,-0.8699,-0.8527,-0.7824,-0.7069,-0.6367,-0.5719,-0.5066,-0.4463,-0.4463,-0.4463,-0.4463,-0.468,-0.4937,-0.5237,-0.538,-0.5428,-0.5428,-0.5428,-0.5428,-0.5428,-0.5428,-0.5428,-0.5428,-0.5428,-0.5428,-0.5779,-0.6115,-0.622,-0.6261,-0.6261,-0.6261,-0.6261,-0.6261,-0.6261,-0.6261,-0.6261,-0.6261,-0.6261,-0.6261,-0.6261,-0.6261,-0.6261,-0.6261,-0.6261,-0.6261,-0.6261,-0.6261,-0.6261,-0.6261,-0.6257,-0.6257,-0.6257,-0.6257,-0.6257,-0.6261,-0.6261,-0.6261,-0.6261,-0.6261,-0.6261,-0.6261,-0.6261,-0.6261,-0.6261,-0.6257,-0.6103,-0.5948,-0.5476,-0.5401,-0.5562,-0.5796,-0.5948,-0.6103,-0.6261,-1.542,-1.542,-1.542,-1.542,-1.5303,-1.4893,-1.4096,-1.2923,-1.1286,-1.06,-1.0618,-1.0618,-1.0618,-1.0618,-1.0618,-1.0618,-1.0618,-1.0618,-1.0534,-1.0468,-1.0294,-0.9967,-0.9666,-0.9399,-0.9138,-0.8918,-0.8804,-0.8804,-0.8804,-0.8804,-0.8804,-0.8804,-0.8804,-0.8804,-0.8804,-0.8804,-0.8804,-0.8804,-0.8804,-0.8804,-0.8804,-0.8752,-0.8474,-0.783,-0.7074,-0.6367,-0.5719,-0.5011,-0.4625,-0.4463,-0.4463,-0.4463,-0.4562,-0.4758,-0.505,-0.5267,-0.5422,-0.5428,-0.5428,-0.5428,-0.5428,-0.5428,-0.5428,-0.5428,-0.5428,-0.5452,-0.5761,-0.6105,-0.6261,-0.6261,-0.6261,-0.6261,-0.6261,-0.6261,-0.6261,-0.6261,-0.6261,-0.6261,-0.6261,-0.6261,-0.6261,-0.6261,-0.6261,-0.6261,-0.6261,-0.6261,-0.6261,-0.6261,-0.6261,-0.6261,-0.6257,-0.618,-0.618,-0.6257,-0.6257,-0.618,-0.6103,-0.6025,-0.6257,-0.6261,-0.6261,-0.6261,-0.6261,-0.6261,-0.6261,-0.6257,-0.618,-0.5789,-0.5165,-0.5168,-0.4859,-0.5168,-0.5321,-0.6028,-0.6268,-1.542,-1.542,-1.542,-1.542,-1.5371,-1.5263,-1.4745,-1.3813,-1.1658,-1.0573,-1.0618,-1.0618,-1.0624,-1.0618,-1.0618,-1.0618,-1.0618,-1.0618,-1.0618,-1.0494,-1.0428,-1.01,-0.9813,-0.9546,-0.9239,-0.8958,-0.8804,-0.8818,-0.8818,-0.8818,-0.8824,-0.8804,-0.8804,-0.8804,-0.8804,-0.8804,-0.8804,-0.8804,-0.8804,-0.8804,-0.8804,-0.8804,-0.8421,-0.7824,-0.7069,-0.6367,-0.5719,-0.4956,-0.4574,-0.4463,-0.4463,-0.4463,-0.4543,-0.4752,-0.5047,-0.5377,-0.5428,-0.5428,-0.5428,-0.5428,-0.5428,-0.5428,-0.5428,-0.5428,-0.5428,-0.55,-0.572,-0.6013,-0.6247,-0.6261,-0.6261,-0.6261,-0.6261,-0.6261,-0.6261,-0.6261,-0.6261,-0.6261,-0.6261,-0.6261,-0.6261,-0.6261,-0.6261,-0.6261,-0.6261,-0.6261,-0.6261,-0.6261,-0.6261,-0.6261,-0.6022,-0.5944,-0.6022,-0.6103,-0.6025,-0.5944,-0.5867,-0.5789,-0.6028,-0.6261,-0.6261,-0.6261,-0.6261,-0.6103,-0.5792,-0.6025,-0.6261,-0.587,-0.5479,-0.4075,-0.3608,-0.4229,-0.4774,-0.5246,-0.5718,-1.542,-1.542,-1.542,-1.542,-1.543,-1.541,-1.5131,-1.4264,-1.1936,-1.0746,-1.0598,-1.0674,-1.0624,-1.0618,-1.0618,-1.0618,-1.0618,-1.0618,-1.0618,-1.0618,-1.0618,-1.0154,-0.9866,-0.9639,-0.9305,-0.9005,-0.8831,-0.8878,-0.8931,-0.8958,-0.8965,-0.8804,-0.8804,-0.8804,-0.8804,-0.8804,-0.8804,-0.8804,-0.8804,-0.8804,-0.8804,-0.8752,-0.8421,-0.7871,-0.7069,-0.6421,-0.5828,-0.5011,-0.4574,-0.4519,-0.4463,-0.4519,-0.4611,-0.4843,-0.5118,-0.5422,-0.5428,-0.5428,-0.5428,-0.5428,-0.5428,-0.5428,-0.5428,-0.5428,-0.5428,-0.5466,-0.582,-0.6101,-0.6193,-0.6261,-0.6261,-0.6261,-0.6261,-0.6261,-0.6261,-0.6261,-0.6261,-0.6261,-0.6261,-0.6261,-0.6261,-0.6261,-0.6261,-0.6261,-0.6261,-0.6261,-0.6261,-0.6261,-0.6261,-0.6261,-0.5867,-0.555,-0.5709,-0.5867,-0.5634,-0.5243,-0.501,-0.5171,-0.6041,-0.6197,-0.619,-0.5559,-0.501,-0.5012,-0.5171,-0.5323,-0.5395,-0.6103,-0.5792,-0.4465,-0.3372,-0.3604,-0.3837,-0.3602,-0.4073,-1.5352,-1.5352,-1.5391,-1.542,-1.543,-1.539,-1.5262,-1.4768,-1.2562,-1.1105,-1.0808,-1.0787,-1.0744,-1.0618,-1.0618,-1.0618,-1.0618,-1.0618,-1.0618,-1.0618,-1.0618,-1.0295,-0.9833,-0.9646,-0.9388,-0.9059,-0.8898,-0.9051,-0.9157,-0.9143,-0.9051,-0.8844,-0.8804,-0.8804,-0.8804,-0.8804,-0.8804,-0.8804,-0.8804,-0.8804,-0.8804,-0.8699,-0.8527,-0.7877,-0.7176,-0.6426,-0.5828,-0.5175,-0.4574,-0.4574,-0.4539,-0.4601,-0.4707,-0.5003,-0.5267,-0.5348,-0.5425,-0.5428,-0.5428,-0.5428,-0.5428,-0.5428,-0.5428,-0.5428,-0.5428,-0.5428,-0.5748,-0.5935,-0.6034,-0.621,-0.6261,-0.6261,-0.6261,-0.6261,-0.6261,-0.6261,-0.6261,-0.6261,-0.6261,-0.6261,-0.6261,-0.6261,-0.6261,-0.6261,-0.6261,-0.6261,-0.6261,-0.6261,-0.6261,-0.6261,-0.5944,-0.5395,-0.5395,-0.5318,-0.4302,-0.399,-0.3841,-0.4316,-0.526,-0.5257,-0.4698,-0.4073,-0.3452,-0.3292,-0.3132,-0.3915,-0.4304,-0.4932,-0.5559,-0.5401,-0.4387,-0.3606,-0.3214,-0.3057,-0.2978,-1.4932,-1.4971,-1.5273,-1.542,-1.542,-1.543,-1.5351,-1.5222,-1.4201,-1.2602,-1.1279,-1.1073,-1.0926,-1.0624,-1.0618,-1.0618,-1.0618,-1.0618,-1.0618,-1.0604,-1.0604,-1.0207,-0.9838,-0.9755,-0.9444,-0.9126,-0.9086,-0.9314,-0.9359,-0.9312,-0.9163,-0.9098,-0.8951,-0.8804,-0.8804,-0.8804,-0.8804,-0.8804,-0.8804,-0.8804,-0.8804,-0.8752,-0.8533,-0.8049,-0.7402,-0.681,-0.6213,-0.5555,-0.5175,-0.4967,-0.4978,-0.4915,-0.4826,-0.5172,-0.5401,-0.5428,-0.5428,-0.5428,-0.5428,-0.5428,-0.5428,-0.5428,-0.5428,-0.5428,-0.5428,-0.5428,-0.5531,-0.5691,-0.5891,-0.6088,-0.6261,-0.6261,-0.6261,-0.6261,-0.6261,-0.6261,-0.6261,-0.6261,-0.6261,-0.6261,-0.6261,-0.6261,-0.6261,-0.6261,-0.6261,-0.6261,-0.6261,-0.6261,-0.6261,-0.6257,-0.6177,-0.5705,-0.5237,-0.4768,-0.3677,-0.3443,-0.3761,-0.3372,-0.3921,-0.3684,-0.329,-0.2821,-0.2353,-0.1333,-0.1019,-0.2272,-0.3368,-0.3839,-0.4309,-0.4857,-0.4937,-0.3999,-0.3843,-0.3763,-0.3214,-1.4492,-1.4531,-1.4736,-1.4844,-1.4863,-1.5206,-1.5409,-1.5278,-1.4772,-1.3356,-1.1647,-1.1443,-1.1115,-1.0681,-1.0618,-1.0611,-1.0611,-1.0618,-1.0618,-1.0604,-1.0374,-1.008,-0.9879,-0.9744,-0.928,-0.9039,-0.9321,-0.9522,-0.9406,-0.9466,-0.9392,-0.9118,-0.8878,-0.8804,-0.8804,-0.8804,-0.8804,-0.8804,-0.8804,-0.8804,-0.8804,-0.8752,-0.8646,-0.8162,-0.7729,-0.7192,-0.6756,-0.6218,-0.594,-0.5534,-0.5289,-0.4974,-0.4945,-0.5192,-0.5401,-0.5428,-0.5428,-0.5428,-0.5428,-0.5428,-0.5428,-0.5428,-0.5428,-0.5428,-0.5428,-0.5428,-0.5428,-0.5624,-0.5648,-0.5823,-0.6149,-0.6261,-0.6261,-0.6261,-0.6261,-0.6261,-0.6261,-0.6261,-0.6261,-0.6261,-0.6261,-0.6261,-0.6261,-0.6261,-0.6261,-0.6261,-0.6261,-0.6261,-0.6261,-0.6261,-0.6177,-0.6022,-0.555,-0.4616,-0.3448,-0.368,-0.4384,-0.3839,-0.3214,-0.3136,-0.3136,-0.2117,-0.1177,-0.1411,-0.1489,-0.1805,-0.2668,-0.3139,-0.361,-0.4238,-0.4394,-0.4316,-0.4316,-0.4235,-0.3528,-1.4038,-1.4077,-1.4097,-1.4097,-1.4214,-1.4884,-1.5211,-1.508,-1.453,-1.3416,-1.1996,-1.1594,-1.1126,-1.0683,-1.0618,-1.0591,-1.0584,-1.0541,-1.0548,-1.0408,-1.0241,-0.9913,-0.969,-0.9498,-0.92,-0.9125,-0.9339,-0.9272,-0.9152,-0.9312,-0.9292,-0.8925,-0.8824,-0.8804,-0.8804,-0.8804,-0.8804,-0.8804,-0.8804,-0.8804,-0.8804,-0.8804,-0.8639,-0.8374,-0.7996,-0.767,-0.7348,-0.7003,-0.6764,-0.619,-0.5612,-0.524,-0.5113,-0.5243,-0.5304,-0.5428,-0.5428,-0.5428,-0.5428,-0.5428,-0.5428,-0.5428,-0.5428,-0.5428,-0.5428,-0.5428,-0.5428,-0.5439,-0.5466,-0.5566,-0.5966,-0.6234,-0.6234,-0.6297,-0.6297,-0.6217,-0.622,-0.6234,-0.6247,-0.6244,-0.624,-0.6237,-0.6234,-0.6237,-0.6247,-0.6251,-0.6251,-0.6257,-0.6261,-0.6261,-0.6257,-0.618,-0.5944,-0.4854,-0.3765,-0.4075,-0.501,-0.4696,-0.4151,-0.3606,-0.3294,-0.3212,-0.3209,-0.3207,-0.3287,-0.3057,-0.2512,-0.2669,-0.3141,-0.0,-0.3452,-0.353,-0.4479,-0.4318,-0.3608,-1.3828,-1.4087,-1.4077,-1.4068,-1.4121,-1.4277,-1.436,-1.4243,-1.356,-1.2707,-1.1928,-1.1322,-1.0769,-1.0207,-1.0468,-1.053,-1.0301,-1.0401,-1.0341,-1.0194,-1.0053,-0.974,-0.9509,-0.9376,-0.9212,-0.9163,-0.9223,-0.9408,-0.9165,-0.9245,-0.9223,-0.9044,-0.8858,-0.8811,-0.8804,-0.8804,-0.8804,-0.8804,-0.8804,-0.8804,-0.8804,-0.8752,-0.8692,-0.8474,-0.8262,-0.799,-0.7771,-0.7509,-0.7166,-0.6653,-0.5965,-0.5523,-0.5314,-0.5363,-0.5408,-0.5428,-0.5428,-0.5428,-0.5428,-0.5428,-0.5428,-0.5428,-0.5428,-0.5428,-0.5428,-0.5428,-0.5428,-0.5428,-0.5406,-0.5433,-0.5748,-0.6067,-0.6215,-0.6177,-0.616,-0.6078,-0.6074,-0.6142,-0.62,-0.6183,-0.6166,-0.6156,-0.6215,-0.6235,-0.6273,-0.6273,-0.6266,-0.628,-0.6251,-0.6257,-0.624,-0.6069,-0.5983,-0.587,-0.5246,-0.509,-0.5556,-0.5321,-0.5165,-0.4623,-0.4626,-0.5323,-0.524,-0.4304,-0.4457,-0.454,-0.3919,-0.0,-0.0,-0.0,-0.0,-0.2508,-0.0,-0.3851,-0.2826]},{"header":{"parameterUnit":"m.s-1","parameterCategory":1,"la1":31.0,"la2":29.5877,"lo1":-88.7671,"lo2":-86.6584,"dy":0.0162,"dx":0.0185,"nx":115,"ny":88,"refTime":"2026-05-10T12:00:00:Z","depth":0,"parameterNumber":3,"parameterNumberName":"V-component_of_WINDS"},"data":[0.0,0.0,0.0,0.0,0.0,0.0,0.0,0.0,0.0,0.0,0.0,0.0,0.0,0.0,0.0,0.0,0.0,0.0,0.0,0.0,0.0,0.0,0.0,0.0,0.0,0.0,0.0,0.0,0.0,0.0,0.0,0.0,0.0,0.0,0.0,0.0,0.0,0.0,0.0,0.0,0.0,0.0,0.0,0.0,0.0,0.0,0.0,0.0,0.0,0.0,0.0,0.0,0.0,0.0,0.0,0.0,0.0,0.0,0.0,0.0,0.0,0.0,0.0,0.0,0.0,0.0,0.0,0.0,0.0,0.0,0.0,0.0,0.0,0.0,0.0,0.0,0.0,0.0,0.0,0.0,0.0,0.0,0.0,0.0,0.0,0.0,0.0,0.0,0.0,0.0,0.0,0.0,0.0,0.0,0.0,0.0,0.0,0.0,0.0,0.0,0.0,0.0,0.0,0.0,0.0,0.0,0.0,0.0,0.0,0.0,0.0,0.0,0.0,0.0,0.0,0.0,0.0,0.0,0.0,0.0,0.0,0.0,0.0,0.0,0.0,0.0,0.0,0.0,0.0,0.0,0.0,0.0,0.0,0.0,0.0,0.0,0.0,0.0,0.0,0.0,0.0,0.0,0.0,0.0,0.0,0.0,0.0,0.0,0.0,0.0,0.0,0.0,0.0,0.0,0.0,0.0,0.0,0.0,0.0,0.0,0.0,0.0,0.0,0.0,0.0,0.0,0.0,0.0,0.0,0.0,0.0,0.0,0.0,0.0,0.0,0.0,0.0,0.0,0.0,0.0,0.0,0.0,0.0,0.0,0.0,0.0,0.0,0.0,0.0,0.0,0.0,0.0,0.0,0.0,0.0,0.0,0.0,0.0,0.0,0.0,0.0,0.0,0.0,0.0,0.0,0.0,0.0,0.0,0.0,0.0,0.0,0.0,0.0,0.0,0.0,0.0,0.0,0.0,0.0,0.0,0.0,0.0,0.0,0.0,0.0,0.0,0.0,0.0,0.0,0.0,0.0,0.0,0.0,0.0,0.0,0.0,0.0,0.0,0.0,0.0,0.0,0.0,0.0,0.0,0.0,0.0,0.0,0.0,0.0,0.0,0.0,0.0,0.0,0.0,0.0,0.0,0.0,0.0,0.0,0.0,0.0,0.0,0.0,0.0,0.0,0.0,0.0,0.0,0.0,0.0,0.0,0.0,0.0,0.0,0.0,0.0,0.0,0.0,0.0,0.0,0.0,0.0,0.0,0.0,0.0,0.0,0.0,0.0,0.0,0.0,0.0,0.0,0.0,0.0,0.0,0.0,0.0,0.0,0.0,0.0,0.0,0.0,0.0,0.0,0.0,0.0,0.0,0.0,0.0,0.0,0.0,0.0,0.0,0.0,0.0,0.0,0.0,0.0,0.0,0.0,0.0,0.0,0.0,0.0,0.0,0.0,0.0,0.0,0.0,0.0,0.0,0.0,0.0,0.0,0.0,0.0,0.0,0.0,0.0,0.0,0.0,0.0,0.0,0.0,0.0,0.0,0.0,0.0,0.0,0.0,0.0,0.0,0.0,0.0,0.0,0.0,0.0,0.0,0.0,0.0,0.0,0.0,0.0,0.0,0.0,0.0,0.0,0.0,0.0,0.0,0.0,0.0,0.0,0.0,0.0,0.0,0.0,0.0,0.0,0.0,0.0,0.0,0.0,0.0,0.0,0.0,0.0,0.0,0.0,0.0,0.0,0.0,0.0,0.0,0.0,0.0,0.0,0.0,0.0,0.0,0.0,0.0,0.0,0.0,0.0,0.0,0.0,0.0,0.0,0.0,0.0,0.0,0.0,0.0,0.0,0.0,0.0,0.0,0.0,0.0,0.0,0.0,0.0,0.0,0.0,0.0,0.0,0.0,0.0,0.0,0.0,0.0,0.0,0.0,0.0,0.0,0.0,0.0,0.0,0.0,0.0,0.0,0.0,0.0,0.0,0.0,0.0,0.0,0.0,0.0,0.0,0.0,0.0,0.0,0.0,0.0,0.0,0.0,0.0,0.0,0.0,0.0,0.0,0.0,0.0,0.0,0.0,0.0,0.0,0.0,0.0,0.0,0.0,0.0,0.0,0.0,0.0,0.0,0.0,0.0,0.0,0.0,0.0,0.0,0.0,0.0,0.0,0.0,0.0,0.0,0.0,0.0,0.0,0.0,0.0,0.0,0.0,0.0,0.0,0.0,0.0,0.0,0.0,0.0,0.0,0.0,0.0,0.0,0.0,0.0,0.0,0.0,0.0,0.0,0.0,0.0,0.0,0.0,0.0,0.0,0.0,0.0,0.0,0.0,0.0,0.0,0.0,0.0,0.0,0.0,0.0,0.0,0.0,0.0,0.0,0.0,0.0,0.0,0.0,0.0,0.0,0.0,0.0,0.0,0.0,0.0,0.0,0.0,0.0,0.0,0.0,0.0,0.0,0.0,0.0,0.0,0.0,0.0,0.0,0.0,0.0,0.0,0.0,0.0,0.0,0.0,0.0,0.0,0.0,0.0,0.0,0.0,0.0,0.0,0.0,0.0,0.0,0.0,0.0,0.0,0.0,0.0,0.0,0.0,0.0,0.0,0.0,0.0,0.0,0.0,0.0,0.0,0.0,0.0,0.0,0.0,0.0,0.0,0.0,0.0,0.0,0.0,0.0,0.0,0.0,0.0,0.0,0.0,0.0,0.0,0.0,0.0,0.0,0.0,0.0,0.0,0.0,0.0,0.0,0.0,0.0,0.0,0.0,0.0,0.0,0.0,0.0,0.0,0.0,0.0,0.0,0.0,0.0,0.0,0.0,0.0,0.0,0.0,0.0,0.0,0.0,0.0,0.0,0.0,0.0,0.0,0.0,0.0,0.0,0.0,0.0,0.0,0.0,0.0,0.0,0.0,0.0,0.0,0.0,0.0,0.0,0.0,0.0,0.0,0.0,0.0,0.0,0.0,0.0,0.0,0.0,0.0,0.0,0.0,0.0,0.0,0.0,0.0,0.0,0.0,0.0,0.0,0.0,0.0,0.0,0.0,0.0,0.0,0.0,0.0,0.0,0.0,0.0,0.0,0.0,0.0,0.0,0.0,0.0,0.0,0.0,0.0,0.0,0.0,0.0,0.0,0.0,0.0,0.0,0.0,0.0,0.0,0.0,0.0,0.0,0.0,0.0,0.0,0.0,0.0,0.0,0.0,0.0,0.0,0.0,0.0,0.0,0.0,0.0,0.0,0.0,0.0,0.0,0.0,0.0,0.0,0.0,0.0,0.0,0.0,0.0,0.0,0.0,0.0,0.0,0.0,0.0,0.0,0.0,0.0,0.0,0.0,0.0,0.0,0.0,0.0,0.0,0.0,0.0,0.0,0.0,0.0,0.0,0.0,0.0,0.0,0.0,0.0,0.0,0.0,0.0,0.0,0.0,0.0,0.0,0.0,0.0,0.0,0.0,0.0,0.0,0.0,0.0,0.0,0.0,0.0,0.0,0.0,0.0,0.0,0.0,0.0,0.0,0.0,0.0,0.0,0.0,0.0,0.0,0.0,0.0,0.0,0.0,0.0,0.0,0.0,0.0,0.0,0.0,0.0,0.0,0.0,0.0,0.0,0.0,0.0,0.0,0.0,0.0,0.0,0.0,0.0,0.0,0.0,0.0,0.0,0.0,0.0,0.0,0.0,0.0,0.0,0.0,0.0,0.0,0.0,0.0,0.0,0.0,0.0,0.0,0.0,0.0,0.0,0.0,0.0,0.0,0.0,0.0,0.0,0.0,0.0,0.0,0.0,0.0,0.0,0.0,0.0,0.0,0.0,0.0,0.0,0.0,0.0,0.0,0.0,0.0,0.0,0.0,0.0,0.0,0.0,0.0,0.0,0.0,0.0,0.0,0.0,0.0,0.0,0.0,0.0,0.0,0.0,0.0,0.0,0.0,0.0,0.0,0.0,0.0,0.0,0.0,0.0,0.0,0.0,0.0,0.0,0.0,0.0,0.0,0.0,0.0,0.0,0.0,0.0,0.0,0.0,0.0,0.0,0.0,0.0,0.0,0.0,0.0,0.0,0.0,0.0,0.0,0.0,0.0,0.0,0.0,0.0,0.0,0.0,0.0,0.0,0.0,0.0,0.0,0.0,0.0,0.0,0.0,0.0,0.0,0.0,0.0,0.0,0.0,0.0,0.0,0.0,0.0,0.0,0.0,0.0,0.0,0.0,0.0,0.0,0.0,0.0,0.0,0.0,0.0,0.0,0.0,0.0,0.0,0.0,0.0,0.0,0.0,0.0,-1.0315,0.0,0.0,0.0,0.0,0.0,0.0,0.0,0.0,0.0,0.0,0.0,0.0,0.0,0.0,0.0,0.0,0.0,0.0,0.0,0.0,0.0,0.0,0.0,0.0,0.0,0.0,0.0,0.0,0.0,0.0,0.0,0.0,0.0,0.0,0.0,0.0,0.0,0.0,0.0,0.0,0.0,0.0,0.0,0.0,0.0,0.0,0.0,0.0,0.0,0.0,0.0,0.0,0.0,0.0,0.0,0.0,0.0,0.0,0.0,0.0,0.0,0.0,0.0,0.0,0.0,0.0,0.0,0.0,0.0,0.0,0.0,0.0,0.0,0.0,0.0,0.0,0.0,0.0,0.0,0.0,0.0,0.0,0.0,0.0,0.0,0.0,0.0,0.0,0.0,0.0,0.0,0.0,0.0,0.0,0.0,0.0,0.0,0.0,0.0,0.0,0.0,0.0,0.0,0.0,0.0,0.0,0.0,0.0,0.0,0.0,-1.0312,-1.0306,-1.032,-1.0281,-1.0252,0.0,0.0,0.0,0.0,0.0,0.0,0.0,0.0,0.0,0.0,0.0,0.0,0.0,0.0,0.0,0.0,0.0,0.0,0.0,0.0,0.0,0.0,0.0,0.0,0.0,0.0,0.0,0.0,0.0,0.0,0.0,0.0,0.0,0.0,0.0,0.0,0.0,0.0,0.0,0.0,0.0,0.0,0.0,0.0,0.0,0.0,0.0,0.0,0.0,0.0,0.0,0.0,0.0,0.0,0.0,0.0,0.0,0.0,0.0,0.0,0.0,0.0,0.0,0.0,0.0,0.0,0.0,0.0,0.0,0.0,0.0,0.0,0.0,0.0,0.0,0.0,0.0,0.0,0.0,0.0,0.0,0.0,0.0,0.0,0.0,0.0,0.0,0.0,0.0,0.0,0.0,0.0,0.0,0.0,0.0,0.0,0.0,0.0,0.0,0.0,0.0,0.0,0.0,0.0,0.0,0.0,0.0,0.0,0.0,0.0,0.0,0.0,-1.0412,-1.0269,-1.0196,0.0,0.0,0.0,0.0,0.0,0.0,0.0,0.0,0.0,0.0,0.0,0.0,0.0,0.0,0.0,0.0,0.0,0.0,0.0,0.0,0.0,0.0,0.0,0.0,0.0,0.0,0.0,0.0,0.0,0.0,0.0,0.0,0.0,0.0,0.0,0.0,0.0,0.0,0.0,0.0,0.0,0.0,0.0,0.0,0.0,0.0,0.0,0.0,0.0,0.0,0.0,0.0,0.0,0.0,0.0,0.0,0.0,0.0,0.0,0.0,0.0,0.0,0.0,0.0,0.0,0.0,0.0,0.0,0.0,0.0,0.0,0.0,0.0,0.0,0.0,0.0,0.0,0.0,0.0,0.0,0.0,0.0,0.0,0.0,0.0,0.0,0.0,0.0,0.0,0.0,0.0,0.0,0.0,0.0,0.0,0.0,0.0,0.0,0.0,0.0,0.0,0.0,0.0,0.0,0.0,0.0,0.0,0.0,0.0,0.0,-1.0663,-1.1437,-1.0734,0.0,-1.0209,0.0,0.0,0.0,0.0,0.0,0.0,0.0,0.0,0.0,0.0,0.0,0.0,0.0,0.0,0.0,0.0,0.0,0.0,0.0,0.0,0.0,0.0,0.0,0.0,0.0,0.0,0.0,0.0,0.0,0.0,0.0,0.0,0.0,0.0,0.0,0.0,0.0,0.0,0.0,0.0,0.0,0.0,0.0,0.0,0.0,0.0,0.0,0.0,0.0,0.0,0.0,0.0,0.0,0.0,0.0,0.0,0.0,0.0,0.0,0.0,0.0,0.0,0.0,0.0,0.0,0.0,0.0,0.0,0.0,0.0,0.0,0.0,0.0,0.0,0.0,0.0,0.0,0.0,0.0,0.0,0.0,0.0,0.0,0.0,0.0,0.0,0.0,0.0,0.0,0.0,0.0,0.0,0.0,0.0,0.0,0.0,0.0,0.0,0.0,0.0,0.0,0.0,0.0,0.0,0.0,0.0,0.0,0.0,0.0,0.0,0.0,-1.2355,-1.1988,-1.1538,0.0,0.0,0.0,0.0,0.0,0.0,0.0,0.0,0.0,0.0,0.0,0.0,0.0,0.0,0.0,0.0,0.0,0.0,0.0,0.0,0.0,0.0,0.0,0.0,0.0,0.0,0.0,0.0,0.0,0.0,0.0,0.0,0.0,0.0,0.0,0.0,0.0,0.0,0.0,0.0,0.0,0.0,0.0,0.0,0.0,0.0,0.0,0.0,0.0,0.0,0.0,0.0,0.0,0.0,0.0,0.0,0.0,0.0,0.0,0.0,0.0,0.0,0.0,0.0,0.0,0.0,0.0,0.0,0.0,0.0,0.0,0.0,0.0,0.0,0.0,0.0,0.0,0.0,0.0,0.0,0.0,0.0,0.0,0.0,0.0,0.0,0.0,0.0,0.0,0.0,0.0,0.0,0.0,0.0,0.0,0.0,0.0,0.0,0.0,0.0,0.0,0.0,0.0,0.0,0.0,0.0,0.0,0.0,0.0,0.0,-1.0917,0.0,-1.2154,-1.2589,-1.2287,-1.1188,0.0,0.0,0.0,0.0,0.0,0.0,0.0,0.0,0.0,0.0,0.0,0.0,0.0,0.0,0.0,0.0,0.0,0.0,0.0,0.0,0.0,0.0,0.0,0.0,0.0,0.0,0.0,0.0,0.0,0.0,0.0,0.0,0.0,0.0,0.0,0.0,0.0,0.0,0.0,0.0,0.0,0.0,0.0,0.0,0.0,0.0,0.0,0.0,0.0,0.0,0.0,0.0,0.0,0.0,0.0,0.0,0.0,0.0,0.0,0.0,0.0,0.0,0.0,0.0,0.0,0.0,0.0,0.0,0.0,0.0,0.0,0.0,0.0,0.0,0.0,0.0,0.0,0.0,0.0,0.0,0.0,0.0,0.0,0.0,0.0,0.0,0.0,0.0,0.0,0.0,0.0,0.0,0.0,0.0,0.0,0.0,0.0,0.0,0.0,0.0,0.0,0.0,0.0,0.0,0.0,0.0,0.0,0.0,0.0,-1.0383,-1.0397,-1.0537,-1.196,-1.1993,0.0,0.0,0.0,0.0,0.0,0.0,0.0,0.0,0.0,0.0,0.0,0.0,0.0,0.0,0.0,0.0,0.0,0.0,0.0,0.0,0.0,0.0,0.0,0.0,0.0,0.0,0.0,0.0,0.0,0.0,0.0,0.0,0.0,0.0,0.0,0.0,0.0,0.0,0.0,0.0,0.0,0.0,0.0,0.0,0.0,0.0,0.0,0.0,0.0,0.0,0.0,0.0,0.0,0.0,0.0,0.0,0.0,0.0,0.0,0.0,0.0,0.0,0.0,0.0,0.0,0.0,0.0,0.0,0.0,0.0,0.0,0.0,0.0,0.0,0.0,0.0,0.0,0.0,0.0,0.0,0.0,0.0,0.0,0.0,0.0,0.0,0.0,0.0,0.0,0.0,0.0,0.0,0.0,0.0,0.0,0.0,0.0,0.0,0.0,0.0,0.0,0.0,0.0,0.0,0.0,0.0,0.0,0.0,0.0,-1.0354,-1.1337,-1.1912,-1.1903,-1.2449,-1.1941,0.0,0.0,0.0,0.0,0.0,0.0,0.0,0.0,0.0,0.0,0.0,0.0,0.0,0.0,0.0,0.0,0.0,0.0,0.0,0.0,0.0,0.0,0.0,0.0,0.0,0.0,0.0,0.0,0.0,0.0,0.0,0.0,0.0,0.0,0.0,0.0,0.0,0.0,0.0,0.0,0.0,0.0,0.0,0.0,0.0,0.0,0.0,0.0,0.0,0.0,0.0,0.0,0.0,0.0,0.0,0.0,0.0,0.0,0.0,0.0,0.0,0.0,0.0,0.0,0.0,0.0,0.0,0.0,0.0,0.0,0.0,0.0,0.0,0.0,0.0,0.0,0.0,0.0,0.0,0.0,0.0,0.0,0.0,0.0,0.0,0.0,0.0,0.0,0.0,0.0,0.0,0.0,0.0,0.0,0.0,0.0,0.0,0.0,0.0,0.0,0.0,0.0,0.0,0.0,0.0,0.0,0.0,0.0,0.0,-1.0732,0.0,-1.2969,0.0,-1.2594,-1.191,0.0,0.0,0.0,0.0,0.0,0.0,0.0,0.0,0.0,0.0,0.0,0.0,0.0,0.0,0.0,0.0,0.0,0.0,0.0,0.0,0.0,0.0,0.0,0.0,0.0,0.0,0.0,0.0,0.0,0.0,0.0,0.0,0.0,0.0,0.0,0.0,0.0,0.0,0.0,0.0,0.0,0.0,0.0,0.0,0.0,0.0,0.0,0.0,0.0,0.0,0.0,0.0,0.0,0.0,0.0,0.0,0.0,0.0,0.0,0.0,0.0,0.0,0.0,0.0,0.0,0.0,0.0,0.0,0.0,0.0,0.0,0.0,0.0,0.0,0.0,0.0,0.0,0.0,0.0,0.0,0.0,0.0,0.0,0.0,0.0,0.0,0.0,0.0,0.0,0.0,0.0,0.0,0.0,0.0,0.0,0.0,0.0,0.0,0.0,0.0,0.0,0.0,0.0,0.0,0.0,0.0,0.0,0.0,-1.0725,-1.156,-1.3186,-1.3286,-1.1631,-1.2289,-1.186,0.0,0.0,0.0,0.0,0.0,0.0,0.0,0.0,0.0,0.0,0.0,0.0,0.0,0.0,0.0,0.0,0.0,0.0,0.0,0.0,0.0,0.0,0.0,0.0,0.0,0.0,0.0,0.0,0.0,0.0,0.0,0.0,0.0,0.0,0.0,0.0,0.0,0.0,0.0,0.0,0.0,0.0,0.0,0.0,0.0,0.0,0.0,0.0,0.0,0.0,0.0,0.0,0.0,0.0,0.0,0.0,0.0,0.0,0.0,0.0,0.0,0.0,0.0,0.0,0.0,0.0,0.0,0.0,0.0,0.0,0.0,0.0,0.0,0.0,0.0,0.0,0.0,0.0,0.0,0.0,0.0,0.0,0.0,0.0,0.0,0.0,0.0,0.0,0.0,0.0,0.0,0.0,0.0,0.0,0.0,0.0,0.0,0.0,0.0,0.0,0.0,0.0,0.0,0.0,0.0,0.0,0.0,0.0,0.0,-1.327,-1.3768,-1.3769,-1.3236,-1.2288,-1.1269,0.0,0.0,0.0,0.0,0.0,0.0,0.0,0.0,0.0,0.0,0.0,0.0,0.0,0.0,0.0,0.0,0.0,0.0,0.0,0.0,0.0,0.0,0.0,0.0,0.0,0.0,0.0,0.0,0.0,0.0,0.0,0.0,0.0,0.0,0.0,0.0,0.0,0.0,0.0,0.0,0.0,0.0,0.0,0.0,0.0,0.0,0.0,0.0,0.0,0.0,0.0,0.0,0.0,0.0,0.0,0.0,0.0,0.0,0.0,0.0,0.0,0.0,0.0,0.0,0.0,0.0,0.0,0.0,0.0,0.0,0.0,0.0,0.0,0.0,0.0,0.0,0.0,0.0,0.0,0.0,0.0,0.0,0.0,0.0,0.0,0.0,0.0,0.0,0.0,0.0,0.0,0.0,0.0,0.0,0.0,0.0,0.0,0.0,0.0,0.0,0.0,0.0,0.0,0.0,0.0,0.0,0.0,0.0,0.0,-1.54,-1.5639,-1.5309,-1.4482,-1.3383,-1.2098,-1.0656,0.0,0.0,0.0,0.0,0.0,0.0,0.0,0.0,0.0,0.0,0.0,0.0,0.0,0.0,0.0,0.0,0.0,0.0,0.0,0.0,0.0,0.0,0.0,0.0,0.0,0.0,0.0,0.0,0.0,0.0,0.0,0.0,0.0,0.0,0.0,0.0,0.0,0.0,0.0,0.0,0.0,0.0,0.0,0.0,0.0,0.0,0.0,0.0,0.0,0.0,0.0,0.0,0.0,0.0,0.0,0.0,0.0,0.0,0.0,0.0,0.0,0.0,0.0,0.0,0.0,0.0,0.0,0.0,0.0,0.0,0.0,0.0,0.0,0.0,0.0,0.0,0.0,0.0,0.0,0.0,0.0,0.0,0.0,0.0,0.0,0.0,0.0,0.0,0.0,0.0,0.0,0.0,0.0,0.0,0.0,0.0,0.0,0.0,0.0,0.0,0.0,0.0,0.0,0.0,0.0,0.0,0.0,0.0,-1.7817,-1.8467,-1.7727,-1.5513,-1.5265,-1.408,0.0,0.0,0.0,0.0,0.0,0.0,0.0,0.0,0.0,0.0,0.0,0.0,0.0,0.0,0.0,0.0,0.0,0.0,0.0,0.0,0.0,0.0,0.0,0.0,0.0,0.0,0.0,0.0,0.0,0.0,0.0,0.0,0.0,0.0,0.0,0.0,0.0,0.0,0.0,0.0,0.0,0.0,0.0,0.0,0.0,0.0,0.0,0.0,0.0,0.0,0.0,0.0,0.0,0.0,0.0,0.0,0.0,0.0,0.0,0.0,0.0,0.0,0.0,0.0,0.0,0.0,0.0,0.0,0.0,0.0,0.0,0.0,0.0,0.0,0.0,0.0,0.0,0.0,0.0,0.0,0.0,0.0,0.0,0.0,0.0,0.0,0.0,0.0,0.0,0.0,0.0,0.0,0.0,0.0,0.0,0.0,0.0,0.0,0.0,0.0,0.0,0.0,0.0,0.0,0.0,0.0,0.0,0.0,0.0,-1.8596,-2.0284,-2.0115,-1.8036,-1.6176,-1.4901,0.0,0.0,0.0,0.0,0.0,0.0,0.0,0.0,0.0,0.0,0.0,0.0,0.0,0.0,0.0,0.0,0.0,0.0,0.0,0.0,0.0,0.0,0.0,0.0,0.0,0.0,0.0,0.0,0.0,0.0,0.0,0.0,0.0,0.0,0.0,0.0,0.0,0.0,0.0,0.0,0.0,0.0,0.0,0.0,0.0,0.0,0.0,0.0,0.0,0.0,0.0,0.0,0.0,0.0,0.0,0.0,0.0,0.0,0.0,0.0,0.0,0.0,0.0,0.0,0.0,0.0,0.0,0.0,0.0,0.0,0.0,0.0,0.0,0.0,0.0,0.0,0.0,0.0,0.0,0.0,0.0,0.0,0.0,0.0,0.0,0.0,0.0,0.0,0.0,0.0,0.0,0.0,0.0,0.0,0.0,0.0,0.0,0.0,0.0,0.0,0.0,0.0,0.0,0.0,0.0,0.0,0.0,0.0,-1.7587,-1.9519,-2.16,-2.1831,-2.01,-1.7946,-1.6285,0.0,0.0,0.0,0.0,0.0,0.0,0.0,0.0,0.0,0.0,0.0,0.0,0.0,0.0,0.0,0.0,0.0,0.0,0.0,0.0,0.0,0.0,0.0,0.0,0.0,0.0,0.0,0.0,0.0,0.0,0.0,0.0,0.0,0.0,0.0,0.0,0.0,0.0,0.0,0.0,0.0,0.0,0.0,0.0,0.0,0.0,0.0,0.0,0.0,0.0,0.0,0.0,0.0,0.0,0.0,0.0,0.0,0.0,0.0,0.0,0.0,0.0,0.0,0.0,0.0,0.0,0.0,0.0,0.0,0.0,0.0,0.0,0.0,0.0,0.0,0.0,0.0,0.0,0.0,0.0,0.0,0.0,0.0,0.0,0.0,0.0,0.0,0.0,0.0,0.0,0.0,0.0,0.0,0.0,0.0,0.0,0.0,0.0,0.0,0.0,0.0,0.0,0.0,0.0,0.0,0.0,0.0,0.0,-1.9227,-2.0419,-2.2534,-2.2966,-2.1543,-1.9958,-1.7977,0.0,0.0,0.0,0.0,0.0,0.0,0.0,0.0,0.0,0.0,0.0,0.0,0.0,0.0,0.0,0.0,0.0,0.0,0.0,0.0,0.0,0.0,0.0,0.0,0.0,0.0,0.0,0.0,0.0,0.0,0.0,0.0,0.0,0.0,0.0,0.0,0.0,0.0,0.0,0.0,0.0,0.0,0.0,0.0,0.0,0.0,0.0,0.0,0.0,0.0,0.0,0.0,0.0,0.0,0.0,0.0,0.0,0.0,0.0,0.0,0.0,0.0,0.0,0.0,0.0,0.0,0.0,0.0,0.0,0.0,0.0,0.0,0.0,0.0,0.0,0.0,0.0,0.0,0.0,0.0,0.0,0.0,0.0,0.0,0.0,0.0,0.0,0.0,0.0,0.0,0.0,0.0,0.0,0.0,0.0,0.0,0.0,0.0,0.0,0.0,0.0,0.0,0.0,0.0,0.0,0.0,0.0,0.0,-1.9665,-2.1235,-2.3043,-2.3197,-2.1543,-2.0534,-1.9119,0.0,0.0,0.0,0.0,0.0,0.0,0.0,0.0,0.0,0.0,0.0,0.0,0.0,0.0,0.0,0.0,0.0,0.0,0.0,0.0,0.0,0.0,0.0,0.0,0.0,0.0,0.0,0.0,0.0,0.0,0.0,0.0,0.0,0.0,0.0,0.0,0.0,0.0,0.0,0.0,0.0,0.0,0.0,0.0,0.0,0.0,0.0,0.0,-1.8785,0.0,0.0,0.0,0.0,0.0,0.0,0.0,0.0,0.0,0.0,0.0,0.0,0.0,0.0,0.0,0.0,0.0,0.0,0.0,0.0,0.0,0.0,0.0,0.0,0.0,0.0,0.0,0.0,0.0,0.0,0.0,0.0,0.0,0.0,0.0,0.0,0.0,0.0,0.0,0.0,0.0,0.0,0.0,0.0,0.0,0.0,0.0,0.0,0.0,0.0,0.0,0.0,0.0,0.0,0.0,0.0,0.0,0.0,0.0,-2.0808,-2.21,-2.3793,-2.3851,-2.2197,-2.1696,-2.0292,0.0,0.0,0.0,0.0,0.0,0.0,0.0,0.0,0.0,0.0,0.0,0.0,0.0,0.0,0.0,0.0,0.0,0.0,0.0,0.0,0.0,0.0,0.0,0.0,0.0,0.0,0.0,0.0,0.0,0.0,0.0,0.0,0.0,0.0,0.0,0.0,0.0,0.0,0.0,0.0,0.0,0.0,0.0,0.0,0.0,0.0,0.0,0.0,0.0,0.0,0.0,0.0,0.0,0.0,0.0,0.0,0.0,0.0,0.0,0.0,0.0,0.0,0.0,0.0,0.0,0.0,0.0,0.0,0.0,0.0,0.0,0.0,0.0,0.0,0.0,0.0,0.0,0.0,0.0,0.0,0.0,0.0,0.0,0.0,0.0,0.0,0.0,0.0,0.0,0.0,0.0,0.0,0.0,0.0,0.0,0.0,0.0,0.0,0.0,0.0,0.0,0.0,0.0,0.0,0.0,0.0,0.0,-1.9887,-2.1905,-2.2821,-2.4447,-2.4524,-2.2851,-2.2677,-2.1062,-1.7811,0.0,0.0,0.0,0.0,0.0,0.0,0.0,0.0,0.0,0.0,0.0,0.0,0.0,0.0,0.0,0.0,0.0,0.0,0.0,0.0,0.0,0.0,0.0,0.0,0.0,0.0,0.0,0.0,0.0,0.0,0.0,0.0,0.0,0.0,0.0,0.0,0.0,0.0,-1.5195,-1.615,0.0,0.0,0.0,0.0,0.0,0.0,0.0,0.0,-1.7099,0.0,0.0,0.0,0.0,0.0,0.0,0.0,0.0,0.0,0.0,0.0,0.0,0.0,0.0,0.0,0.0,0.0,0.0,0.0,0.0,0.0,0.0,0.0,0.0,0.0,0.0,0.0,0.0,0.0,0.0,0.0,0.0,0.0,0.0,0.0,0.0,0.0,0.0,0.0,0.0,0.0,0.0,0.0,0.0,0.0,0.0,0.0,0.0,0.0,0.0,0.0,0.0,0.0,0.0,0.0,0.0,-1.7568,-2.0154,-2.1908,-2.2793,-2.4428,-2.4505,-2.2851,-2.2081,-2.0446,-1.7811,0.0,0.0,0.0,0.0,0.0,0.0,0.0,0.0,0.0,0.0,0.0,0.0,0.0,0.0,0.0,0.0,0.0,0.0,0.0,0.0,0.0,0.0,0.0,0.0,0.0,0.0,0.0,0.0,0.0,0.0,0.0,0.0,0.0,0.0,0.0,0.0,0.0,0.0,0.0,-1.6976,-1.7528,0.0,0.0,0.0,0.0,0.0,0.0,0.0,0.0,-1.5195,0.0,0.0,0.0,0.0,0.0,0.0,0.0,0.0,0.0,0.0,0.0,0.0,0.0,0.0,0.0,0.0,0.0,0.0,0.0,0.0,0.0,0.0,0.0,0.0,0.0,0.0,0.0,0.0,0.0,0.0,0.0,0.0,0.0,0.0,0.0,0.0,0.0,0.0,0.0,0.0,0.0,0.0,0.0,0.0,0.0,0.0,0.0,0.0,0.0,0.0,0.0,0.0,0.0,0.0,0.0,-1.7767,-2.0674,-2.2378,-2.2831,-2.4447,-2.4505,-2.2851,-2.1966,-2.01,0.0,0.0,0.0,0.0,0.0,0.0,0.0,0.0,0.0,0.0,0.0,0.0,0.0,0.0,0.0,0.0,0.0,0.0,0.0,0.0,0.0,0.0,0.0,0.0,0.0,0.0,0.0,0.0,0.0,0.0,0.0,0.0,0.0,0.0,0.0,0.0,0.0,0.0,0.0,0.0,-1.8236,-1.9054,-1.9062,0.0,0.0,0.0,0.0,0.0,0.0,-1.5766,-1.5195,0.0,0.0,0.0,0.0,0.0,0.0,0.0,0.0,0.0,0.0,0.0,0.0,0.0,0.0,0.0,0.0,0.0,0.0,0.0,0.0,0.0,0.0,0.0,0.0,0.0,0.0,0.0,0.0,0.0,0.0,0.0,0.0,0.0,0.0,0.0,0.0,0.0,0.0,0.0,0.0,0.0,0.0,0.0,0.0,0.0,0.0,0.0,0.0,0.0,0.0,0.0,0.0,0.0,0.0,0.0,-1.776,-2.1059,-2.2802,-2.2851,-2.4428,-2.4505,-2.284,-2.1793,-1.9754,0.0,0.0,0.0,0.0,0.0,0.0,0.0,0.0,0.0,0.0,0.0,0.0,0.0,0.0,0.0,0.0,0.0,0.0,0.0,0.0,0.0,0.0,0.0,0.0,0.0,0.0,0.0,0.0,0.0,0.0,0.0,0.0,0.0,0.0,0.0,0.0,0.0,0.0,0.0,0.0,0.0,-2.0422,-2.0765,-2.0507,0.0,0.0,0.0,0.0,-1.8607,-1.733,0.0,0.0,0.0,0.0,0.0,0.0,0.0,0.0,0.0,0.0,0.0,0.0,0.0,0.0,0.0,0.0,0.0,0.0,0.0,0.0,0.0,0.0,0.0,0.0,0.0,0.0,0.0,0.0,0.0,0.0,0.0,0.0,0.0,0.0,0.0,0.0,0.0,0.0,0.0,0.0,0.0,0.0,0.0,0.0,0.0,0.0,0.0,0.0,0.0,0.0,0.0,0.0,0.0,0.0,0.0,0.0,-1.7753,-2.1062,-2.2793,-2.287,-2.4428,-2.4505,-2.2831,-2.1254,-1.9215,0.0,0.0,0.0,0.0,0.0,0.0,0.0,0.0,0.0,0.0,0.0,0.0,0.0,0.0,0.0,0.0,0.0,0.0,0.0,0.0,0.0,0.0,0.0,0.0,0.0,0.0,0.0,0.0,0.0,0.0,0.0,0.0,0.0,0.0,0.0,0.0,0.0,0.0,0.0,0.0,0.0,-2.0831,-2.2307,-2.124,-2.0735,0.0,0.0,-1.8761,-2.1735,-2.0792,0.0,0.0,0.0,0.0,0.0,0.0,0.0,0.0,0.0,0.0,0.0,0.0,0.0,0.0,0.0,0.0,0.0,0.0,0.0,0.0,0.0,0.0,0.0,0.0,0.0,0.0,0.0,0.0,0.0,0.0,0.0,0.0,0.0,0.0,0.0,0.0,0.0,0.0,0.0,0.0,0.0,0.0,0.0,0.0,0.0,0.0,0.0,0.0,0.0,0.0,0.0,0.0,0.0,0.0,0.0,-1.6016,-1.7734,-2.107,-2.2793,-2.2831,-2.4447,-2.4505,-2.284,-2.162,-1.9581,0.0,0.0,0.0,0.0,0.0,0.0,0.0,0.0,0.0,0.0,0.0,0.0,0.0,0.0,0.0,0.0,0.0,0.0,0.0,0.0,0.0,0.0,0.0,0.0,0.0,0.0,0.0,0.0,0.0,0.0,0.0,0.0,0.0,0.0,0.0,0.0,0.0,0.0,0.0,0.0,0.0,0.0,-2.27,-2.2604,0.0,0.0,0.0,-2.1108,-2.2581,0.0,0.0,0.0,0.0,0.0,0.0,0.0,0.0,0.0,0.0,0.0,0.0,0.0,0.0,0.0,0.0,0.0,0.0,0.0,0.0,0.0,0.0,0.0,0.0,0.0,0.0,0.0,0.0,0.0,0.0,0.0,0.0,0.0,0.0,0.0,0.0,0.0,0.0,0.0,0.0,0.0,0.0,0.0,0.0,0.0,0.0,0.0,0.0,0.0,0.0,0.0,0.0,0.0,0.0,0.0,0.0,0.0,-1.7722,-2.107,-2.2793,-2.2831,-2.4447,-2.4505,-2.2851,-2.1966,0.0,0.0,0.0,0.0,0.0,0.0,0.0,0.0,0.0,0.0,0.0,0.0,0.0,0.0,0.0,0.0,0.0,0.0,0.0,0.0,0.0,0.0,0.0,0.0,0.0,0.0,0.0,-0.8316,0.0,0.0,0.0,0.0,0.0,0.0,0.0,0.0,0.0,0.0,0.0,0.0,0.0,0.0,-2.2789,-2.2796,-2.3477,-2.3832,0.0,0.0,-2.262,-2.3898,-2.2658,-2.1246,0.0,0.0,0.0,0.0,0.0,0.0,0.0,0.0,0.0,0.0,0.0,0.0,0.0,0.0,0.0,0.0,0.0,0.0,0.0,0.0,0.0,0.0,0.0,0.0,0.0,0.0,0.0,0.0,0.0,0.0,0.0,0.0,0.0,0.0,0.0,0.0,0.0,0.0,0.0,0.0,0.0,0.0,0.0,0.0,0.0,0.0,0.0,0.0,0.0,0.0,0.0,0.0,0.0,0.0,0.0,-1.7741,-2.1062,-2.2793,-2.2831,-2.4447,-2.4505,-2.2851,-2.1966,-1.9946,0.0,0.0,0.0,0.0,0.0,0.0,0.0,0.0,0.0,0.0,0.0,0.0,0.0,0.0,0.0,0.0,0.0,0.0,0.0,0.0,0.0,0.0,0.0,0.0,0.0,0.0,0.0,0.0,0.0,0.0,0.0,0.0,0.0,0.0,0.0,0.0,0.0,0.0,0.0,0.0,0.0,-2.2808,-2.2796,-2.3285,-2.3995,0.0,0.0,-2.21,-2.6813,-2.6063,-2.3899,-2.0812,0.0,0.0,0.0,0.0,0.0,0.0,0.0,0.0,0.0,0.0,0.0,0.0,0.0,0.0,0.0,0.0,0.0,0.0,0.0,0.0,0.0,0.0,0.0,0.0,0.0,0.0,0.0,0.0,0.0,0.0,0.0,0.0,0.0,0.0,0.0,0.0,0.0,0.0,0.0,0.0,0.0,0.0,0.0,0.0,0.0,0.0,0.0,0.0,0.0,0.0,0.0,0.0,0.0,-1.6042,-1.7702,-2.1062,-2.2793,-2.2851,-2.4428,-2.4485,-2.2831,-2.2466,-2.0696,0.0,0.0,0.0,0.0,0.0,0.0,0.0,0.0,0.0,0.0,0.0,0.0,0.0,0.0,0.0,0.0,0.0,0.0,0.0,0.0,0.0,0.0,0.0,0.0,0.0,0.0,0.0,0.0,-1.0567,-1.0233,-0.971,0.0,0.0,0.0,0.0,0.0,0.0,0.0,0.0,0.0,0.0,-2.3407,-2.2892,-2.4312,0.0,0.0,-2.4909,-2.4418,-2.7428,-2.6447,-2.4168,-2.0842,-2.0292,0.0,0.0,0.0,0.0,0.0,0.0,0.0,0.0,0.0,0.0,0.0,0.0,0.0,0.0,0.0,0.0,0.0,0.0,0.0,0.0,0.0,0.0,0.0,0.0,0.0,0.0,0.0,0.0,0.0,0.0,0.0,0.0,0.0,0.0,0.0,0.0,0.0,0.0,0.0,0.0,0.0,0.0,0.0,0.0,0.0,0.0,0.0,0.0,0.0,0.0,0.0,0.0,-1.6022,-1.7696,-2.107,-2.2793,-2.2793,-2.4447,-2.4505,-2.2889,-2.2793,-2.1196,0.0,0.0,0.0,0.0,0.0,0.0,0.0,0.0,0.0,0.0,0.0,0.0,0.0,0.0,0.0,0.0,0.0,0.0,0.0,0.0,0.0,0.0,0.0,0.0,0.0,0.0,0.0,0.0,-1.1921,-1.1271,-1.0929,0.0,0.0,0.0,0.0,0.0,0.0,0.0,0.0,0.0,0.0,-2.4427,-2.434,-2.5974,-2.7381,-2.7832,-2.7294,-2.7082,-2.7794,-2.6447,-2.4149,-2.0831,0.0,0.0,0.0,0.0,0.0,0.0,0.0,0.0,0.0,0.0,0.0,0.0,0.0,0.0,0.0,0.0,0.0,0.0,0.0,0.0,0.0,0.0,0.0,0.0,0.0,0.0,0.0,0.0,0.0,0.0,-1.0155,0.0,0.0,0.0,0.0,0.0,0.0,0.0,0.0,0.0,0.0,0.0,0.0,0.0,0.0,0.0,0.0,0.0,0.0,0.0,0.0,0.0,0.0,-1.6022,-1.7715,-2.1089,-2.2793,-2.2831,-2.4428,-2.4485,-2.287,-2.2793,-2.1205,-1.7792,0.0,0.0,0.0,0.0,0.0,0.0,0.0,0.0,0.0,0.0,0.0,0.0,0.0,0.0,0.0,0.0,0.0,0.0,0.0,0.0,0.0,0.0,0.0,0.0,0.0,0.0,-1.2888,-1.1954,-1.1752,0.0,0.0,0.0,0.0,0.0,0.0,0.0,0.0,0.0,0.0,-2.4229,-2.589,-2.7497,-2.8265,-2.8461,-2.8025,-2.9217,-2.9698,-2.8179,-2.6467,-2.4149,0.0,0.0,0.0,0.0,0.0,0.0,0.0,0.0,0.0,0.0,0.0,0.0,0.0,0.0,0.0,0.0,0.0,0.0,0.0,0.0,0.0,0.0,0.0,0.0,0.0,0.0,0.0,-1.184,-1.1857,0.0,0.0,0.0,0.0,0.0,0.0,0.0,0.0,0.0,0.0,0.0,-1.7129,-1.7129,0.0,0.0,0.0,0.0,0.0,0.0,0.0,0.0,0.0,0.0,0.0,0.0,-1.6022,-1.7753,-2.1062,-2.2793,-2.284,-2.3889,-2.3966,-2.2831,-2.2235,-2.06,-1.7792,0.0,0.0,0.0,0.0,0.0,0.0,0.0,0.0,0.0,0.0,0.0,0.0,0.0,0.0,0.0,0.0,0.0,0.0,0.0,0.0,0.0,0.0,0.0,0.0,0.0,-1.4741,0.0,0.0,0.0,0.0,0.0,0.0,0.0,0.0,0.0,0.0,0.0,-2.3638,-2.5898,-2.6187,-2.6583,-2.7727,-2.8514,-2.9125,0.0,0.0,0.0,0.0,0.0,0.0,0.0,0.0,0.0,0.0,0.0,0.0,0.0,0.0,-2.8779,-2.3684,-2.3228,-2.3639,-2.363,0.0,0.0,0.0,0.0,0.0,0.0,0.0,0.0,0.0,0.0,0.0,0.0,0.0,0.0,-1.4029,0.0,-1.4019,0.0,0.0,0.0,0.0,0.0,0.0,0.0,0.0,-1.8901,-1.9491,-1.9766,-1.9785,-1.9805,0.0,-1.9492,-1.832,0.0,0.0,0.0,0.0,0.0,0.0,0.0,0.0,-1.6638,-1.8619,-2.137,-2.2947,-2.3263,-2.3802,-2.3687,-2.2812,-2.1389,-1.985,-1.8196,-1.6811,-1.567,0.0,0.0,0.0,0.0,0.0,0.0,0.0,0.0,0.0,0.0,0.0,0.0,0.0,0.0,0.0,0.0,0.0,0.0,0.0,0.0,0.0,0.0,0.0,-1.4984,0.0,0.0,0.0,0.0,0.0,0.0,0.0,0.0,0.0,-2.0023,-2.2812,-2.539,-2.7605,-2.7663,-2.7576,-2.7862,0.0,0.0,0.0,0.0,0.0,0.0,0.0,-2.6476,-2.984,-2.9486,-2.8198,-2.6486,-2.3908,-2.3505,-2.799,0.0,0.0,-2.7481,-2.7086,-2.6909,-2.6303,-2.5043,-2.3908,-2.337,-2.262,-2.235,0.0,0.0,0.0,0.0,0.0,0.0,0.0,0.0,-1.6262,-1.6631,0.0,-1.6618,0.0,0.0,0.0,0.0,0.0,-1.7106,0.0,0.0,-2.1357,-2.228,-2.3008,-2.3066,-2.3125,-2.3047,-2.2246,-2.1439,-2.048,-1.7243,0.0,0.0,0.0,0.0,0.0,0.0,-1.7792,-2.0215,-2.1985,-2.3244,-2.4052,-2.4072,-2.361,-2.2677,-2.0358,-1.9081,-1.9016,-1.8177,-1.7369,-1.6599,-1.5676,0.0,0.0,0.0,0.0,0.0,0.0,0.0,0.0,0.0,0.0,0.0,0.0,0.0,0.0,0.0,0.0,0.0,0.0,0.0,0.0,-1.5266,0.0,0.0,0.0,0.0,0.0,0.0,0.0,0.0,0.0,0.0,-2.0581,-2.4774,-2.793,-2.801,0.0,0.0,0.0,0.0,-3.0398,-3.0398,-3.0398,-3.0379,-3.0398,-2.7659,-2.6649,-2.9956,0.0,0.0,-2.8255,-2.6582,-2.6495,-2.9763,-3.0371,-3.0398,-3.0321,-3.0186,-2.9737,-2.8294,-2.789,-2.7621,-2.6774,-2.5793,-2.5341,-1.9495,0.0,0.0,0.0,0.0,-1.8506,-1.8789,-1.8866,-1.9109,-1.92,-1.923,-1.92,0.0,0.0,0.0,0.0,0.0,0.0,-2.0216,-2.1362,-2.2247,-2.2823,-2.3103,-2.3118,-2.3129,-2.3091,-2.2875,-2.2632,-2.231,-2.0709,-1.8535,-1.5905,0.0,0.0,0.0,0.0,-1.8953,-2.0342,-2.2562,-2.386,-2.411,-2.3494,-2.2466,-2.1062,-2.0312,-1.9927,-1.9927,-1.9081,-1.853,-1.8261,-1.6311,0.0,0.0,0.0,0.0,0.0,0.0,0.0,0.0,0.0,0.0,0.0,0.0,0.0,0.0,0.0,0.0,0.0,0.0,0.0,-1.6542,-1.6631,-1.6567,0.0,0.0,0.0,0.0,0.0,0.0,0.0,0.0,0.0,-2.3899,-2.6197,-2.8362,0.0,0.0,-2.9259,-2.9636,-3.011,-3.0398,-3.0398,-3.0398,0.0,0.0,-2.9571,-2.9679,-3.1833,-3.1198,-3.0225,-2.9775,-2.9294,-2.9244,-3.0263,-3.0398,-3.0398,-3.0398,-3.0398,-3.0237,-2.9794,-2.9698,-2.9198,-2.789,-2.7601,-2.7601,-2.3084,-2.1494,-2.1157,-2.0765,-2.0393,-2.0908,-2.1205,-2.1321,-2.1658,-2.1817,-2.1809,-2.1809,-2.1339,-2.0493,-2.0158,0.0,0.0,0.0,-2.177,-2.2669,-2.3205,-2.3689,-2.4035,-2.405,-2.4044,-2.4031,-2.3694,-2.3523,-2.3531,-2.2624,-2.1146,-1.9087,0.0,0.0,-1.8024,-1.8999,-2.0273,-2.1793,-2.3302,-2.4245,-2.4562,-2.3408,-2.2139,-2.0831,-2.0485,-2.0292,-2.0292,-1.9792,-1.9357,-1.9011,-1.7869,-1.6593,0.0,0.0,0.0,0.0,0.0,0.0,0.0,0.0,0.0,0.0,0.0,-0.7697,0.0,0.0,0.0,0.0,-1.2959,-1.5664,-1.9398,-1.8842,0.0,0.0,0.0,0.0,0.0,0.0,0.0,-2.1196,-2.3658,-2.5822,-2.7149,-2.8236,-2.9256,-3.0263,-2.996,-2.9806,-3.0333,0.0,-3.1032,-3.134,-3.0833,-3.0398,-3.0398,-3.0398,-3.1198,-3.3564,-3.2526,-3.1429,-3.1391,-3.0891,-3.066,-3.121,-3.1403,-3.1198,-3.0525,-3.0398,-3.0398,-3.0398,-3.0398,-3.0044,-2.9063,-2.9159,-2.9264,-2.6488,-2.5612,-2.3577,-2.2773,-2.2802,-2.2863,-2.2966,-2.312,-2.3861,-2.4197,-2.4178,-2.4197,-2.3717,-2.2851,-2.1985,0.0,-2.1639,-2.2504,-2.3328,-2.4113,-2.4221,-2.4733,-2.5473,-2.5486,-2.5511,-2.5466,-2.4691,-2.4295,-2.4258,-2.3501,-2.306,-2.2933,-2.0597,-1.9766,-2.045,-2.0589,-2.1754,-2.4033,-2.4168,-2.4524,-2.5149,-2.3639,-2.2389,-2.1523,-2.0716,-2.0292,-2.0292,-2.0292,-1.9927,-1.9184,-1.9869,-1.8804,-1.5638,0.0,0.0,0.0,0.0,0.0,0.0,0.0,0.0,0.0,0.0,0.0,0.0,0.0,0.0,0.0,-1.741,0.0,-2.2655,-2.1534,0.0,0.0,0.0,-2.0927,-2.1716,-2.2957,-2.3601,-2.3235,0.0,0.0,-2.9994,-3.0398,-3.0448,-3.0583,-3.0487,-3.0398,-3.0398,-3.1116,-3.202,-3.2949,-3.1698,-3.0641,-3.0794,-3.0917,-3.2083,-3.4776,-3.416,-3.316,-3.3045,-3.1994,-3.1614,-3.2844,-3.3108,-3.2583,-3.0917,-3.0706,-3.0648,-3.0917,-3.0763,-3.0629,-3.0525,-3.0583,-3.0571,-2.6587,-2.6348,-2.5875,-2.5529,-2.5248,-2.531,-2.5408,-2.5524,-2.5111,-2.4928,-2.4947,-2.5014,-2.4553,-2.3764,-2.2889,-2.2485,-2.2524,-2.3398,-2.3897,-2.4154,-2.4797,-2.5236,-2.5414,-2.5478,-2.5511,-2.5505,-2.5279,-2.5161,-2.5097,-2.491,-2.448,-2.3807,-2.3174,-2.2656,-2.2244,-2.2859,-2.3494,-2.4091,-2.4716,-2.4812,-2.437,-2.3351,-2.2389,-2.1504,-2.0716,-2.0292,-2.0292,-2.0292,-2.0215,-2.0004,-2.0196,-1.9331,-1.7215,-1.5888,0.0,0.0,0.0,0.0,0.0,0.0,0.0,0.0,0.0,-1.0594,-1.3113,0.0,-1.4151,0.0,-1.8082,-2.0985,-2.2628,-2.3599,0.0,0.0,-2.2803,-2.3505,-2.4303,-2.4688,-2.5351,-2.6563,-2.8159,-2.9475,-3.0321,-3.0398,-3.0883,-3.2093,-3.1191,-3.0398,-3.0417,-3.1148,-3.2474,-3.4224,-3.3391,-3.2333,-3.241,-3.3468,-3.4507,-3.5353,-3.5109,-3.4911,-3.4891,-3.4589,-3.443,-3.4828,-3.4891,-3.4205,-3.2628,-3.2295,-3.2852,-3.3853,-3.3256,-3.2179,-3.1795,-3.1987,-3.1948,-2.7677,-2.7677,-2.7745,-2.7656,-2.7435,-2.6832,-2.6632,-2.6705,-2.6324,-2.6159,-2.6203,-2.5995,-2.5851,-2.5746,-2.4889,-2.4716,-2.5063,-2.5178,-2.5207,-2.5216,-2.5302,-2.535,-2.536,-2.5393,-2.5406,-2.5409,-2.5395,-2.5401,-2.5357,-2.5359,-2.5109,-2.4639,-2.463,-2.4409,-2.3928,-2.4052,-2.4283,-2.4639,-2.5063,-2.5072,-2.462,-2.3428,-2.2581,-2.2081,-2.0927,-2.0292,-2.0292,-2.0292,-2.0292,-2.0292,-2.0292,-1.9869,-1.8907,-1.7984,-1.6369,0.0,0.0,0.0,0.0,0.0,0.0,0.0,0.0,0.0,0.0,0.0,-1.6638,-1.7426,-1.9196,-2.1597,-2.478,-2.5216,-2.5225,-2.5081,-2.5505,-2.5967,-2.6428,-2.6774,-2.7217,-2.7832,-2.9371,-3.0398,-3.0398,-3.0398,-3.1018,-3.2682,-3.2319,-3.1532,-3.0763,-3.1731,-3.348,-3.5128,-3.468,-3.4064,-3.4064,-3.4853,-3.5507,-3.5507,-3.5507,-3.5507,-3.5507,-3.5507,-3.5507,-3.5507,-3.5507,-3.5224,-3.4255,-3.4057,-3.443,-3.5007,-3.4737,-3.3737,-3.2679,-3.2699,-3.2699,-2.8975,-2.8998,-2.9062,-2.9115,-2.9074,-2.7807,-2.729,-2.7319,-2.7286,-2.7347,-2.7458,-2.6952,-2.7157,-2.7841,-2.7091,-2.7168,-2.7832,-2.7121,-2.6774,-2.6717,-2.5986,-2.5582,-2.5466,-2.5466,-2.5418,-2.5313,-2.5313,-2.5313,-2.5313,-2.5313,-2.5313,-2.5313,-2.5313,-2.5313,-2.5264,-2.4601,-2.4601,-2.5293,-2.5313,-2.5313,-2.5264,-2.3716,-2.287,-2.2716,-2.1177,-2.0292,-2.0292,-2.0292,-2.0292,-2.0292,-2.0292,-2.0292,-2.0292,-2.0292,-1.8862,0.0,-1.414,0.0,0.0,0.0,0.0,0.0,0.0,0.0,0.0,-1.8234,-1.9081,-2.0784,-2.0927,-2.2849,-2.747,-2.6706,-2.6491,-2.7725,-2.8005,-2.8044,-2.8063,-2.8775,-2.8986,-2.8294,-2.9506,-3.0398,-3.0398,-3.0398,-3.1056,-3.294,-3.3493,-3.3064,-3.1705,-3.2865,-3.4422,-3.5378,-3.5507,-3.5295,-3.5334,-3.543,-3.5507,-3.5507,-3.5507,-3.5507,-3.5507,-3.5507,-3.5507,-3.5507,-3.5507,-3.5468,-3.5507,-3.5449,-3.5449,-3.5488,-3.5411,-3.4911,-3.3718,-3.3353,-3.3737,-2.8975,-2.8975,-2.9017,-2.9021,-2.9026,-2.8754,-2.8376,-2.7979,-2.737,-2.7233,-2.7412,-2.7421,-2.7529,-2.7738,-2.7627,-2.7681,-2.7819,-2.7706,-2.764,-2.7659,-2.7486,-2.7035,-2.6371,-2.6351,-2.5986,-2.5322,-2.5313,-2.5313,-2.5313,-2.5313,-2.5313,-2.5313,-2.5313,-2.5313,-2.5293,0.0,0.0,0.0,-2.5313,-2.5313,-2.5264,-2.4091,-2.3235,-2.2774,-2.1177,0.0,-2.0292,-2.0292,-2.0292,-2.0292,-2.0292,0.0,0.0,0.0,0.0,0.0,0.0,0.0,0.0,0.0,0.0,0.0,-1.9888,-2.0004,-1.9869,-2.1043,-2.2543,-2.4178,-2.4341,-2.5303,-2.7644,-2.8844,-2.9029,-2.8034,-2.8503,-2.8882,-2.889,-2.964,-3.0083,-2.9967,-3.0206,-3.0398,-3.0398,-3.0398,-3.1583,-3.4334,-3.4295,-3.4083,-3.443,-3.4282,-3.4545,-3.5315,-3.5507,-3.5507,-3.5507,-3.5507,-3.5507,-3.5507,-3.5507,-3.5507,-3.5507,-3.5507,-3.5507,-3.5507,-3.5507,-3.5507,-3.5507,-3.5507,-3.5507,-3.5507,-3.5507,-3.5411,-3.5064,-3.4988,-3.5122,-2.8975,0.0,-2.8975,-2.8975,0.0,-2.8975,-2.8846,-2.8569,-2.8278,-2.8244,-2.8414,-2.8127,-2.8293,-2.8765,-2.8433,-2.8556,-2.8969,-2.8656,-2.8506,-2.8478,-2.8082,-2.7678,-2.7217,-2.6813,-2.637,-2.5937,-2.5514,-2.5313,-2.5313,-2.5313,-2.5313,-2.5313,-2.5313,-2.5313,-2.5313,-2.5313,-2.5313,-2.5313,-2.5313,-2.5313,-2.5293,-2.4726,-2.3899,-2.2831,0.0,0.0,0.0,0.0,0.0,0.0,0.0,0.0,0.0,0.0,0.0,-1.9081,-1.9759,-1.967,-1.8523,-1.9115,-2.0142,-2.1438,-2.2312,-2.2427,-2.16,-2.2312,-2.3485,-2.5111,-2.5313,-2.6351,-2.8865,-2.9921,-3.0071,-2.9267,-2.9502,-2.9737,-2.9794,-3.0121,-3.0379,-3.0398,-3.0398,-3.0398,-3.0398,-3.0398,-3.1802,-3.4872,-3.5012,-3.482,-3.5334,-3.5122,-3.5064,-3.5449,-3.5507,-3.5507,-3.5507,-3.5507,-3.5507,-3.5507,-3.5507,-3.5507,-3.5507,-3.5507,-3.5507,-3.5507,-3.5507,-3.5507,-3.5507,-3.5507,-3.5507,-3.5507,-3.5507,-3.5507,-3.5507,-3.5507,-3.5507,-2.8975,-2.8975,-2.8975,-2.8975,-2.8975,-2.8975,-2.8975,-2.9035,0.0,0.0,0.0,-2.8857,-2.9072,-2.9813,-2.9254,-2.9431,-3.0144,-2.9594,-2.9333,-2.9294,-2.864,-2.8264,-2.808,-2.7225,-2.6745,-2.6572,-2.5726,-2.5313,-2.5313,-2.5313,-2.5313,-2.5313,-2.5313,-2.5313,-2.5313,-2.5313,-2.5313,-2.5313,-2.5313,-2.5313,-2.5313,-2.5313,-2.4562,-2.3062,-2.2177,-2.1427,-2.0773,-2.0735,-2.0677,-2.0523,-2.0581,-2.0496,-2.0312,-2.0292,-2.0446,-2.0773,-2.2045,-2.2207,-2.0869,-2.1498,-2.2324,-2.3178,-2.3889,-2.4014,-2.3274,-2.3235,-2.4082,-2.6024,-2.6206,-2.7379,-3.0121,-3.0398,-3.0398,-3.0398,-3.0398,-3.0379,-3.0379,-3.0398,-3.0398,-3.0398,-3.0398,-3.0398,-3.0436,-3.1052,-3.2244,-3.4776,-3.543,-3.5507,-3.5507,-3.5449,-3.543,-3.5488,-3.5507,-3.5507,-3.5507,-3.5507,-3.5507,-3.5507,-3.5507,-3.5507,-3.5507,-3.5507,-3.5507,-3.5507,-3.5507,-3.5507,-3.5507,-3.5507,-3.5507,-3.5507,-3.5507,-3.5507,-3.5507,-3.5507,-3.5507,-2.8975,-2.8975,-2.8975,-2.8975,-2.8975,-2.8975,-2.8975,-2.9035,-2.9127,-2.9246,-2.9333,-2.9357,-2.9495,-2.9734,-2.9734,-2.9912,-3.0213,-3.0196,-3.0237,0.0,-3.0102,-2.966,-2.8909,-2.8102,-2.7313,-2.6553,-2.5717,-2.5313,-2.5313,-2.5313,-2.5313,-2.5313,-2.5313,-2.5313,-2.5313,-2.5313,-2.5313,-2.5313,-2.5313,-2.5313,-2.5313,-2.5313,-2.487,-2.3937,-2.3071,-2.2581,-2.2447,-2.2427,-2.21,-2.1389,-2.162,-2.1331,-2.0369,-2.035,-2.0946,-2.2293,-2.2662,-2.2689,-2.2494,-2.3246,-2.4072,-2.4861,-2.5063,-2.5082,-2.4966,-2.4957,-2.6274,-2.9244,-2.9514,-2.984,-3.0379,-3.0398,-3.0398,-3.0398,-3.0398,-3.0398,-3.0398,-3.0398,-3.0398,-3.0398,-3.0398,-3.0448,-3.0879,-3.2917,-3.4628,-3.5334,-3.5507,-3.5507,-3.5507,-3.5507,-3.5507,-3.5507,-3.5507,-3.5507,-3.5507,-3.5507,-3.5507,-3.5507,-3.5507,-3.5507,-3.5507,-3.5507,-3.5507,-3.5507,-3.5507,-3.5507,-3.5507,-3.5507,-3.5507,-3.5507,-3.5507,-3.5507,-3.5507,-3.5507,-3.5507,-2.8975,-2.8975,-2.8975,-2.8975,-2.8975,-2.8975,-2.8975,-2.9017,-2.9072,-2.9108,-2.915,-2.9215,-2.933,-2.9494,-2.9696,-2.9899,-3.009,-3.0318,-3.0398,-3.0398,-3.0398,-3.0198,-2.9717,-2.8506,-2.7698,-2.7217,-2.5928,-2.5313,-2.5313,-2.5313,-2.5313,-2.5313,-2.5313,-2.5313,-2.5313,-2.5313,-2.5313,-2.5313,-2.5313,-2.5313,-2.5313,-2.5313,-2.4909,-2.4129,-2.3706,-2.3263,-2.2812,-2.2793,-2.2601,-2.2216,-2.2062,-2.1889,-2.1696,-2.2524,-2.337,-2.4101,-2.4158,-2.3974,-2.3533,-2.4303,-2.4908,-2.5264,-2.5313,-2.5313,-2.5313,-2.6178,-2.7755,-3.011,-3.0398,-3.0398,-3.0398,-3.0398,-3.0398,-3.0398,-3.0398,-3.0398,-3.0398,-3.0398,-3.0398,-3.0398,-3.0398,-3.109,-3.2968,-3.4526,-3.5488,-3.5507,-3.5507,-3.5507,-3.5507,-3.5507,-3.5507,-3.5507,-3.5507,-3.5507,-3.5507,-3.5507,-3.5507,-3.5507,-3.5507,-3.5507,-3.5507,-3.5507,-3.5507,-3.5507,-3.5507,-3.5507,-3.5507,-3.5507,-3.5507,-3.5507,-3.5507,-3.5507,-3.5507,-3.5507,-3.5507,-2.8975,-2.8975,-2.8975,-2.8975,-2.8975,-2.8975,-2.8975,-2.8975,-2.8975,-2.8975,-2.8975,-2.8975,-2.9112,-2.9312,-2.9551,-2.9801,-2.9996,-3.026,-3.0367,-3.0398,-3.0398,-3.0398,-3.0217,-2.8679,-2.789,-2.7698,-2.612,-2.5313,-2.5313,-2.5313,-2.5313,-2.5313,-2.5313,-2.5313,-2.5313,-2.5313,-2.5313,-2.5313,-2.5313,-2.5313,-2.5313,-2.5313,-2.4986,-2.4428,-2.4379,-2.4043,-2.3408,-2.3351,-2.3274,-2.3101,-2.287,-2.2774,-2.287,-2.4409,-2.5313,-2.5313,-2.5313,-2.5024,-2.4466,-2.4947,-2.5313,-2.5313,-2.5313,-2.5313,-2.5428,-2.689,-2.8602,-3.0071,-3.0398,-3.0398,-3.0398,-3.0398,-3.0398,-3.0398,-3.0398,-3.0398,-3.0398,-3.0398,-3.0398,-3.0398,-3.0725,-3.2179,-3.4622,-3.5507,-3.5507,-3.5507,-3.5507,-3.5507,-3.5507,-3.5507,-3.5507,-3.5507,-3.5507,-3.5507,-3.5507,-3.5507,-3.5507,-3.5507,-3.5507,-3.5507,-3.5507,-3.5507,-3.5507,-3.5507,-3.5507,-3.5507,-3.5507,-3.5507,-3.5507,-3.5507,-3.5507,-3.5507,-3.5507,-3.5507,-3.5507,-2.8994,-2.8975,-2.8994,-2.8975,-2.8975,-2.8975,-2.8975,-2.8975,-2.8975,-2.8975,-2.8975,-2.8975,-2.9108,-2.9326,-2.9513,-2.9716,-2.9921,-3.018,-3.0299,-3.0336,-3.0367,-3.0398,-3.0244,-2.8698,-2.789,-2.7678,-2.614,-2.5313,-2.5313,-2.5313,-2.5313,-2.5313,-2.5313,-2.5313,-2.5313,-2.5313,-2.5313,-2.5313,-2.5313,-2.5313,-2.5313,-2.5313,-2.5264,-2.5187,-2.5178,-2.5149,-2.4966,-2.5072,-2.4736,-2.411,-2.4601,-2.4312,-2.3197,-2.4389,-2.5313,-2.5313,-2.5313,-2.5245,-2.5197,-2.5264,-2.5313,-2.5313,-2.5341,-2.5322,-2.536,-2.6909,-2.8602,-3.0006,-3.0398,-3.0398,-3.0398,-3.0398,-3.0398,-3.0398,-3.0398,-3.0398,-3.0398,-3.0398,-3.0398,-3.0398,-3.1602,-3.3391,-3.5064,-3.5507,-3.5507,-3.5507,-3.5507,-3.5507,-3.5507,-3.5507,-3.5507,-3.5507,-3.5507,-3.5507,-3.5507,-3.5507,-3.5507,-3.5507,-3.5507,-3.5507,-3.5507,-3.5507,-3.5507,-3.5507,-3.5507,-3.5507,-3.5507,-3.5507,-3.5507,-3.5507,-3.5507,-3.5507,-3.5507,-3.5507,-3.5507,-2.8834,-2.89,-2.8929,-2.8952,-2.8994,-2.8975,-2.8975,-2.8975,-2.8975,-2.8975,-2.8975,-2.8975,-2.9085,-2.9262,-2.9412,-2.9589,-2.9786,-3.0026,-3.0169,-3.0254,-3.0355,-3.0398,-3.0225,-2.8679,-2.789,-2.7736,-2.614,-2.5313,-2.5313,-2.5313,-2.5313,-2.5313,-2.5313,-2.5313,-2.5313,-2.5313,-2.5313,-2.5313,-2.5313,-2.5313,-2.5313,-2.5313,-2.5313,-2.5313,-2.5313,-2.5313,-2.5313,-2.5313,-2.5149,-2.4851,-2.512,-2.4995,-2.4332,-2.4937,-2.5313,-2.5313,-2.5313,-2.5313,-2.5313,-2.5313,-2.5313,-2.5313,-2.5793,-2.589,-2.5418,-2.689,-2.8602,-3.0052,-3.0398,-3.0398,-3.0398,-3.0398,-3.0398,-3.0398,-3.0398,-3.0398,-3.0398,-3.0398,-3.0398,-3.0513,-3.1872,-3.3564,-3.5045,-3.5507,-3.5507,-3.5507,-3.5507,-3.5507,-3.5507,-3.5507,-3.5507,-3.5507,-3.5507,-3.5507,-3.5507,-3.5507,-3.5507,-3.5507,-3.5507,-3.5507,-3.5507,-3.5507,-3.5507,-3.5507,-3.5507,-3.5507,-3.5507,-3.5507,-3.5507,-3.5507,-3.5507,-3.5507,-3.5507,-3.5507,-3.5507,-2.8757,-2.8718,-2.8839,-2.8952,-2.8975,-2.8975,-2.8975,-2.8975,-2.8975,-2.8975,-2.8975,-2.8975,-2.9062,-2.9156,-2.9289,-2.9454,-2.9644,-2.9864,-3.0037,-3.0142,-3.0292,-3.033,-3.0196,-2.889,-2.8057,-2.7646,-2.6359,-2.5543,-2.5341,-2.5313,-2.5313,-2.5313,-2.5313,-2.5313,-2.5313,-2.5313,-2.5313,-2.5313,-2.5313,-2.5313,-2.5313,-2.5313,-2.5313,-2.5313,-2.5313,-2.5313,-2.5313,-2.5313,-2.5313,-2.5293,-2.5313,-2.5313,-2.5313,-2.5313,-2.5313,-2.5313,-2.5313,-2.5313,-2.5313,-2.5313,-2.5399,-2.5668,-2.6274,-2.6447,-2.6332,-2.7178,-2.8602,-3.0129,-3.0398,-3.0398,-3.0398,-3.0398,-3.0398,-3.0417,-3.0583,-3.0756,-3.0794,-3.0898,-3.0936,-3.066,-3.1872,-3.3564,-3.5064,-3.5507,-3.5507,-3.5507,-3.5507,-3.5507,-3.5507,-3.5507,-3.5507,-3.5507,-3.5507,-3.5507,-3.5507,-3.5507,-3.5507,-3.5507,-3.5507,-3.5507,-3.5507,-3.5507,-3.5507,-3.5507,-3.5507,-3.5507,-3.5507,-3.5507,-3.5507,-3.5507,-3.5507,-3.5507,-3.5507,-3.5507,-3.5507,-2.8891,-2.8482,-2.8839,-2.8994,-2.8975,-2.8975,-2.8975,-2.8975,-2.8975,-2.8975,-2.8975,-2.8975,-2.8998,-2.9021,-2.916,-2.9293,-2.9513,-2.9697,-2.9851,-3.0003,-3.0123,-3.0218,-3.0142,-2.9287,-2.844,-2.7758,-2.6792,-2.5973,-2.5322,-2.5313,-2.5313,-2.5313,-2.5313,-2.5313,-2.5313,-2.5313,-2.5313,-2.5313,-2.5313,-2.5313,-2.5313,-2.5313,-2.5313,-2.5313,-2.5313,-2.5313,-2.5313,-2.5313,-2.5313,-2.5313,-2.5313,-2.5313,-2.5313,-2.5313,-2.5313,-2.5313,-2.5313,-2.5313,-2.5313,-2.5351,-2.5668,-2.637,-2.6659,-2.6967,-2.7486,-2.7928,-2.8813,-3.0225,-3.0398,-3.0398,-3.0398,-3.0398,-3.0436,-3.0533,-3.116,-3.1525,-3.166,-3.2199,-3.1948,-3.1141,-3.2122,-3.3757,-3.5295,-3.5507,-3.5507,-3.5507,-3.5507,-3.5507,-3.5507,-3.5507,-3.5507,-3.5507,-3.5507,-3.5507,-3.5507,-3.5507,-3.5507,-3.5507,-3.5507,-3.5507,-3.5507,-3.5507,-3.5507,-3.5507,-3.5507,-3.5507,-3.5507,-3.5507,-3.5507,-3.5507,-3.5507,-3.5507,-3.5507,-3.5507,-3.5507,-2.8721,-2.8448,-2.8743,-2.8881,-2.8952,-2.8975,-2.8975,-2.8975,-2.8975,-2.8975,-2.8975,-2.8975,-2.8975,-2.8998,-2.9044,-2.916,-2.931,-2.9474,-2.9589,-2.9698,-2.9817,-2.9867,-2.9788,-2.8977,-2.8512,-2.8127,-2.6948,-2.5964,-2.536,-2.5313,-2.5313,-2.5313,-2.5313,-2.5313,-2.5313,-2.5313,-2.5313,-2.5313,-2.5313,-2.5313,-2.5313,-2.5313,-2.5313,-2.5313,-2.5313,-2.5313,-2.5313,-2.5313,-2.5313,-2.5313,-2.5313,-2.5313,-2.5313,-2.5313,-2.5313,-2.5313,-2.5313,-2.5313,-2.537,-2.5832,-2.6255,-2.6621,-2.7621,-2.8025,-2.8121,-2.8852,-2.9794,-3.0244,-3.0398,-3.0398,-3.0398,-3.0398,-3.0629,-3.1167,-3.1513,-3.1948,-3.2372,-3.2737,-3.2641,-3.2391,-3.3487,-3.4853,-3.5238,-3.5507,-3.5507,-3.5507,-3.5507,-3.5507,-3.5507,-3.5507,-3.5507,-3.5507,-3.5507,-3.5507,-3.5507,-3.5507,-3.5507,-3.5507,-3.5507,-3.5507,-3.5507,-3.5507,-3.5507,-3.5507,-3.5507,-3.5507,-3.5507,-3.5507,-3.5507,-3.5507,-3.5507,-3.5507,-3.5507,-3.5507,-3.5507,-2.8634,-2.8586,-2.8659,-2.8743,-2.8839,-2.8952,-2.8975,-2.8975,-2.8975,-2.8975,-2.8975,-2.8975,-2.8975,-2.8975,-2.8975,-2.904,-2.9134,-2.9289,-2.9375,-2.9456,-2.957,-2.9662,-2.9549,-2.9049,-2.8685,-2.8323,-2.6949,-2.5995,-2.5655,-2.5367,-2.5243,-2.5224,-2.5243,-2.5253,-2.5283,-2.5293,-2.5293,-2.5303,-2.5313,-2.5313,-2.5313,-2.5313,-2.5313,-2.5313,-2.5313,-2.5313,-2.5313,-2.5313,-2.5313,-2.5313,-2.5313,-2.5313,-2.5313,-2.5313,-2.5313,-2.5313,-2.5313,-2.5457,-2.5726,-2.6264,-2.6832,-2.739,-2.839,-2.8909,-2.8775,-2.9756,-3.0302,-3.0398,-3.0398,-3.0398,-3.0398,-3.0398,-3.0744,-3.1552,-3.1917,-3.241,-3.3199,-3.3583,-3.3757,-3.391,-3.4661,-3.5372,-3.5507,-3.5507,-3.5507,-3.5507,-3.5507,-3.5507,-3.5507,-3.5507,-3.5507,-3.5507,-3.5507,-3.5507,-3.5507,-3.5507,-3.5507,-3.5507,-3.5507,-3.5507,-3.5507,-3.5507,-3.5507,-3.5507,-3.5507,-3.5507,-3.5507,-3.5507,-3.5507,-3.5507,-3.5507,-3.5507,-3.5507,-3.5507,-3.5507,-2.8641,-2.8787,-2.8551,-2.8543,-2.8712,-2.8905,-2.8975,-2.8975,-2.8975,-2.8975,-2.8975,-2.8975,-2.8975,-2.8975,-2.8975,-2.9017,-2.9044,-2.916,-2.9249,-2.9275,-2.9414,-2.9472,-2.9455,-2.9383,-2.897,-2.8351,-2.6968,-2.6331,-2.6212,-2.5588,-2.5187,-2.5122,-2.5164,-2.5179,-2.5192,-2.5252,-2.5302,-2.5303,-2.5313,-2.5313,-2.5313,-2.5313,-2.5313,-2.5313,-2.5313,-2.5313,-2.5313,-2.5313,-2.5313,-2.5313,-2.5313,-2.5313,-2.5313,-2.5313,-2.5313,-2.5303,-2.5322,-2.5754,-2.6416,-2.6687,-2.7563,-2.8544,-2.9083,-2.9506,-3.0006,-3.0283,-3.0398,-3.0398,-3.0398,-3.0398,-3.0398,-3.0398,-3.0802,-3.1621,-3.2372,-3.3103,-3.4064,-3.493,-3.5449,-3.5334,-3.5468,-3.5488,-3.5507,-3.5507,-3.5507,-3.5507,-3.5507,-3.5507,-3.5507,-3.5507,-3.5507,-3.5507,-3.5507,-3.5507,-3.5507,-3.5507,-3.5507,-3.5507,-3.5507,-3.5507,-3.5507,-3.5507,-3.5507,-3.5507,-3.5507,-3.5507,-3.5507,-3.5507,-3.5507,-3.5507,-3.5507,-3.5507,-3.5507,-3.5507,-3.5507,-2.9383,-2.8736,-2.8858,-2.8712,-2.8536,-2.8742,-2.8883,-2.8938,-2.8975,-2.8975,-2.8975,-2.8975,-2.8975,-2.8975,-2.8975,-2.8975,-2.8998,-2.9044,-2.9071,-2.9112,-2.9156,-2.916,-2.916,-2.9163,-2.8815,-2.8248,-2.7849,-2.7086,-2.6246,-2.584,-2.5494,-2.5029,-2.4968,-2.5012,-2.5065,-2.5179,-2.5241,-2.5303,-2.5313,-2.5313,-2.5313,-2.5303,-2.5303,-2.5313,-2.5313,-2.5313,-2.5313,-2.5313,-2.5313,-2.5313,-2.5313,-2.5313,-2.5313,-2.5313,-2.5313,-2.536,-2.589,-2.6254,-2.6685,-2.7668,-2.8448,-2.9102,-2.964,-3.0063,-3.034,-3.0398,-3.0398,-3.0398,-3.0398,-3.0398,-3.0398,-3.0398,-3.0994,-3.2346,-3.2763,-3.3487,-3.4757,-3.5315,-3.5468,-3.5507,-3.5507,-3.5507,-3.5507,-3.5507,-3.5507,-3.5507,-3.5507,-3.5507,-3.5507,-3.5507,-3.5507,-3.5507,-3.5507,-3.5507,-3.5507,-3.5507,-3.5507,-3.5507,-3.5507,-3.5507,-3.5507,-3.5507,-3.5507,-3.5507,-3.5507,-3.5507,-3.5507,-3.5507,-3.5507,-3.5507,-3.5507,-3.5507,-3.5507,-3.5507,-3.5507,-2.9882,-2.9211,-2.8942,-2.8753,-2.8586,-2.8676,-2.8727,-2.8847,-2.8957,-2.8975,-2.8975,-2.8975,-2.8975,-2.8975,-2.8975,-2.8975,-2.8975,-2.8975,-2.8975,-2.8975,-2.8975,-2.8975,-2.8998,-2.904,-2.8874,-2.8519,-2.8324,-2.7606,-2.6416,-2.604,-2.5512,-2.4847,-2.479,-2.4855,-2.4943,-2.5056,-2.5164,-2.5203,-2.5233,-2.5273,-2.5283,-2.5293,-2.5303,-2.5303,-2.5313,-2.5313,-2.5313,-2.5313,-2.5313,-2.5313,-2.5313,-2.5313,-2.5313,-2.5313,-2.5563,-2.6217,-2.6496,-2.6841,-2.7511,-2.8494,-2.9275,-2.9602,-3.0102,-3.0379,-3.0398,-3.0398,-3.0398,-3.0398,-3.0398,-3.0398,-3.0398,-3.0398,-3.1052,-3.2282,-3.2737,-3.366,-3.5084,-3.5507,-3.5507,-3.5507,-3.5507,-3.5507,-3.5507,-3.5507,-3.5507,-3.5507,-3.5507,-3.5507,-3.5507,-3.5507,-3.5507,-3.5507,-3.5507,-3.5507,-3.5507,-3.5507,-3.5507,-3.5507,-3.5507,-3.5507,-3.5507,-3.5507,-3.5507,-3.5507,-3.5507,-3.5507,-3.5507,-3.5507,-3.5507,-3.5507,-3.5507,-3.5507,-3.5507,-3.5507,-3.5507,-3.0204,-3.0063,-2.8972,-2.8606,-2.8694,-2.8492,-2.8523,-2.8709,-2.892,-2.8975,-2.8975,-2.8975,-2.8975,-2.8975,-2.8975,-2.8975,-2.8975,-2.8975,-2.8975,-2.8975,-2.8975,-2.8975,-2.8998,-2.9062,-2.9062,-2.8989,-2.8498,-2.7733,-2.6823,-2.6227,-2.5405,-2.4657,-2.4629,-2.4753,-2.4837,-2.494,-2.4981,-2.508,-2.5145,-2.5168,-2.5182,-2.5252,-2.5302,-2.5303,-2.5313,-2.5313,-2.5313,-2.5313,-2.5313,-2.5313,-2.5313,-2.5313,-2.5313,-2.5313,-2.6025,-2.746,-2.7083,-2.7629,-2.8645,-2.9167,-2.9544,-3.0198,-3.0321,-3.0398,-3.0398,-3.0398,-3.0398,-3.0398,-3.0398,-3.0398,-3.0398,-3.0398,-3.0891,-3.1703,-3.2673,-3.3795,-3.5122,-3.543,-3.5507,-3.5507,-3.5507,-3.5507,-3.5507,-3.5507,-3.5507,-3.5507,-3.5507,-3.5507,-3.5507,-3.5507,-3.5507,-3.5507,-3.5507,-3.5507,-3.5507,-3.5507,-3.5507,-3.5507,-3.5507,-3.5507,-3.5507,-3.5507,-3.5507,-3.5507,-3.5507,-3.5507,-3.5507,-3.5507,-3.5507,-3.5507,-3.5507,-3.5507,-3.5507,-3.5507,-3.5507,-3.0336,-2.9411,-2.9179,-2.8639,-2.804,-2.8139,-2.837,-2.8646,-2.8874,-2.8975,-2.8975,-2.8975,-2.8975,-2.8975,-2.8975,-2.8975,-2.8975,-2.8975,-2.8975,-2.8975,-2.8975,-2.8975,-2.8975,-2.9017,-2.904,-2.8998,-2.8791,-2.8058,-2.6792,-2.648,-2.563,-2.4358,-2.4393,-2.4478,-2.4575,-2.4689,-2.4775,-2.4874,-2.4955,-2.5,-2.5065,-2.516,-2.5241,-2.5303,-2.5313,-2.5313,-2.5313,-2.5313,-2.5313,-2.5313,-2.5313,-2.5313,-2.5313,-2.5332,-2.6083,-2.7479,-2.7748,-2.7975,-2.8952,-2.9675,-3.014,-3.034,-3.0398,-3.0398,-3.0398,-3.0398,-3.0398,-3.0398,-3.0398,-3.0398,-3.0398,-3.0417,-3.1083,-3.2403,-3.3218,-3.4007,-3.4584,-3.5122,-3.5507,-3.5507,-3.5507,-3.5507,-3.5507,-3.5507,-3.5507,-3.5507,-3.5507,-3.5507,-3.5507,-3.5507,-3.5507,-3.5507,-3.5507,-3.5507,-3.5507,-3.5507,-3.5507,-3.5507,-3.5507,-3.5507,-3.5507,-3.5507,-3.5507,-3.5507,-3.5507,-3.5507,-3.5507,-3.5507,-3.5507,-3.5507,-3.5507,-3.5507,-3.5507,-3.5507,-3.5507,-3.0281,-2.9454,-2.8917,-2.839,-2.7948,-2.8039,-2.8246,-2.8547,-2.8863,-2.8975,-2.8975,-2.8975,-2.8975,-2.8975,-2.8975,-2.8975,-2.8975,-2.8975,-2.8975,-2.8975,-2.8975,-2.8975,-2.8975,-2.8975,-2.8975,-2.8975,-2.8975,-2.8081,-2.6869,-2.6612,-2.5713,-2.4484,-2.4247,-2.4339,-2.4462,-2.4493,-2.4575,-2.4719,-2.4808,-2.4869,-2.4968,-2.5084,-2.5201,-2.5274,-2.5313,-2.5313,-2.5313,-2.5313,-2.5313,-2.5313,-2.5313,-2.5313,-2.5313,-2.5313,-2.6102,-2.7721,-2.7902,-2.836,-2.9463,-3.0129,-3.0359,-3.0398,-3.0398,-3.0398,-3.0398,-3.0398,-3.0398,-3.0398,-3.0398,-3.0398,-3.0456,-3.0706,-3.1379,-3.2256,-3.3468,-3.4295,-3.4661,-3.5238,-3.5468,-3.5507,-3.5507,-3.5507,-3.5507,-3.5507,-3.5507,-3.5507,-3.5507,-3.5507,-3.5507,-3.5507,-3.5507,-3.5507,-3.5507,-3.5507,-3.5507,-3.5507,-3.5507,-3.5507,-3.5507,-3.5507,-3.5507,-3.5507,-3.5507,-3.5507,-3.5507,-3.5507,-3.5507,-3.5507,-3.5507,-3.5507,-3.5507,-3.5507,-3.5507,-3.5507,-3.5507,-2.9939,-2.9753,-2.8347,-2.7998,-2.8174,-2.8012,-2.8093,-2.8448,-2.8834,-2.8975,-2.8975,-2.8975,-2.8975,-2.8975,-2.8975,-2.8975,-2.8975,-2.8975,-2.8975,-2.8975,-2.8975,-2.8975,-2.8975,-2.8975,-2.8975,-2.8975,-2.8975,-2.8062,-2.6979,-2.6612,-2.5731,-2.4557,-2.4191,-2.4247,-2.4358,-2.4374,-2.4444,-2.4547,-2.466,-2.4794,-2.491,-2.5024,-2.513,-2.5274,-2.5313,-2.5313,-2.5313,-2.5313,-2.5313,-2.5313,-2.5313,-2.5313,-2.5313,-2.5313,-2.6179,-2.7499,-2.7979,-2.8602,-3.0013,-3.034,-3.0398,-3.0398,-3.0398,-3.0398,-3.0398,-3.0398,-3.0398,-3.0398,-3.0398,-3.0552,-3.0936,-3.1385,-3.1827,-3.2429,-3.3526,-3.4487,-3.5257,-3.5507,-3.5507,-3.5507,-3.5507,-3.5507,-3.5507,-3.5507,-3.5507,-3.5507,-3.5507,-3.5507,-3.5507,-3.5507,-3.5507,-3.5507,-3.5507,-3.5507,-3.5507,-3.5507,-3.5507,-3.5507,-3.5507,-3.5507,-3.5507,-3.5507,-3.5507,-3.5507,-3.5507,-3.5507,-3.5507,-3.5507,-3.5507,-3.5507,-3.5507,-3.5507,-3.5507,-3.5507,-3.5507,-2.8873,-2.8281,-2.796,-2.7674,-2.752,-2.7766,-2.8083,-2.844,-2.8834,-2.8975,-2.8975,-2.8975,-2.8975,-2.8975,-2.8975,-2.8975,-2.8975,-2.8975,-2.8975,-2.8975,-2.8975,-2.8975,-2.8975,-2.8975,-2.8975,-2.8975,-2.8975,-2.8136,-2.6979,-2.6484,-2.5786,-2.441,-2.4209,-2.4209,-2.4247,-2.4247,-2.4247,-2.4303,-2.4445,-2.4623,-2.4832,-2.4949,-2.5084,-2.5264,-2.5303,-2.5313,-2.5313,-2.5313,-2.5313,-2.5313,-2.5313,-2.5313,-2.5313,-2.5313,-2.616,-2.7422,-2.7941,-2.8621,-2.9994,-3.0398,-3.0398,-3.0398,-3.0398,-3.0398,-3.0398,-3.0398,-3.0398,-3.0398,-3.0417,-3.091,-3.1968,-3.1885,-3.2385,-3.3276,-3.393,-3.4584,-3.5276,-3.5507,-3.5507,-3.5507,-3.5507,-3.5507,-3.5507,-3.5507,-3.5507,-3.5507,-3.5507,-3.5507,-3.5507,-3.5507,-3.5507,-3.5507,-3.5507,-3.5507,-3.5507,-3.5507,-3.5507,-3.5507,-3.5507,-3.5507,-3.5507,-3.5507,-3.5507,-3.5507,-3.5507,-3.5507,-3.5507,-3.5507,-3.5507,-3.5507,-3.5507,-3.5507,-3.5507,-3.5507,-3.5507,-2.8197,-2.7755,-2.7435,-2.7248,-2.7279,-2.7678,-2.8065,-2.844,-2.8834,-2.8975,-2.8975,-2.8975,-2.8975,-2.8975,-2.8975,-2.8975,-2.8975,-2.8975,-2.8975,-2.8975,-2.8975,-2.8975,-2.8975,-2.8975,-2.8975,-2.8975,-2.8975,-2.8099,-2.7016,-2.6484,-2.5786,-2.4337,-2.419,-2.4209,-2.419,-2.419,-2.4209,-2.4228,-2.4321,-2.4512,-2.4731,-2.4888,-2.5056,-2.5233,-2.5303,-2.5313,-2.5313,-2.5313,-2.5313,-2.5313,-2.5313,-2.5313,-2.5303,-2.5351,-2.6198,-2.7518,-2.7922,-2.8698,-2.991,-3.0398,-3.0398,-3.0398,-3.0398,-3.0398,-3.0398,-3.0398,-3.0398,-3.0398,-3.0544,-3.1064,-3.2646,-3.2942,-3.3327,-3.393,-3.4564,-3.5007,-3.5372,-3.5507,-3.5507,-3.5507,-3.5507,-3.5507,-3.5507,-3.5507,-3.5507,-3.5507,-3.5507,-3.5507,-3.5507,-3.5507,-3.5507,-3.5507,-3.5507,-3.5507,-3.5507,-3.5507,-3.5507,-3.5507,-3.5507,-3.5507,-3.5507,-3.5507,-3.5507,-3.5507,-3.5507,-3.5507,-3.5507,-3.5507,-3.5507,-3.5507,-3.5507,-3.5507,-3.5507,-3.5507,-3.5507,-2.7638,-2.7604,-2.6962,-2.6891,-2.7244,-2.7695,-2.8083,-2.8422,-2.8834,-2.8975,-2.8975,-2.8975,-2.8975,-2.8975,-2.8975,-2.8975,-2.8975,-2.8975,-2.8975,-2.8975,-2.8975,-2.8975,-2.8975,-2.8975,-2.8975,-2.8975,-2.8975,-2.8117,-2.6998,-2.6502,-2.575,-2.4465,-2.419,-2.419,-2.419,-2.419,-2.419,-2.4209,-2.4303,-2.4481,-2.4642,-2.479,-2.4994,-2.522,-2.5293,-2.5303,-2.5313,-2.5313,-2.5313,-2.5313,-2.5313,-2.5313,-2.5341,-2.5736,-2.6237,-2.7856,-2.8056,-2.8929,-3.0025,-3.0398,-3.0398,-3.0398,-3.0398,-3.0398,-3.0398,-3.0398,-3.0398,-3.0564,-3.0794,-3.1703,-3.3094,-3.3493,-3.3942,-3.4455,-3.5103,-3.543,-3.5507,-3.5507,-3.5507,-3.5507,-3.5507,-3.5507,-3.5507,-3.5507,-3.5507,-3.5507,-3.5507,-3.5507,-3.5507,-3.5507,-3.5507,-3.5507,-3.5507,-3.5507,-3.5507,-3.5507,-3.5507,-3.5507,-3.5507,-3.5507,-3.5507,-3.5507,-3.5507,-3.5507,-3.5507,-3.5507,-3.5507,-3.5507,-3.5507,-3.5507,-3.5507,-3.5507,-3.5507,-3.5507,-3.5507,-2.6894,-2.686,-2.6742,-2.6891,-2.7244,-2.7695,-2.8083,-2.8422,-2.8834,-2.8994,-2.8975,-2.8975,-2.8975,-2.8975,-2.8975,-2.8975,-2.8975,-2.8975,-2.8975,-2.8975,-2.8975,-2.8975,-2.8975,-2.8975,-2.898,-2.8975,-2.8888,-2.8062,-2.6943,-2.6521,-2.5621,-2.4502,-2.419,-2.419,-2.419,-2.419,-2.419,-2.4209,-2.4284,-2.4393,-2.4528,-2.47,-2.4915,-2.5176,-2.5262,-2.5293,-2.5303,-2.5303,-2.5313,-2.5313,-2.5313,-2.5313,-2.5649,-2.6621,-2.7622,-2.8067,-2.8508,-2.9217,-3.0186,-3.0398,-3.0398,-3.0398,-3.0398,-3.0398,-3.0398,-3.0398,-3.0398,-3.0814,-3.178,-3.3171,-3.4828,-3.4537,-3.4576,-3.5051,-3.5334,-3.5507,-3.5507,-3.5507,-3.5507,-3.5507,-3.5507,-3.5507,-3.5507,-3.5507,-3.5507,-3.5507,-3.5507,-3.5507,-3.5507,-3.5507,-3.5507,-3.5507,-3.5507,-3.5507,-3.5507,-3.5507,-3.5507,-3.5507,-3.5507,-3.5507,-3.5507,-3.5507,-3.5507,-3.5507,-3.5507,-3.5507,-3.5507,-3.5507,-3.5507,-3.5507,-3.5507,-3.5507,-3.5507,-3.5507,-3.5507,-2.6708,-2.6708,-2.6708,-2.6873,-2.7244,-2.7695,-2.811,-2.8422,-2.8815,-2.8975,-2.8975,-2.8975,-2.8975,-2.8975,-2.8975,-2.8975,-2.8975,-2.8975,-2.8975,-2.8975,-2.8975,-2.8975,-2.8975,-2.8975,-2.8691,-2.8493,-2.8305,-2.7787,-2.6667,-2.6135,-2.5364,-2.4502,-2.419,-2.419,-2.419,-2.419,-2.419,-2.4209,-2.4247,-2.4321,-2.4462,-2.4657,-2.4921,-2.5063,-2.519,-2.5273,-2.5312,-2.5303,-2.5303,-2.5313,-2.5313,-2.5313,-2.6043,-2.7563,-2.9151,-2.9124,-2.9036,-2.9371,-3.0186,-3.0398,-3.0398,-3.0398,-3.0398,-3.0398,-3.0398,-3.0398,-3.0398,-3.0941,-3.2933,-3.4545,-3.5334,-3.5051,-3.5128,-3.5339,-3.5507,-3.5507,-3.5507,-3.5507,-3.5507,-3.5507,-3.5507,-3.5507,-3.5507,-3.5507,-3.5507,-3.5507,-3.5507,-3.5507,-3.5507,-3.5507,-3.5507,-3.5507,-3.5507,-3.5507,-3.5507,-3.5507,-3.5507,-3.5507,-3.5507,-3.5507,-3.5507,-3.5507,-3.5507,-3.5507,-3.5507,-3.5507,-3.5507,-3.5507,-3.5507,-3.5507,-3.5507,-3.5507,-3.5507,-3.5507,-3.5507,-2.6708,-2.6708,-2.6708,-2.6873,-2.7227,-2.7695,-2.811,-2.8422,-2.8834,-2.8975,-2.8975,-2.8975,-2.8975,-2.8975,-2.8975,-2.8975,-2.8975,-2.8975,-2.8975,-2.8975,-2.8975,-2.8975,-2.8975,-2.8741,-2.8415,-2.7948,-2.7279,-2.6979,-2.63,-2.5768,-2.4997,-2.4392,-2.419,-2.419,-2.419,-2.419,-2.419,-2.4209,-2.4209,-2.4266,-2.4429,-2.466,-2.4884,-2.4955,-2.5091,-2.5201,-2.5271,-2.5312,-2.5476,-2.5514,-2.5476,-2.5486,-2.6245,-2.8725,-3.0302,-3.0244,-2.9494,-2.9706,-3.0071,-3.0398,-3.0398,-3.0398,-3.0398,-3.0398,-3.0398,-3.0398,-3.0417,-3.0941,-3.2343,-3.4603,-3.518,-3.5468,-3.5468,-3.5488,-3.5507,-3.5507,-3.5507,-3.5507,-3.5507,-3.5507,-3.5507,-3.5507,-3.5507,-3.5507,-3.5507,-3.5507,-3.5507,-3.5507,-3.5507,-3.5507,-3.5507,-3.5507,-3.5507,-3.5507,-3.5507,-3.5507,-3.5507,-3.5507,-3.5507,-3.5507,-3.5507,-3.5507,-3.5507,-3.5507,-3.5507,-3.5507,-3.5507,-3.5507,-3.5507,-3.5507,-3.5507,-3.5507,-3.5507,-3.5507,-3.5507,-2.6708,-2.6708,-2.6708,-2.6891,-2.7244,-2.7713,-2.8083,-2.844,-2.8834,-2.8994,-2.8975,-2.8975,-2.8975,-2.8975,-2.8975,-2.8975,-2.8975,-2.8975,-2.8975,-2.8975,-2.8975,-2.8938,-2.8828,-2.8227,-2.7886,-2.7361,-2.6362,-2.5733,-2.5511,-2.5364,-2.4961,-2.4337,-2.419,-2.419,-2.419,-2.419,-2.419,-2.419,-2.4209,-2.4228,-2.4321,-2.4478,-2.4626,-2.4771,-2.493,-2.5096,-2.5209,-2.5282,-2.5572,-2.6236,-2.5707,-2.614,-2.7544,-2.9283,-3.0206,-3.0379,-3.0283,-3.0244,-3.0359,-3.0398,-3.0398,-3.0398,-3.0398,-3.0398,-3.0398,-3.0398,-3.0398,-3.0398,-3.1287,-3.2884,-3.5007,-3.5468,-3.5507,-3.5507,-3.5507,-3.5507,-3.5507,-3.5507,-3.5507,-3.5507,-3.5507,-3.5507,-3.5507,-3.5507,-3.5507,-3.5507,-3.5507,-3.5507,-3.5507,-3.5507,-3.5507,-3.5507,-3.5507,-3.5507,-3.5507,-3.5507,-3.5507,-3.5507,-3.5507,-3.5507,-3.5507,-3.5507,-3.5507,-3.5507,-3.5507,-3.5507,-3.5507,-3.5507,-3.5507,-3.5507,-3.5507,-3.5507,-3.5507,-3.5507,-3.5507,-2.6708,-2.6708,-2.6708,-2.6891,-2.7244,-2.7695,-2.8065,-2.8422,-2.8834,-2.8975,-2.8975,-2.8975,-2.8975,-2.8975,-2.8975,-2.8975,-2.8975,-2.8975,-2.8975,-2.898,-2.8938,-2.875,-2.8324,-2.7912,-2.7518,-2.644,-2.5774,-2.5219,-2.4924,-2.4722,-2.4465,-2.4281,-2.419,-2.419,-2.419,-2.419,-2.419,-2.419,-2.4209,-2.4209,-2.4247,-2.4302,-2.4426,-2.4636,-2.4831,-2.4993,-2.5126,-2.5262,-2.5726,-2.6467,-2.6524,-2.7063,-2.8082,-2.9371,-3.0398,-3.0398,-3.0379,-3.0379,-3.0398,-3.0398,-3.0398,-3.0398,-3.0398,-3.0398,-3.0398,-3.0398,-3.0398,-3.0398,-3.2295,-3.3936,-3.5012,-3.5449,-3.5507,-3.5507,-3.5507,-3.5507,-3.5507,-3.5507,-3.5507,-3.5507,-3.5507,-3.5507,-3.5507,-3.5507,-3.5507,-3.5507,-3.5507,-3.5507,-3.5507,-3.5507,-3.5507,-3.5507,-3.5507,-3.5507,-3.5507,-3.5507,-3.5507,-3.5507,-3.5507,-3.5507,-3.5507,-3.5507,-3.5507,-3.5507,-3.5507,-3.5507,-3.5507,-3.5507,-3.5507,-3.5507,-3.5507,-3.5507,-3.5507,-3.5507,-3.5507,-2.6708,-2.6708,-2.6708,-2.6891,-2.7244,-2.7713,-2.8093,-2.8422,-2.8815,-2.8975,-2.8975,-2.8975,-2.8975,-2.8975,-2.8975,-2.8975,-2.8975,-2.8975,-2.8975,-2.898,-2.8737,-2.8347,-2.7852,-2.7457,-2.6528,-2.5373,-2.5167,-2.4797,-2.4428,-2.4245,-2.4263,-2.419,-2.419,-2.419,-2.419,-2.419,-2.419,-2.419,-2.419,-2.419,-2.4209,-2.4209,-2.4357,-2.4543,-2.4752,-2.493,-2.5061,-2.5233,-2.5726,-2.6909,-2.7428,-2.7909,-2.8813,-2.9756,-3.0359,-3.0398,-3.0398,-3.0398,-3.0398,-3.0398,-3.0398,-3.0398,-3.0398,-3.0398,-3.0398,-3.0417,-3.1205,-3.1898,-3.3628,-3.5007,-3.5507,-3.5507,-3.5507,-3.5507,-3.5507,-3.5507,-3.5507,-3.5507,-3.5507,-3.5507,-3.5507,-3.5507,-3.5507,-3.5507,-3.5507,-3.5507,-3.5507,-3.5507,-3.5507,-3.5507,-3.5507,-3.5507,-3.5507,-3.5507,-3.5507,-3.5507,-3.5507,-3.5507,-3.5507,-3.5507,-3.5507,-3.5507,-3.5507,-3.5507,-3.5507,-3.5507,-3.5507,-3.5507,-3.5507,-3.5507,-3.5507,-3.5507,-3.5507,-3.5507,-3.5507,-2.6708,-2.6708,-2.6708,-2.6891,-2.7244,-2.7695,-2.811,-2.8422,-2.8815,-2.8975,-2.8975,-2.8975,-2.8975,-2.8975,-2.8975,-2.8975,-2.8975,-2.8975,-2.8902,-2.8686,-2.8301,-2.7879,-2.7273,-2.6413,-2.5627,-2.5206,-2.4799,-2.441,-2.4226,-2.419,-2.419,-2.419,-2.419,-2.419,-2.419,-2.419,-2.419,-2.419,-2.419,-2.419,-2.4209,-2.4209,-2.4266,-2.4442,-2.4666,-2.4855,-2.5006,-2.5201,-2.5928,-2.7371,-2.7755,-2.8679,-2.9621,-3.014,-3.0398,-3.0398,-3.0398,-3.0398,-3.0398,-3.0398,-3.0398,-3.0398,-3.0398,-3.0398,-3.0398,-3.0398,-3.1705,-3.4032,-3.5103,-3.5353,-3.5507,-3.5507,-3.5507,-3.5507,-3.5507,-3.5507,-3.5507,-3.5507,-3.5507,-3.5507,-3.5507,-3.5507,-3.5507,-3.5507,-3.5507,-3.5507,-3.5507,-3.5507,-3.5507,-3.5507,-3.5507,-3.5507,-3.5507,-3.5507,-3.5507,-3.5507,-3.5507,-3.5507,-3.5507,-3.5507,-3.5507,-3.5507,-3.5507,-3.5507,-3.5507,-3.5507,-3.5507,-3.5507,-3.5507,-3.5507,-3.5507,-3.5507,-3.5507,-3.5507,-3.5507,-2.6708,-2.6708,-2.6708,-2.6891,-2.7244,-2.7695,-2.8065,-2.8422,-2.8815,-2.8975,-2.8975,-2.8975,-2.8975,-2.8975,-2.8975,-2.8975,-2.8975,-2.8975,-2.8741,-2.8319,-2.7915,-2.7255,-2.6484,-2.5786,-2.5164,-2.4744,-2.4319,-2.419,-2.4208,-2.419,-2.419,-2.419,-2.419,-2.419,-2.419,-2.419,-2.419,-2.419,-2.419,-2.419,-2.419,-2.4209,-2.4247,-2.4407,-2.4651,-2.4842,-2.5006,-2.5201,-2.6013,-2.6871,-2.7544,-2.8775,-3.0083,-3.0321,-3.0398,-3.0398,-3.0398,-3.0398,-3.0398,-3.0398,-3.0398,-3.0398,-3.0398,-3.0398,-3.0398,-3.0398,-3.2167,-3.4128,-3.5507,-3.5507,-3.5507,-3.5507,-3.5507,-3.5507,-3.5507,-3.5507,-3.5507,-3.5507,-3.5507,-3.5507,-3.5507,-3.5507,-3.5507,-3.5507,-3.5507,-3.5507,-3.5507,-3.5507,-3.5507,-3.5507,-3.5507,-3.5507,-3.5507,-3.5507,-3.5507,-3.5507,-3.5507,-3.5507,-3.5507,-3.5507,-3.5507,-3.5507,-3.5507,-3.5507,-3.5507,-3.5507,-3.5507,-3.5507,-3.5507,-3.5507,-3.5507,-3.5507,-3.5507,-3.5507,-3.5507,-2.6708,-2.6708,-2.6708,-2.6891,-2.7213,-2.7654,-2.802,-2.8368,-2.8779,-2.8957,-2.8975,-2.8975,-2.8975,-2.8975,-2.8975,-2.8975,-2.8975,-2.8962,-2.865,-2.8209,-2.7622,-2.6793,-2.5949,-2.5216,-2.4685,-2.4263,-2.419,-2.419,-2.419,-2.419,-2.419,-2.419,-2.419,-2.419,-2.419,-2.419,-2.419,-2.419,-2.419,-2.419,-2.419,-2.4209,-2.4247,-2.4407,-2.4651,-2.4861,-2.5019,-2.5228,-2.5764,-2.6409,-2.7121,-2.8275,-2.9544,-3.0398,-3.0398,-3.0398,-3.0398,-3.0398,-3.0398,-3.0398,-3.0398,-3.0398,-3.0398,-3.0398,-3.0398,-3.0475,-3.1955,-3.4891,-3.5507,-3.5507,-3.5507,-3.5507,-3.5507,-3.5507,-3.5507,-3.5507,-3.5507,-3.5507,-3.5507,-3.5507,-3.5507,-3.5507,-3.5507,-3.5507,-3.5507,-3.5507,-3.5507,-3.5507,-3.5507,-3.5507,-3.5507,-3.5507,-3.5507,-3.5507,-3.5507,-3.5507,-3.5507,-3.5507,-3.5507,-3.5507,-3.5507,-3.5507,-3.5507,-3.5507,-3.5507,-3.5507,-3.5507,-3.5507,-3.5507,-3.5507,-3.5507,-3.5507,-3.5507,-3.5507,-3.5507,-2.6708,-2.6708,-2.6708,-2.6858,-2.7135,-2.7535,-2.7908,-2.82,-2.8621,-2.8883,-2.8975,-2.8975,-2.8975,-2.8975,-2.8975,-2.8975,-2.8975,-2.8975,-2.8851,-2.8429,-2.7567,-2.6796,-2.6007,-2.5217,-2.4557,-2.4263,-2.419,-2.419,-2.419,-2.419,-2.419,-2.419,-2.419,-2.419,-2.419,-2.419,-2.419,-2.419,-2.419,-2.419,-2.419,-2.419,-2.4266,-2.4425,-2.4651,-2.4861,-2.5006,-2.5201,-2.5668,-2.6217,-2.5909,-2.711,-2.9159,-3.009,-3.0359,-3.0398,-3.0398,-3.0398,-3.0398,-3.0398,-3.0398,-3.0398,-3.0398,-3.0398,-3.0398,-3.0667,-3.1821,-3.4968,-3.5507,-3.5507,-3.5507,-3.5507,-3.5507,-3.5507,-3.5507,-3.5507,-3.5507,-3.5507,-3.5507,-3.5507,-3.5507,-3.5507,-3.5507,-3.5507,-3.5507,-3.5507,-3.5507,-3.5507,-3.5507,-3.5507,-3.5507,-3.5507,-3.5507,-3.5507,-3.5507,-3.5507,-3.5507,-3.5507,-3.5507,-3.5507,-3.5507,-3.5507,-3.5507,-3.5507,-3.5507,-3.5507,-3.5507,-3.5507,-3.5515,-3.5522,-3.5488,-3.5507,-3.5507,-3.5507,-3.5507,-2.6708,-2.6708,-2.6708,-2.6808,-2.699,-2.7289,-2.7631,-2.7986,-2.8488,-2.8847,-2.8957,-2.8975,-2.8975,-2.8975,-2.8975,-2.8975,-2.8975,-2.8975,-2.8865,-2.8191,-2.7567,-2.6686,-2.5933,-2.5328,-2.4705,-2.4318,-2.419,-2.419,-2.419,-2.419,-2.419,-2.419,-2.419,-2.419,-2.419,-2.419,-2.419,-2.419,-2.419,-2.419,-2.419,-2.4209,-2.4247,-2.4408,-2.4651,-2.4861,-2.5006,-2.5201,-2.5514,-2.5813,-2.5341,-2.6091,-2.7725,-2.861,-3.0283,-3.0359,-3.0398,-3.0398,-3.0398,-3.0398,-3.0398,-3.0398,-3.0398,-3.0398,-3.0398,-3.0398,-3.2314,-3.4507,-3.5411,-3.5507,-3.5507,-3.5507,-3.5507,-3.5507,-3.5507,-3.5507,-3.5507,-3.5507,-3.5507,-3.5507,-3.5507,-3.5507,-3.5507,-3.5507,-3.5507,-3.5507,-3.5507,-3.5507,-3.5507,-3.5507,-3.5507,-3.5507,-3.5507,-3.5507,-3.5507,-3.5507,-3.5507,-3.5507,-3.5507,-3.5507,-3.5507,-3.5507,-3.5507,-3.5507,-3.5507,-3.5507,-3.5488,-3.5515,-3.556,-3.5553,-3.5554,-3.5515,-3.5501,-3.5501,-3.5507,-2.6708,-2.6708,-2.6708,-2.6742,-2.6859,-2.7117,-2.7487,-2.7964,-2.8445,-2.8787,-2.8938,-2.8975,-2.8975,-2.8975,-2.8975,-2.8975,-2.8975,-2.8975,-2.8902,-2.8191,-2.7879,-2.7034,-2.6172,-2.5456,-2.4869,-2.441,-2.419,-2.419,-2.419,-2.419,-2.419,-2.419,-2.419,-2.419,-2.419,-2.419,-2.419,-2.419,-2.419,-2.419,-2.419,-2.4228,-2.4247,-2.4442,-2.4651,-2.4842,-2.5019,-2.5179,-2.5313,-2.5313,-2.5313,-2.5313,-2.6206,-2.7648,-2.9698,-3.0129,-3.0398,-3.0398,-3.0398,-3.0398,-3.0398,-3.0398,-3.0398,-3.0398,-3.0398,-3.0398,-3.2359,-3.4243,-3.5276,-3.5507,-3.5507,-3.5507,-3.5507,-3.5507,-3.5507,-3.5507,-3.5507,-3.5507,-3.5507,-3.5507,-3.5507,-3.5507,-3.5507,-3.5507,-3.5507,-3.5507,-3.5507,-3.5507,-3.5507,-3.5507,-3.5488,-3.5488,-3.5488,-3.5488,-3.5488,-3.5507,-3.5507,-3.5507,-3.5507,-3.5507,-3.5507,-3.5507,-3.5507,-3.5507,-3.5507,-3.5488,-3.5515,-3.5541,-3.5577,-3.5608,-3.5623,-3.5586,-3.5541,-3.5515,-3.5507,-2.6708,-2.6708,-2.6708,-2.6708,-2.6775,-2.7006,-2.7517,-2.8195,-2.8469,-2.8732,-2.8975,-2.8975,-2.8975,-2.8975,-2.8975,-2.8975,-2.8975,-2.8975,-2.8943,-2.876,-2.8282,-2.7383,-2.6557,-2.5823,-2.5107,-2.4502,-2.419,-2.419,-2.419,-2.419,-2.419,-2.419,-2.419,-2.419,-2.419,-2.419,-2.419,-2.419,-2.419,-2.419,-2.419,-2.4209,-2.4266,-2.4461,-2.467,-2.4842,-2.5019,-2.519,-2.5264,-2.5313,-2.5313,-2.5313,-2.587,-2.6986,-2.864,-2.9871,-3.0359,-3.0398,-3.0398,-3.0398,-3.0398,-3.0398,-3.0398,-3.0398,-3.0398,-3.0533,-3.2263,-3.4186,-3.5507,-3.5507,-3.5507,-3.5507,-3.5507,-3.5507,-3.5507,-3.5507,-3.5507,-3.5507,-3.5507,-3.5507,-3.5507,-3.5507,-3.5507,-3.5507,-3.5507,-3.5507,-3.5507,-3.5507,-3.5507,-3.5507,-3.5488,-3.5501,-3.5501,-3.5488,-3.5488,-3.5501,-3.5515,-3.5528,-3.5488,-3.5507,-3.5507,-3.5507,-3.5507,-3.5507,-3.5507,-3.5488,-3.5501,-3.5547,-3.5623,-3.5643,-3.5706,-3.5643,-3.5601,-3.5547,-3.5545,-2.6708,-2.6708,-2.6708,-2.6708,-2.6759,-2.6978,-2.7442,-2.801,-2.8319,-2.8659,-2.8975,-2.8975,-2.8994,-2.8975,-2.8975,-2.8975,-2.8975,-2.8975,-2.8975,-2.8833,-2.865,-2.775,-2.6961,-2.6227,-2.5383,-2.4612,-2.419,-2.4226,-2.4226,-2.4226,-2.4245,-2.419,-2.419,-2.419,-2.419,-2.419,-2.419,-2.419,-2.419,-2.419,-2.419,-2.419,-2.4284,-2.4442,-2.4651,-2.4842,-2.5019,-2.5201,-2.5293,-2.5313,-2.5313,-2.5313,-2.5437,-2.6948,-2.8621,-3.011,-3.0398,-3.0398,-3.0398,-3.0398,-3.0398,-3.0398,-3.0398,-3.0398,-3.0398,-3.0802,-3.2032,-3.4103,-3.543,-3.5507,-3.5507,-3.5507,-3.5507,-3.5507,-3.5507,-3.5507,-3.5507,-3.5507,-3.5507,-3.5507,-3.5507,-3.5507,-3.5507,-3.5507,-3.5507,-3.5507,-3.5507,-3.5507,-3.5507,-3.5507,-3.5509,-3.5522,-3.5509,-3.5515,-3.5528,-3.5522,-3.5534,-3.5547,-3.5547,-3.5507,-3.5507,-3.5507,-3.5507,-3.5515,-3.5566,-3.5528,-3.5507,-3.5554,-3.5596,-3.5765,-3.5834,-3.5727,-3.5658,-3.5631,-3.5598,-2.6708,-2.6708,-2.6708,-2.6708,-2.6725,-2.6962,-2.7298,-2.7695,-2.8118,-2.8552,-2.892,-2.8934,-2.8994,-2.8975,-2.8975,-2.8975,-2.8975,-2.8975,-2.8975,-2.8975,-2.8975,-2.7897,-2.7108,-2.6484,-2.5566,-2.474,-2.4263,-2.4392,-2.4538,-2.4612,-2.463,-2.419,-2.419,-2.419,-2.419,-2.419,-2.419,-2.419,-2.419,-2.419,-2.419,-2.4209,-2.4284,-2.4407,-2.4651,-2.4828,-2.4994,-2.519,-2.5293,-2.5303,-2.5313,-2.5303,-2.5822,-2.7467,-2.9025,-3.0359,-3.0398,-3.0398,-3.0398,-3.0398,-3.0398,-3.0398,-3.0398,-3.0398,-3.0398,-3.0609,-3.259,-3.4603,-3.5122,-3.5507,-3.5507,-3.5507,-3.5507,-3.5507,-3.5507,-3.5507,-3.5507,-3.5507,-3.5507,-3.5507,-3.5507,-3.5507,-3.5507,-3.5507,-3.5507,-3.5507,-3.5507,-3.5507,-3.5507,-3.5507,-3.5534,-3.5546,-3.554,-3.5534,-3.5572,-3.5612,-3.5646,-3.5662,-3.5624,-3.5597,-3.5559,-3.5604,-3.5646,-3.5665,-3.5662,-3.562,-3.557,-3.5515,-3.5566,-3.5718,-3.5838,-3.5795,-3.5752,-3.5776,-3.5745,-2.659,-2.659,-2.6657,-2.6708,-2.6725,-2.6928,-2.7113,-2.7341,-2.7887,-2.8373,-2.8717,-2.885,-2.8929,-2.8975,-2.8975,-2.8975,-2.8975,-2.8975,-2.8975,-2.8975,-2.8975,-2.8095,-2.7016,-2.6502,-2.5619,-2.4721,-2.4447,-2.4869,-2.5329,-2.5293,-2.4869,-2.43,-2.419,-2.419,-2.419,-2.419,-2.419,-2.419,-2.419,-2.419,-2.419,-2.4228,-2.4247,-2.4425,-2.462,-2.4847,-2.4994,-2.5157,-2.5293,-2.5293,-2.5418,-2.5447,-2.6697,-2.8371,-2.9871,-3.0333,-3.0379,-3.0398,-3.0398,-3.0398,-3.0398,-3.0398,-3.0398,-3.0398,-3.0398,-3.0398,-3.2186,-3.366,-3.4218,-3.5218,-3.5507,-3.5507,-3.5507,-3.5507,-3.5507,-3.5507,-3.5507,-3.5507,-3.5507,-3.5507,-3.5507,-3.5507,-3.5507,-3.5507,-3.5507,-3.5507,-3.5507,-3.5507,-3.5507,-3.5507,-3.5522,-3.557,-3.557,-3.5581,-3.5679,-3.5715,-3.5791,-3.5795,-3.5728,-3.5709,-3.5688,-3.5745,-3.585,-3.5826,-3.5801,-3.5743,-3.5698,-3.5657,-3.5604,-3.5608,-3.5728,-3.5815,-3.5833,-3.5846,-3.5833,-2.5862,-2.593,-2.6454,-2.6708,-2.6708,-2.686,-2.6995,-2.718,-2.7573,-2.7976,-2.8451,-2.8658,-2.8839,-2.8994,-2.8975,-2.8975,-2.8975,-2.8975,-2.8975,-2.8938,-2.8938,-2.8044,-2.6848,-2.6442,-2.5599,-2.4904,-2.4794,-2.5417,-2.5713,-2.5585,-2.5348,-2.4997,-2.4593,-2.419,-2.419,-2.419,-2.419,-2.419,-2.419,-2.419,-2.419,-2.4209,-2.4266,-2.441,-2.4594,-2.4764,-2.4921,-2.5056,-2.5157,-2.5258,-2.5913,-2.6521,-2.7371,-2.9333,-3.0244,-3.0398,-3.0398,-3.0398,-3.0398,-3.0398,-3.0398,-3.0398,-3.0398,-3.0398,-3.0398,-3.0398,-3.0975,-3.2275,-3.341,-3.4526,-3.5507,-3.5507,-3.5507,-3.5507,-3.5507,-3.5507,-3.5507,-3.5507,-3.5507,-3.5507,-3.5507,-3.5507,-3.5507,-3.5507,-3.5507,-3.5507,-3.5507,-3.5507,-3.5507,-3.5488,-3.5482,-3.5521,-3.5574,-3.562,-3.5729,-3.5753,-3.5779,-3.5838,-3.5801,-3.5807,-3.5806,-3.5846,-3.5899,-3.5932,-3.5923,-3.5866,-3.5799,-3.5771,-3.5737,-3.5687,-3.5695,-3.5793,-3.581,-3.5799,-3.5833,-2.5101,-2.5169,-2.5524,-2.571,-2.5744,-2.5815,-2.59,-2.6067,-2.6649,-2.7233,-2.7774,-2.8323,-2.8767,-2.8952,-2.8975,-2.8957,-2.8957,-2.8975,-2.8975,-2.8938,-2.8503,-2.7695,-2.6958,-2.6237,-2.5326,-2.4666,-2.5436,-2.5986,-2.5841,-2.6007,-2.5805,-2.5052,-2.4392,-2.419,-2.419,-2.419,-2.419,-2.419,-2.419,-2.419,-2.419,-2.4209,-2.4247,-2.4393,-2.4513,-2.4676,-2.4779,-2.494,-2.5228,-2.576,-2.6588,-2.7166,-2.8044,-2.9448,-3.0244,-3.0398,-3.0398,-3.0398,-3.0398,-3.0398,-3.0398,-3.0398,-3.0398,-3.0398,-3.0398,-3.0398,-3.0398,-3.1494,-3.1628,-3.2609,-3.4872,-3.5507,-3.5507,-3.5507,-3.5507,-3.5507,-3.5507,-3.5507,-3.5507,-3.5507,-3.5507,-3.5507,-3.5507,-3.5507,-3.5507,-3.5507,-3.5507,-3.5507,-3.5507,-3.5507,-3.5482,-3.5509,-3.5546,-3.5659,-3.5811,-3.5768,-3.5708,-3.5771,-3.5833,-3.584,-3.584,-3.5895,-3.5957,-3.591,-3.5907,-3.5951,-3.5897,-3.5878,-3.5854,-3.5805,-3.5786,-3.5795,-3.5795,-3.5785,-3.5823,-2.4438,-2.4506,-2.454,-2.454,-2.4495,-2.4529,-2.458,-2.4729,-2.5552,-2.633,-2.6942,-2.7817,-2.8427,-2.8764,-2.8975,-2.8902,-2.8883,-2.8962,-2.898,-2.8594,-2.8136,-2.7236,-2.6444,-2.5745,-2.5106,-2.5071,-2.5658,-2.5474,-2.5144,-2.5585,-2.5529,-2.452,-2.4245,-2.419,-2.419,-2.419,-2.419,-2.419,-2.419,-2.419,-2.419,-2.419,-2.4228,-2.4321,-2.4428,-2.4512,-2.461,-2.4832,-2.5242,-2.6032,-2.6981,-2.7931,-2.8629,-2.9737,-3.0083,-3.0398,-3.0398,-3.0398,-3.0398,-3.0398,-3.0398,-3.0398,-3.0398,-3.0398,-3.0398,-3.0398,-3.0398,-3.0456,-3.0609,-3.1564,-3.3833,-3.5353,-3.5353,-3.5262,-3.5262,-3.5257,-3.5276,-3.5353,-3.543,-3.5411,-3.5391,-3.5372,-3.5353,-3.5372,-3.543,-3.5449,-3.5449,-3.5488,-3.5507,-3.5507,-3.5488,-3.5501,-3.5522,-3.5667,-3.5818,-3.5765,-3.5646,-3.5669,-3.5736,-3.5815,-3.5845,-3.5813,-3.5774,-3.5755,-3.5767,-3.5846,-3.5928,-3.5917,-3.5898,-3.5879,-3.585,-3.5842,-3.5834,-3.5815,-3.5834,-2.3951,-2.4523,-2.4506,-2.4489,-2.4458,-2.4481,-2.45,-2.4546,-2.4974,-2.5768,-2.648,-2.6512,-2.6993,-2.8044,-2.876,-2.8737,-2.8301,-2.8576,-2.8411,-2.8007,-2.7622,-2.6759,-2.5949,-2.5415,-2.5309,-2.5348,-2.5513,-2.5674,-2.5181,-2.5401,-2.5513,-2.5017,-2.4337,-2.4208,-2.419,-2.419,-2.419,-2.419,-2.419,-2.419,-2.419,-2.4209,-2.4209,-2.4266,-2.4339,-2.4409,-2.4459,-2.4561,-2.4786,-2.5494,-2.6905,-2.8413,-2.9387,-3.0033,-3.0283,-3.0398,-3.0398,-3.0398,-3.0398,-3.0398,-3.0398,-3.0398,-3.0398,-3.0398,-3.0398,-3.0398,-3.0398,-3.0398,-3.066,-3.121,-3.3019,-3.441,-3.4801,-3.4589,-3.4493,-3.4468,-3.4449,-3.4834,-3.5161,-3.5064,-3.4968,-3.4911,-3.4801,-3.4916,-3.5128,-3.5128,-3.5089,-3.5166,-3.5449,-3.5488,-3.5391,-3.5322,-3.5277,-3.5554,-3.5631,-3.5654,-3.5584,-3.5601,-3.5623,-3.5718,-3.5737,-3.562,-3.5593,-3.5698,-3.566,-3.5689,-3.5782,-3.5918,-3.5976,-3.5957,-3.5898,-3.5869,-3.584,-3.5888,-3.5905]}]]